[[{"header":{"parameterUnit":"m.s-1","parameterCategory":1,"la1":30.6,"la2":29.2853,"lo1":-89.7004,"lo2":-87.6739,"dy":0.0162,"dx":0.0183,"nx":112,"ny":82,"refTime":"2025-07-04T00:00:00:Z","depth":0,"parameterNumber":2,"parameterNumberName":"U-component_of_WINDS"},"data":[0.0,0.0,0.0,0.0,0.0,0.0,0.0,0.0,0.0,0.0,0.0,0.0,0.0,0.0,0.0,0.0,0.0,0.0,0.0,0.0,0.0,0.0,0.0,0.0,0.0,0.0,0.0,0.0,0.0,0.0,0.0,0.0,0.0,0.0,0.0,0.0,0.0,0.0,0.0,0.0,0.0,0.0,0.0,0.0,0.0,0.0,0.0,0.0,0.0,0.0,0.0,0.0,0.0,0.0,0.0,0.0,0.0,0.0,0.0,0.0,0.0,0.0,0.0,0.0,0.0,0.0,0.0,0.0,0.0,0.0,0.0,0.0,0.0,0.0,0.0,0.0,0.0,0.0,0.0,0.0,0.0,0.0,0.0,0.0,0.0,0.0,0.0,0.0,0.0,0.0,0.0,-1.404,-1.6016,-1.7274,-1.735,-1.744,-1.6478,-1.4126,0.0,0.0,0.0,0.0,0.0,0.0,0.0,0.0,0.0,0.0,0.0,0.0,0.0,0.0,0.0,0.0,0.0,0.0,0.0,0.0,0.0,0.0,0.0,0.0,0.0,0.0,0.0,0.0,0.0,0.0,0.0,0.0,0.0,0.0,0.0,0.0,0.0,0.0,0.0,0.0,0.0,0.0,0.0,0.0,0.0,0.0,0.0,0.0,0.0,0.0,0.0,0.0,0.0,0.0,0.0,0.0,0.0,0.0,0.0,0.0,0.0,0.0,0.0,0.0,0.0,0.0,0.0,0.0,0.0,0.0,0.0,0.0,0.0,0.0,0.0,0.0,0.0,0.0,0.0,0.0,0.0,0.0,0.0,0.0,0.0,0.0,0.0,0.0,0.0,0.0,0.0,0.0,0.0,0.0,0.0,0.0,0.0,0.0,0.0,0.0,0.0,0.0,0.0,0.0,-1.255,-1.5676,-1.6822,-1.7329,-1.7253,-1.7337,-1.6382,-1.3969,0.0,0.0,0.0,0.0,0.0,0.0,0.0,0.0,0.0,0.0,0.0,0.0,0.0,0.0,0.0,0.0,0.0,0.0,0.0,0.0,0.0,0.0,0.0,0.0,0.0,0.0,0.0,0.0,0.0,0.0,0.0,0.0,0.0,0.0,0.0,0.0,0.0,0.0,0.0,0.0,0.0,0.0,0.0,0.0,0.0,0.0,0.0,0.0,0.0,0.0,0.0,0.0,0.0,0.0,0.0,0.0,0.0,0.0,0.0,0.0,0.0,0.0,0.0,0.0,0.0,0.0,0.0,0.0,0.0,0.0,0.0,0.0,0.0,0.0,0.0,0.0,0.0,0.0,0.0,0.0,0.0,0.0,0.0,0.0,0.0,0.0,0.0,0.0,0.0,0.0,0.0,0.0,0.0,0.0,0.0,0.0,0.0,0.0,0.0,0.0,0.0,0.0,0.0,-1.2316,-1.37,-1.6532,-1.7109,-1.7274,-1.7199,-1.7329,-1.6362,-1.3948,-1.2843,0.0,0.0,0.0,0.0,0.0,0.0,0.0,0.0,0.0,0.0,0.0,0.0,0.0,0.0,0.0,0.0,0.0,0.0,0.0,0.0,0.0,0.0,0.0,0.0,0.0,0.0,0.0,0.0,0.0,0.0,0.0,0.0,0.0,0.0,0.0,0.0,0.0,0.0,0.0,0.0,0.0,0.0,0.0,0.0,0.0,0.0,0.0,0.0,0.0,0.0,0.0,0.0,0.0,0.0,0.0,0.0,0.0,0.0,0.0,0.0,0.0,0.0,0.0,0.0,0.0,0.0,0.0,0.0,0.0,0.0,0.0,0.0,0.0,0.0,0.0,0.0,0.0,0.0,0.0,0.0,0.0,0.0,0.0,0.0,0.0,0.0,0.0,0.0,0.0,0.0,0.0,0.0,0.0,0.0,0.0,0.0,0.0,0.0,0.0,0.0,0.0,0.0,-1.3853,-1.4964,-1.699,-1.7199,-1.7199,-1.7199,-1.7059,-1.6054,-1.3935,-1.2504,0.0,0.0,0.0,0.0,0.0,0.0,0.0,0.0,0.0,0.0,0.0,0.0,0.0,0.0,0.0,0.0,0.0,0.0,0.0,0.0,0.0,0.0,0.0,0.0,0.0,0.0,0.0,0.0,0.0,0.0,0.0,0.0,0.0,0.0,0.0,0.0,0.0,0.0,0.0,0.0,0.0,0.0,0.0,0.0,0.0,0.0,0.0,0.0,0.0,0.0,0.0,0.0,0.0,0.0,0.0,0.0,0.0,0.0,0.0,0.0,0.0,0.0,0.0,0.0,0.0,0.0,0.0,0.0,0.0,0.0,0.0,0.0,0.0,0.0,0.0,0.0,0.0,0.0,0.0,0.0,0.0,0.0,0.0,0.0,0.0,0.0,0.0,0.0,0.0,0.0,0.0,0.0,0.0,0.0,0.0,0.0,0.0,0.0,0.0,0.0,0.0,0.0,-1.4019,-1.584,-1.7068,-1.7199,-1.7199,-1.7199,-1.6251,-1.5113,-1.3883,-1.1684,0.0,0.0,0.0,0.0,0.0,0.0,0.0,0.0,0.0,0.0,0.0,0.0,0.0,0.0,0.0,0.0,0.0,0.0,0.0,0.0,0.0,0.0,0.0,0.0,0.0,0.0,0.0,0.0,0.0,0.0,0.0,0.0,0.0,0.0,0.0,0.0,0.0,0.0,0.0,0.0,0.0,0.0,0.0,0.0,0.0,0.0,0.0,0.0,0.0,0.0,0.0,0.0,0.0,0.0,0.0,0.0,0.0,0.0,0.0,0.0,0.0,0.0,0.0,0.0,0.0,0.0,0.0,0.0,0.0,0.0,0.0,0.0,0.0,0.0,0.0,0.0,0.0,0.0,0.0,0.0,0.0,0.0,0.0,0.0,0.0,0.0,0.0,0.0,0.0,0.0,0.0,0.0,0.0,0.0,0.0,0.0,0.0,0.0,0.0,0.0,0.0,0.0,-1.3719,-1.5513,0.0,-1.7199,-1.7199,-1.7199,-1.6807,-1.5761,-1.3922,0.0,0.0,0.0,0.0,0.0,0.0,0.0,0.0,0.0,0.0,0.0,0.0,0.0,0.0,0.0,0.0,0.0,0.0,0.0,0.0,0.0,0.0,0.0,0.0,0.0,0.0,0.0,0.0,0.0,0.0,0.0,0.0,0.0,0.0,0.0,0.0,0.0,0.0,0.0,0.0,0.0,0.0,0.0,0.0,0.0,0.0,0.0,0.0,0.0,0.0,0.0,0.0,0.0,0.0,0.0,0.0,0.0,0.0,0.0,0.0,0.0,0.0,0.0,0.0,0.0,0.0,0.0,0.0,0.0,0.0,0.0,0.0,0.0,0.0,0.0,0.0,0.0,0.0,0.0,0.0,0.0,0.0,0.0,0.0,0.0,0.0,0.0,0.0,0.0,0.0,0.0,0.0,0.0,0.0,0.0,0.0,0.0,0.0,0.0,0.0,0.0,0.0,-1.1823,-1.3849,-1.5683,0.0,-1.7199,-1.7199,-1.7199,-1.6872,-1.584,-1.3922,0.0,0.0,0.0,0.0,0.0,0.0,0.0,0.0,0.0,0.0,0.0,0.0,0.0,0.0,0.0,0.0,0.0,0.0,0.0,0.0,0.0,0.0,0.0,0.0,0.0,0.0,0.0,0.0,0.0,0.0,0.0,0.0,0.0,0.0,0.0,0.0,0.0,0.0,0.0,0.0,0.0,0.0,0.0,0.0,0.0,0.0,0.0,0.0,0.0,0.0,0.0,0.0,0.0,0.0,0.0,0.0,0.0,0.0,0.0,0.0,0.0,0.0,0.0,0.0,0.0,0.0,0.0,0.0,0.0,0.0,0.0,0.0,0.0,0.0,0.0,0.0,0.0,0.0,0.0,0.0,0.0,0.0,0.0,0.0,0.0,0.0,0.0,0.0,0.0,0.0,0.0,0.0,0.0,0.0,0.0,0.0,0.0,0.0,0.0,0.0,0.0,0.0,-1.1928,-1.458,-1.6611,-1.7146,-1.7199,-1.7199,-1.7199,-1.6166,-1.5034,0.0,0.0,0.0,0.0,0.0,0.0,0.0,0.0,0.0,0.0,0.0,0.0,0.0,0.0,0.0,0.0,0.0,0.0,0.0,0.0,0.0,0.0,0.0,0.0,0.0,0.0,0.0,0.0,0.0,0.0,0.0,0.0,0.0,0.0,0.0,0.0,0.0,0.0,0.0,0.0,0.0,0.0,0.0,0.0,0.0,0.0,0.0,0.0,0.0,0.0,0.0,0.0,0.0,0.0,0.0,0.0,0.0,0.0,0.0,0.0,0.0,0.0,0.0,0.0,0.0,0.0,0.0,0.0,0.0,0.0,0.0,0.0,0.0,0.0,0.0,0.0,0.0,0.0,0.0,0.0,0.0,0.0,0.0,0.0,0.0,0.0,0.0,0.0,0.0,0.0,0.0,0.0,0.0,0.0,0.0,0.0,0.0,0.0,0.0,0.0,0.0,0.0,0.0,0.0,-1.516,-1.7016,-1.7186,-1.7199,-1.7199,-1.7199,-1.6885,-1.5866,-1.3922,0.0,0.0,0.0,0.0,0.0,0.0,0.0,0.0,0.0,0.0,0.0,0.0,0.0,0.0,0.0,0.0,0.0,0.0,0.0,0.0,0.0,0.0,0.0,0.0,0.0,0.0,0.0,0.0,0.0,0.0,0.0,0.0,0.0,0.0,0.0,0.0,0.0,0.0,0.0,0.0,0.0,0.0,0.0,0.0,0.0,0.0,0.0,0.0,0.0,0.0,0.0,0.0,0.0,0.0,0.0,0.0,0.0,0.0,0.0,0.0,0.0,0.0,0.0,0.0,0.0,0.0,0.0,0.0,0.0,0.0,0.0,0.0,0.0,0.0,0.0,0.0,0.0,0.0,0.0,0.0,0.0,0.0,0.0,0.0,0.0,0.0,0.0,0.0,0.0,0.0,0.0,0.0,0.0,0.0,0.0,0.0,0.0,0.0,0.0,0.0,0.0,0.0,-1.2823,-1.5408,-1.7199,-1.7199,-1.7199,-1.7199,-1.7199,-1.7199,-1.6323,-1.4249,0.0,0.0,0.0,0.0,0.0,0.0,0.0,0.0,0.0,0.0,0.0,0.0,0.0,0.0,0.0,0.0,0.0,0.0,0.0,0.0,0.0,0.0,0.0,0.0,0.0,0.0,0.0,0.0,0.0,0.0,0.0,0.0,0.0,0.0,0.0,0.0,0.0,0.0,0.0,0.0,0.0,0.0,0.0,0.0,0.0,0.0,0.0,0.0,0.0,0.0,0.0,0.0,0.0,0.0,0.0,0.0,0.0,0.0,0.0,0.0,0.0,0.0,0.0,0.0,0.0,0.0,0.0,0.0,0.0,0.0,0.0,0.0,0.0,0.0,0.0,0.0,0.0,0.0,0.0,0.0,0.0,0.0,0.0,0.0,0.0,0.0,0.0,0.0,0.0,0.0,0.0,0.0,0.0,0.0,0.0,0.0,0.0,0.0,0.0,0.0,0.0,0.0,-1.2902,-1.5447,-1.7199,-1.7199,-1.7199,-1.7199,-1.7199,-1.7199,-1.648,-1.4781,0.0,0.0,0.0,0.0,0.0,0.0,0.0,0.0,0.0,0.0,0.0,0.0,0.0,0.0,0.0,0.0,0.0,0.0,0.0,0.0,0.0,0.0,0.0,0.0,0.0,0.0,0.0,0.0,0.0,0.0,0.0,0.0,0.0,0.0,0.0,0.0,0.0,0.0,0.0,0.0,0.0,0.0,0.0,0.0,0.0,0.0,0.0,0.0,0.0,0.0,0.0,0.0,0.0,0.0,0.0,0.0,0.0,0.0,0.0,0.0,-1.3934,0.0,0.0,0.0,0.0,0.0,0.0,0.0,0.0,0.0,0.0,0.0,0.0,0.0,0.0,0.0,0.0,0.0,0.0,0.0,0.0,0.0,0.0,0.0,0.0,0.0,0.0,0.0,0.0,0.0,0.0,0.0,0.0,0.0,0.0,0.0,0.0,0.0,0.0,0.0,0.0,0.0,-1.3477,-1.5709,-1.7199,-1.7199,-1.7199,-1.7199,-1.7199,-1.7199,-1.6663,-1.5382,0.0,0.0,0.0,0.0,0.0,0.0,0.0,0.0,0.0,0.0,0.0,0.0,0.0,0.0,0.0,0.0,0.0,0.0,0.0,0.0,0.0,0.0,0.0,0.0,0.0,0.0,0.0,0.0,0.0,0.0,0.0,0.0,0.0,0.0,0.0,0.0,0.0,0.0,0.0,0.0,0.0,0.0,0.0,0.0,0.0,0.0,0.0,0.0,0.0,0.0,0.0,0.0,0.0,0.0,0.0,0.0,0.0,0.0,0.0,0.0,0.0,-1.5888,0.0,0.0,0.0,0.0,0.0,0.0,0.0,0.0,0.0,0.0,0.0,0.0,0.0,0.0,0.0,0.0,0.0,0.0,0.0,0.0,0.0,0.0,0.0,0.0,0.0,0.0,0.0,0.0,0.0,0.0,0.0,0.0,0.0,0.0,0.0,0.0,0.0,0.0,0.0,0.0,-1.4023,-1.5944,-1.7199,-1.7199,-1.7199,-1.7199,-1.7199,-1.7199,-1.6833,-1.5983,-1.5095,0.0,0.0,0.0,0.0,0.0,0.0,0.0,0.0,0.0,0.0,0.0,0.0,0.0,0.0,0.0,0.0,0.0,0.0,0.0,0.0,0.0,0.0,0.0,0.0,0.0,0.0,0.0,0.0,0.0,0.0,0.0,0.0,0.0,0.0,0.0,0.0,0.0,0.0,0.0,0.0,0.0,0.0,0.0,0.0,0.0,0.0,0.0,0.0,0.0,0.0,0.0,0.0,0.0,-2.0356,-2.1125,-2.2036,-2.2549,-2.3093,-2.3513,-2.0568,-1.9605,-2.0026,0.0,0.0,0.0,0.0,0.0,0.0,0.0,0.0,0.0,0.0,0.0,0.0,0.0,0.0,0.0,0.0,0.0,0.0,0.0,0.0,0.0,0.0,0.0,0.0,0.0,-1.7576,-1.8147,0.0,0.0,0.0,0.0,0.0,0.0,0.0,0.0,0.0,0.0,0.0,0.0,-1.4742,-1.6336,-1.7356,-1.7356,-1.7356,-1.7316,-1.7212,-1.7199,-1.7003,-1.6558,-1.597,-1.5225,0.0,0.0,0.0,0.0,0.0,0.0,0.0,0.0,0.0,0.0,0.0,0.0,0.0,0.0,0.0,0.0,0.0,0.0,0.0,0.0,0.0,0.0,0.0,0.0,0.0,0.0,0.0,0.0,0.0,0.0,0.0,0.0,-1.0571,-1.176,0.0,0.0,0.0,0.0,0.0,0.0,0.0,0.0,0.0,0.0,0.0,0.0,0.0,0.0,-2.0859,-2.2072,-2.2932,-2.3418,-2.4015,-2.4381,-2.453,-2.4611,-2.4978,-2.552,-2.5046,0.0,-2.1857,-2.0572,0.0,0.0,0.0,0.0,0.0,0.0,0.0,0.0,0.0,0.0,0.0,0.0,0.0,0.0,0.0,0.0,0.0,0.0,0.0,0.0,0.0,0.0,-1.9008,-1.9089,-1.9714,-2.0125,0.0,-1.7076,-1.4718,-1.388,0.0,0.0,0.0,0.0,0.0,0.0,0.0,0.0,-1.5944,-1.7225,-1.7983,-1.7983,-1.7983,-1.7761,-1.7238,-1.7199,-1.7173,-1.7094,-1.6584,-1.6205,-1.6049,-1.4537,0.0,0.0,0.0,0.0,0.0,0.0,0.0,0.0,0.0,0.0,0.0,0.0,0.0,0.0,0.0,0.0,0.0,0.0,0.0,0.0,0.0,0.0,0.0,0.0,0.0,0.0,0.0,0.0,0.0,-1.0204,-1.1872,-1.2694,-1.3534,-1.3694,0.0,0.0,0.0,0.0,0.0,0.0,0.0,0.0,0.0,-1.9633,-2.115,-2.2481,-2.3523,-2.4436,-2.5117,-2.5614,-2.624,-2.6701,-2.7026,-2.7366,-2.7854,-2.841,-2.8058,-2.7121,-2.5683,-2.3825,-2.1993,-2.0229,0.0,0.0,0.0,0.0,-1.6837,-1.7482,-1.8079,-1.8729,0.0,0.0,0.0,0.0,0.0,0.0,0.0,0.0,0.0,0.0,0.0,0.0,0.0,-2.1084,-2.1602,-2.2011,-2.1936,-2.0471,-1.8573,0.0,-1.592,-1.5025,-1.2654,0.0,0.0,0.0,0.0,0.0,-1.6702,-1.7839,-1.8558,-1.8558,-1.8283,-1.7996,-1.7735,-1.7395,-1.7199,-1.7199,-1.6977,-1.6846,-1.6846,-1.5833,-1.4825,0.0,0.0,0.0,0.0,0.0,0.0,0.0,0.0,0.0,0.0,0.0,0.0,0.0,0.0,0.0,0.0,0.0,0.0,0.0,0.0,0.0,0.0,0.0,0.0,0.0,0.0,0.0,0.0,-1.1851,-1.3326,-1.4139,-1.5483,-1.5892,0.0,0.0,0.0,0.0,0.0,0.0,-1.9273,-2.0216,-2.1318,-2.2725,-2.4232,-2.5302,-2.5914,-2.6674,-2.7284,-2.7714,-2.8655,-2.9306,-2.9767,-3.0663,-3.1327,-3.1748,-3.1273,-3.0825,-3.0161,-2.6837,-2.4489,-2.2888,-2.1833,-2.0826,-1.9953,-2.0103,-2.069,-2.1507,-2.2104,-2.2903,-2.3472,-2.2266,0.0,-2.0765,-1.858,0.0,0.0,0.0,0.0,-1.9035,-2.0093,-2.1209,-2.2198,-2.2658,-2.3093,-2.3379,-2.3259,-2.2853,-2.1729,0.0,-1.8732,-1.7942,-1.4791,0.0,0.0,0.0,0.0,-1.7081,-1.7774,-1.861,-1.9133,-1.9133,-1.8767,-1.8414,-1.8127,-1.7682,-1.7356,-1.7212,-1.7199,-1.7199,-1.7199,-1.682,-1.6114,-1.5068,0.0,0.0,0.0,0.0,0.0,0.0,0.0,0.0,0.0,0.0,0.0,0.0,0.0,0.0,0.0,0.0,0.0,0.0,0.0,0.0,0.0,0.0,0.0,0.0,0.0,0.0,0.0,0.0,0.0,-1.7076,-1.8366,0.0,0.0,0.0,0.0,-1.8149,-2.0114,-2.1633,-2.2336,-2.3333,-2.4435,-2.5658,-2.6877,-2.7813,-2.841,-2.9591,-3.0201,-3.0242,-3.2001,-3.2843,-3.2938,-3.4624,-3.5411,-3.5452,-3.5411,-3.5384,-3.4909,-2.9083,-2.5966,-2.4815,-2.4164,-2.3527,-2.3052,-2.3621,-2.3865,-2.4001,-2.4611,-2.4869,-2.4991,-2.5466,-2.4476,-2.3052,-2.2903,-2.1263,0.0,0.0,-2.0748,-2.1358,-2.2007,-2.3052,-2.396,-2.4001,-2.4028,-2.4028,-2.3891,-2.3474,-2.2704,0.0,-2.0447,-1.9638,-1.8183,0.0,-1.7904,-1.7852,-1.7944,-1.8414,-1.9525,-1.9721,-1.976,-1.976,-1.9734,-1.9277,-1.8192,-1.8074,-1.7813,-1.7238,-1.7199,-1.7199,-1.7199,-1.7173,-1.6885,-1.631,-1.4603,0.0,0.0,0.0,0.0,0.0,0.0,0.0,0.0,0.0,0.0,0.0,0.0,0.0,0.0,0.0,0.0,0.0,0.0,0.0,0.0,0.0,0.0,0.0,0.0,0.0,0.0,0.0,0.0,-1.8837,-2.0261,0.0,0.0,-2.0868,-2.1419,-2.1459,-2.2569,-2.3674,-2.4654,-2.5807,-2.7162,-2.875,-2.9957,-3.1056,-3.1997,-3.243,-3.2661,-3.2725,-3.3363,-3.4054,-3.4787,-3.5425,-3.6103,-3.6821,-3.6456,-3.628,-3.609,-3.358,-3.1857,-3.073,-3.012,-2.8804,-2.723,-2.7054,-2.6755,-2.6373,-2.624,-2.64,-2.6714,-2.6552,-2.5792,-2.4951,-2.4951,-2.4082,-2.3241,-2.3811,-2.4137,-2.4354,-2.4557,-2.4937,-2.5168,-2.4774,-2.4693,-2.4637,-2.4497,-2.4419,-2.4,-2.283,-2.2193,-2.1329,-1.9644,-1.958,-1.9392,-1.827,-1.8728,-1.9342,-1.9747,-2.0151,-2.0373,-2.0373,-2.0022,-1.9643,-1.9237,-1.8519,-1.8009,-1.7787,-1.7408,-1.7199,-1.7199,-1.7199,-1.7107,-1.6911,-1.5578,-1.4324,0.0,0.0,0.0,0.0,0.0,0.0,0.0,0.0,0.0,0.0,0.0,0.0,0.0,0.0,0.0,0.0,0.0,0.0,0.0,0.0,0.0,0.0,0.0,0.0,0.0,0.0,-1.8762,-2.0233,-2.1818,-2.2564,-2.2047,-2.34,-2.4518,-2.5005,-2.6158,-2.7271,-2.8293,-2.9265,-3.033,-3.1522,-3.2562,-3.3457,-3.4206,-3.4409,-3.4517,-3.4584,-3.5194,-3.5886,-3.6646,-3.7256,-3.7975,-3.8678,-3.8301,-3.8125,-3.8098,-3.7704,-3.6958,-3.594,-3.4516,-3.2861,-3.1232,-3.0839,-3.0066,-2.9075,-2.8071,-2.7841,-2.7949,-2.7556,-2.6999,-2.6497,-2.6497,-2.609,-2.5697,-2.609,-2.6199,-2.6199,-2.6199,-2.6199,-2.605,-2.5395,-2.5246,-2.5135,-2.4733,-2.475,-2.4642,-2.3915,-2.34,-2.2631,-2.1074,-2.1077,-2.087,-1.9721,-2.0191,-2.0597,-2.0401,-2.0714,-2.0896,-2.0725,-2.0334,-2.0009,-1.9826,-1.8924,-1.8296,-1.8114,-1.7525,-1.7199,-1.7199,-1.7199,-1.7199,-1.7199,-1.6075,-1.4943,-1.3791,0.0,0.0,0.0,0.0,0.0,0.0,0.0,0.0,0.0,0.0,0.0,0.0,0.0,0.0,0.0,0.0,0.0,0.0,0.0,0.0,0.0,0.0,0.0,-1.7329,-1.8914,-2.0375,-2.145,-2.3174,-2.4069,-2.3486,-2.6088,-2.8085,-2.8655,-3.0893,-3.2517,-3.3088,-3.3647,-3.3962,-3.3989,-3.4572,-3.4897,-3.4924,-3.5533,-3.5832,-3.5845,-3.7609,-3.845,-3.8532,-4.0296,-4.1096,-4.1123,-4.1123,-4.1123,-4.1123,-4.1123,-4.077,-3.9929,-3.6999,-3.5425,-3.487,-3.487,-3.377,-3.1951,-3.0208,-2.919,-2.8641,-2.8627,-2.8234,-2.7759,-2.7732,-2.7339,-2.6847,-2.6847,-2.6847,-2.6847,-2.682,-2.682,-2.6627,-2.5899,-2.5708,-2.5432,-2.4538,-2.4463,-2.4549,-2.435,-2.3998,-2.3441,-2.2573,-2.2414,-2.2427,-2.24,-2.2414,0.0,-2.1616,-2.1525,-2.1302,-2.0791,-2.0712,-2.0451,-1.9878,-1.9264,-1.8675,-1.8166,-1.7539,-1.7212,-1.7225,-1.7225,-1.7225,-1.7225,-1.6127,-1.4977,-1.3857,0.0,0.0,0.0,0.0,0.0,0.0,0.0,0.0,0.0,0.0,0.0,0.0,0.0,0.0,0.0,0.0,0.0,0.0,0.0,0.0,0.0,0.0,-1.872,-1.8529,-2.1803,-2.449,-2.5221,-2.7311,-2.8582,-2.8451,-2.9957,-3.1015,-3.1213,-3.2603,-3.3501,-3.3664,-3.4219,-3.4938,-3.5845,-3.6428,-3.716,-3.807,-3.8233,-3.8315,-3.8328,-3.8817,-3.9278,-3.9712,-4.0214,-4.0689,-4.1123,-4.1123,-4.1123,-4.1123,-4.1123,-4.1015,-4.073,-3.9454,-3.807,-3.6754,-3.6754,-3.5113,-3.2721,-3.1797,-3.0771,-2.9835,-2.9374,-2.9149,-2.8912,-2.8478,-2.8234,-2.8112,-2.8112,-2.8112,-2.8003,-2.7583,-2.7354,-2.7068,-2.6432,-2.5885,-2.5405,-2.5156,-2.4826,-2.4549,-2.435,-2.4202,-2.394,-2.3301,-2.3072,-2.2858,-2.2465,-2.24,0.0,-2.2151,-2.1786,-2.1446,-2.1289,-2.0923,-2.0633,-2.0465,-1.9486,-1.8845,-1.8689,-1.7748,-1.7395,-1.7826,-1.7852,-1.7852,-1.7852,-1.7107,-1.6166,0.0,0.0,0.0,0.0,0.0,0.0,0.0,0.0,0.0,0.0,0.0,0.0,0.0,0.0,0.0,0.0,0.0,0.0,0.0,0.0,0.0,0.0,-1.9973,-2.1564,-2.1468,-2.4232,-2.6511,-2.7121,-2.9319,-3.088,-3.1124,-3.2453,-3.3498,-3.4,-3.514,-3.5886,-3.613,-3.6469,-3.7026,-3.7704,-3.8084,-3.86,-3.9292,-3.9305,-3.9305,-3.9305,-3.9305,-3.9481,-3.9807,-3.9807,-4.0011,0.0,-4.0363,-4.0363,-4.0363,-4.0363,-4.0363,0.0,0.0,0.0,0.0,0.0,-3.6646,-3.4746,-3.339,-3.2141,-3.1015,-3.0147,-2.9876,-2.9794,-2.9455,-2.917,-2.8967,-2.8967,-2.8777,-2.8519,-2.8166,-2.7994,-2.775,-2.7064,-2.6537,-2.6064,-2.575,-2.523,-2.4717,-2.4616,-2.4389,0.0,-2.3811,-2.366,-2.3456,-2.3171,-2.3104,-2.3027,-2.2779,-2.2412,-2.2139,-2.189,-2.1603,-2.1315,-2.1066,-2.019,0.0,0.0,0.0,-1.8074,-1.8427,-1.844,0.0,0.0,0.0,0.0,0.0,0.0,0.0,0.0,-1.4544,-1.4342,0.0,0.0,0.0,0.0,0.0,0.0,0.0,0.0,0.0,0.0,0.0,0.0,0.0,0.0,0.0,0.0,-2.2491,-2.4435,-2.5113,-2.6307,-2.7335,-2.803,-3.0228,-3.1951,-3.2653,-3.4231,-3.5629,-3.6727,-3.7867,-3.8749,-3.9278,0.0,0.0,0.0,0.0,-3.9305,-3.9305,-3.9305,-3.9305,-3.9305,-3.9305,-3.9305,-3.9305,-3.9305,-3.9305,-3.9305,-3.9305,-3.9305,-3.9305,-3.9305,-3.9305,-3.9414,-4.0567,-4.0716,-4.0146,-3.9034,-3.8163,-3.7282,-3.5073,0.0,0.0,-3.107,-3.0622,-3.05,-3.0432,-3.0025,-2.9597,-2.9529,-2.9122,-2.8682,-2.8614,-2.8587,-2.8387,-2.7714,-2.7367,-2.6995,-2.6289,-2.5612,-2.507,-2.5005,-2.4557,-2.4191,-2.4096,-2.4083,-2.4083,-2.4083,-2.4083,-2.39,-2.3365,-2.3234,-2.3027,-2.2545,0.0,0.0,-2.1655,-2.1106,-2.053,-1.9943,-1.9342,-1.9002,-1.9002,-1.9068,-1.9068,-1.9002,-1.9068,-1.9068,-1.9002,-1.9133,-1.8988,-1.8548,-1.7291,-1.6699,0.0,0.0,0.0,0.0,0.0,0.0,0.0,0.0,0.0,0.0,0.0,0.0,0.0,0.0,0.0,-2.2819,-2.4137,-2.5222,-2.6291,-2.7908,-2.9374,-3.0473,-3.2698,-3.457,-3.5642,-3.6944,-3.7813,-3.8043,-3.8722,-3.9183,-3.9292,-3.9305,0.0,-3.9305,-3.9305,-3.9305,-3.9305,-3.9305,-3.9305,-3.9305,0.0,0.0,-3.9305,-3.9305,-3.9305,-3.9305,-3.9305,-3.9305,-3.9305,-3.9305,-3.9305,-3.9373,-4.0092,-4.0594,-4.0852,-4.0119,-3.9169,-3.8068,-3.7119,-3.5371,-3.3447,-3.2779,-3.1897,-3.1042,-3.0554,-3.0323,0.0,-2.9651,-2.9434,-2.923,-2.8722,-2.8476,-2.8274,-2.803,-2.7468,-2.6892,-2.6658,-2.6091,-2.5524,-2.5083,-2.4913,-2.4661,-2.4191,-2.4083,-2.4083,-2.4083,-2.4083,-2.4073,-2.3926,-2.3483,-2.3171,-2.3067,-2.2662,-2.2348,-2.2231,-2.1668,-2.1106,-2.0556,-1.9956,-1.963,-1.963,-2.0098,-2.0124,-1.9643,-2.0098,-2.0111,-1.963,-2.0557,-2.0951,-2.0823,-1.9286,-1.829,0.0,0.0,0.0,0.0,0.0,0.0,0.0,0.0,0.0,0.0,0.0,-1.8311,0.0,0.0,-2.2754,-2.4694,-2.5765,-2.6565,-2.7176,-2.8288,-2.9407,-3.0283,-3.2494,-3.4529,-3.6022,-3.6971,-3.7881,-3.879,-3.9129,-3.9305,-3.9305,-3.9305,-3.9305,-3.9305,-3.9305,-3.9305,-3.9305,-3.9305,-3.9305,-3.9305,-3.9305,-3.9305,-3.9305,-3.9305,-3.9305,-3.9305,-3.9305,-3.9305,-3.9305,-3.9305,-3.9305,-3.9332,-3.9631,-4.0119,-4.0608,-4.0296,-3.9807,-3.9169,-3.8274,-3.655,-3.4653,-3.3797,-3.2698,-3.168,-3.1382,-3.1083,-3.0785,-3.0473,-2.9977,-2.9434,-2.9149,-2.8739,-2.8444,-2.8373,-2.7969,-2.7581,-2.7432,-2.6854,-2.6259,-2.5908,-2.562,-2.521,-2.4648,-2.4543,-2.4452,-2.4164,-2.4083,-2.4083,-2.4083,-2.3822,-2.3639,-2.3639,-2.3391,-2.3132,-2.2818,-2.2269,-2.1852,-2.1577,-2.1263,-2.1106,-2.1106,-2.1394,-2.1407,-2.1119,-2.1394,-2.1394,-2.1106,-2.1681,-2.1956,-2.193,-2.1406,-2.0668,0.0,0.0,0.0,0.0,0.0,0.0,0.0,0.0,-1.7367,-1.8271,-2.0268,-2.2149,-2.3065,-2.4039,-2.5024,-2.6079,-2.7067,-2.7746,-2.7868,-2.8288,-2.8763,-2.9285,-3.1363,-3.3455,-3.5154,-3.5913,-3.7012,-3.8817,-3.8952,-3.9061,-3.9292,-3.9305,-3.9305,-3.9305,-3.9305,-3.9305,-3.9305,-3.9305,-3.9305,-3.9305,-3.9305,-3.9305,-3.9305,-3.9305,-3.9305,-3.9305,-3.9305,-3.9305,-3.9305,-3.9305,-3.9305,-3.9305,-3.9305,-3.959,-4.0024,-4.0024,-4.0024,-3.9875,-3.8925,-3.7324,-3.556,-3.4572,-3.3335,-3.2218,-3.2218,-3.1843,-3.1436,-3.1327,-3.0581,-2.9814,-2.957,-2.9149,-2.8736,-2.8582,-2.843,-2.8268,-2.8145,-2.7563,-2.7031,-2.6784,-2.634,-2.5811,-2.5267,-2.5162,-2.4909,-2.4217,-2.4083,-2.4083,-2.4083,-2.4083,-2.4083,-2.4083,-2.4083,-2.3887,-2.3404,-2.2858,-2.2571,-2.257,-2.2465,-2.2387,-2.2388,-2.2387,-2.2413,-2.2413,-2.2519,-2.2558,-2.2558,-2.2676,-2.2728,-2.2741,-2.3171,-2.2758,-1.2009,-1.2905,-1.44,-1.6558,-1.7082,-1.773,0.0,0.0,-2.1979,-2.2451,-2.3607,-2.4762,-2.54,-2.5631,-2.612,-2.7311,-2.7623,-2.7895,-2.841,-2.8546,-2.8627,-2.8682,-3.0351,-3.2196,-3.3935,-3.4639,-3.5737,-3.7553,-3.7689,-3.8149,-3.9237,-3.9305,-3.9305,-3.9305,-3.9305,-3.9305,-3.9305,-3.9305,-3.9305,-3.9305,-3.9305,-3.9305,-3.9305,-3.9305,-3.9305,-3.9305,-3.9305,-3.9305,-3.9305,-3.9305,-3.9305,-3.9305,-3.9305,-3.9346,-3.94,-3.94,-3.94,-3.9386,-3.9251,-3.7677,-3.5696,-3.556,-3.4,-3.2218,-3.2218,-3.2164,-3.2001,-3.1436,-3.1192,-3.0839,-2.9787,-2.9461,-2.9238,-2.8487,-2.832,-2.8268,-2.8145,-2.7881,-2.7538,-2.6991,-2.6718,-2.6399,-2.5824,-2.5702,-2.5323,-2.4253,-2.4083,-2.4083,-2.4083,-2.4083,-2.4083,-2.4083,-2.4083,-2.4057,-2.4021,-2.3459,-2.3119,-2.3104,-2.2648,-2.2388,-2.2388,-2.2387,-2.2413,-2.2413,-2.2884,-2.3119,-2.3119,-2.3668,-2.3916,-2.3916,-2.3981,-2.3335,-1.6379,-1.7185,0.0,0.0,-2.0426,-2.1375,-2.2542,-2.3513,-2.4285,-2.4694,-2.5466,-2.624,-2.6837,-2.6945,-2.723,0.0,-2.822,-2.8302,-2.8546,-2.8587,-2.8587,-2.8587,-2.9265,-3.0568,-3.2711,-3.3457,-3.4543,-3.6334,-3.7092,-3.7702,-3.8247,-3.8925,-3.9305,-3.9305,-3.9305,-3.9305,-3.9305,-3.9305,-3.9305,-3.9305,-3.9305,-3.9305,-3.9305,-3.9305,-3.9305,-3.9305,-3.9305,-3.9305,-3.9305,-3.9305,-3.9305,-3.9305,-3.9305,-3.9305,-3.9305,-3.9305,-3.9305,-3.9305,-3.9305,-3.8193,-3.6618,-3.594,-3.457,-3.3078,-3.2386,-3.2218,-3.2164,-3.187,-3.1558,-3.1178,-3.0663,-3.0283,-2.9862,-2.9172,-2.899,-2.883,-2.8225,-2.8033,-2.7835,-2.7341,-2.7203,-2.6987,-2.6412,-2.6321,-2.6033,-2.5206,-2.4818,-2.4609,-2.4609,-2.4321,-2.4083,-2.4083,-2.4083,-2.4083,-2.4083,-2.3861,-2.3704,-2.3704,-2.3511,-2.338,-2.338,-2.3393,-2.3378,-2.3378,-2.3629,-2.3704,-2.3746,-2.4334,-2.4609,-2.4622,-2.4949,-2.478,-1.9307,0.0,0.0,-2.1616,-2.2909,-2.4023,-2.4134,-2.5093,-2.6048,-2.6337,-2.6755,-2.7172,-2.7623,-2.7569,0.0,-2.8248,-2.8478,-2.8587,-2.8587,-2.8736,-2.8777,-2.8614,-2.8587,-2.9401,-3.149,-3.211,-3.3132,-3.5046,-3.6306,-3.7133,-3.7472,-3.8654,-3.9305,-3.9305,-3.9305,-3.9305,-3.9305,-3.9305,-3.9305,-3.9305,-3.9305,-3.9305,-3.9305,-3.9305,-3.9305,-3.9305,-3.9305,-3.9305,-3.9305,-3.9305,-3.9305,-3.9305,-3.9305,-3.9305,-3.9305,-3.9305,-3.9305,-3.9305,-3.9305,-3.8532,-3.7296,-3.6103,-3.487,-3.3691,-3.2535,-3.2218,-3.2218,-3.2218,-3.187,-3.1504,-3.1327,-3.0975,-3.05,-2.9876,-2.9571,-2.9227,-2.8545,-2.8186,-2.7934,-2.7623,-2.7523,-2.7372,-2.6987,-2.6909,-2.6765,-2.6328,-2.5798,-2.5411,-2.5254,-2.47,-2.4282,-2.4109,-2.4083,-2.4083,-2.4083,-2.4083,-2.4083,-2.4083,-2.4083,-2.4083,-2.4083,-2.4083,-2.4191,-2.4347,-2.4347,-2.4426,-2.4566,-2.5001,-2.521,-2.524,-2.5628,-2.5871,0.0,0.0,-2.1792,-2.3103,-2.4352,-2.5354,-2.5741,-2.6755,-2.7623,-2.7651,-2.7664,-2.7691,-2.7705,-2.7199,-2.7009,-2.7637,-2.822,-2.8587,-2.8587,-2.9122,-2.9271,-2.8655,-2.8587,-2.9089,0.0,-3.0473,-3.1463,-3.3786,-3.5059,-3.6252,-3.7431,-3.8654,-3.9305,-3.9305,-3.9305,-3.9305,-3.9305,-3.9305,-3.9305,-3.9305,-3.9305,-3.9305,-3.9305,-3.9305,-3.9305,-3.9305,-3.9305,-3.9305,-3.9305,-3.9305,-3.9305,-3.9305,-3.9305,-3.9305,-3.9305,-3.9305,-3.9305,-3.9305,-3.9305,-3.8532,-3.7296,-3.6103,-3.487,-3.3691,-3.2535,-3.2218,-3.2218,-3.2218,-3.2205,-3.2055,-3.1436,-3.1287,-3.111,-3.0527,-2.9781,-2.9215,-2.9154,-2.8452,-2.7822,-2.7776,-2.7623,-2.749,-2.7477,-2.7477,-2.7464,-2.7451,-2.6987,-2.6457,-2.5863,-2.5301,-2.4756,-2.4178,-2.4083,-2.4083,-2.4083,-2.4083,-2.4083,-2.4083,-2.4083,-2.4083,-2.4083,-2.4083,-2.4387,-2.4966,-2.4966,-2.524,-2.5741,-2.5754,-2.5767,-2.5767,-2.578,-2.6112,0.0,0.0,-2.3683,-2.4791,-2.6004,-2.6941,-2.7054,-2.7718,-2.818,-2.7786,-2.7393,-2.6969,-2.6579,-2.6335,-2.6402,-2.6996,-2.7949,-2.8736,-2.9149,-2.9713,-2.9862,-2.9285,-2.955,0.0,0.0,0.0,0.0,-3.2616,-3.4231,-3.5439,-3.6239,-3.822,-3.9305,-3.9305,-3.9305,-3.9305,-3.9305,-3.9305,-3.9305,-3.9305,-3.9305,-3.9305,-3.9305,-3.9305,-3.9305,-3.9305,-3.9305,-3.9305,-3.9305,-3.9305,-3.9305,-3.9305,-3.9305,-3.9305,-3.9305,-3.9305,-3.9305,-3.9305,-3.9305,-3.9034,-3.8369,-3.6361,-3.5412,-3.4707,-3.2779,-3.2218,-3.2218,-3.2218,-3.2218,-3.2164,-3.1938,-3.1884,-3.1699,-3.0961,-3.0594,-3.0127,-2.9097,-2.863,-2.823,-2.7702,-2.7556,-2.749,-2.749,-2.749,-2.749,-2.749,-2.704,-2.6465,-2.5871,-2.5654,-2.5458,-2.5232,-2.5219,-2.5219,-2.5219,-2.5219,-2.5219,-2.5219,-2.5219,-2.5219,-2.5219,-2.5219,-2.531,-2.5537,-2.5537,-2.5628,-2.5793,-2.6203,-2.6386,-2.6399,-2.6778,-2.7033,0.0,-2.4159,-2.5285,-2.6299,-2.7284,-2.8017,-2.8017,-2.8153,-2.8044,-2.723,-2.6416,-2.5573,-2.4761,-2.4435,-2.4706,-2.5939,-2.7176,-2.8315,-2.9366,-3.0201,-3.05,-2.9876,-3.0161,0.0,0.0,0.0,0.0,-3.2096,-3.4027,-3.5276,-3.5696,-3.7989,-3.9305,-3.9305,-3.9305,-3.9305,-3.9305,-3.9305,-3.9305,-3.9305,-3.9305,-3.9305,-3.9305,-3.9305,-3.9305,-3.9305,-3.9305,-3.9305,-3.9305,-3.9305,-3.9305,-3.9305,-3.9305,-3.9305,-3.9305,-3.9305,-3.9305,-3.9305,-3.9305,-3.9305,-3.8979,-3.7012,-3.6076,-3.5357,-3.3403,-3.2508,-3.2218,-3.2218,-3.2218,-3.2218,-3.2218,-3.2146,-3.1978,-3.1456,-3.1056,-3.0503,-2.95,-2.9113,-2.8681,-2.7954,-2.7837,-2.7771,-2.7529,-2.749,-2.749,-2.749,-2.721,-2.6778,-2.6203,-2.6125,-2.6046,-2.5806,-2.5793,-2.5793,-2.5793,-2.5793,-2.5793,-2.5793,-2.5793,-2.5793,-2.5793,-2.5793,-2.5884,-2.6125,-2.6125,-2.6229,-2.6406,-2.6804,-2.6987,-2.6987,-2.732,-2.749,-2.4076,-2.5354,-2.6503,-2.7492,-2.818,-2.8587,-2.8546,-2.8058,-2.7271,-2.605,-2.4829,-2.3581,0.0,0.0,-2.2198,-2.4544,-2.6007,-2.7515,-2.9312,-3.0602,-3.111,0.0,0.0,0.0,0.0,0.0,0.0,-3.2182,0.0,-3.5683,-3.571,-3.7989,-3.9305,-3.9305,-3.9305,-3.9305,-3.9305,-3.9305,-3.9305,-3.9305,-3.9305,-3.9305,-3.9305,-3.9305,-3.9305,-3.9305,-3.9305,-3.9305,-3.9305,-3.9305,-3.9305,-3.9305,-3.9305,-3.9305,-3.9305,-3.9305,-3.9305,-3.9305,-3.9305,-3.9305,-3.9102,-3.7878,-3.6672,-3.5493,-3.4273,-3.3118,-3.2218,-3.2218,-3.2218,-3.2218,-3.2182,-3.2036,-3.189,-3.189,-3.1156,-3.0441,-3.0378,-2.9849,-2.9144,-2.8577,-2.8433,-2.8203,-2.7633,-2.7516,-2.749,-2.749,-2.749,-2.734,-2.6824,-2.6745,-2.6504,-2.5936,-2.5884,-2.5884,-2.5884,-2.5884,-2.5884,-2.5884,-2.5884,-2.5884,-2.5884,-2.5884,-2.6164,-2.6745,-2.6745,-2.6987,-2.749,-2.749,-2.749,-2.749,-2.749,-2.7516,-2.5214,-2.641,-2.7482,-2.818,-2.8478,-2.8478,-2.803,-2.7108,-2.6022,-2.4815,-2.3228,-2.1724,0.0,0.0,0.0,-2.3486,-2.6169,0.0,-2.9984,-3.1205,0.0,0.0,0.0,-3.1612,-3.1327,-3.1558,0.0,0.0,-3.4423,-3.5209,-3.5696,-3.7989,-3.9305,-3.9305,-3.9305,-3.9305,-3.9305,-3.9305,-3.9305,-3.9305,-3.9305,-3.9305,-3.9305,-3.9305,-3.9305,-3.9305,-3.9305,-3.9305,-3.9305,-3.9305,-3.9305,-3.9305,-3.9305,-3.9305,-3.9305,-3.9305,-3.9305,-3.9305,-3.9305,-3.9305,-3.9102,-3.7878,-3.6672,-3.5493,-3.4273,-3.3118,-3.2218,-3.2218,-3.2218,-3.2182,-3.2036,-3.1927,-3.1817,-3.1532,-3.1278,-3.0906,-3.0302,-3.0019,-2.9745,-2.917,-2.8721,-2.8368,-2.819,-2.7811,-2.749,-2.749,-2.749,-2.7438,-2.7294,-2.7314,-2.7229,-2.7072,-2.7059,-2.7059,-2.7059,-2.7059,-2.7059,-2.7059,-2.7059,-2.7059,-2.7059,-2.7059,-2.7137,-2.7301,-2.7314,-2.7346,-2.749,-2.749,-2.749,-2.749,-2.749,-2.7758,-2.6324,-2.7379,-2.818,-2.8519,-2.8397,-2.7976,-2.7108,-2.5982,-2.4557,-2.259,-2.1152,0.0,0.0,0.0,0.0,0.0,0.0,0.0,-2.9713,-3.1029,-3.1762,0.0,-3.2001,0.0,-3.1721,-3.2453,-3.3189,0.0,-3.4694,-3.5561,-3.6428,-3.8288,-3.9305,-3.9305,-3.9305,-3.9305,-3.9305,-3.9563,-3.9563,-3.9305,-3.9563,-3.9563,-3.9305,-3.9305,-3.9305,-3.9305,0.0,-3.9305,-3.9305,-3.9305,-3.9305,-3.9305,-3.9305,-3.9305,-3.9305,-3.9305,-3.9305,-3.9305,-3.9305,-3.9305,-3.9197,-3.8532,-3.7458,-3.6239,-3.5046,-3.3853,-3.2847,-3.2331,-3.2218,-3.2182,-3.2073,-3.189,-3.1706,-3.1485,-3.1323,-3.1044,-3.0568,-3.0503,-3.0346,-2.9758,-2.9183,-2.8721,-2.8459,-2.8111,-2.7824,-2.7529,-2.749,-2.749,-2.749,-2.749,-2.749,-2.749,-2.749,-2.749,-2.749,-2.749,-2.749,-2.749,-2.749,-2.749,-2.749,-2.749,-2.749,-2.749,-2.749,-2.749,-2.749,-2.7785,-2.7902,-2.7902,-2.8177,-2.8464,-2.7352,-2.8193,-2.8587,-2.8587,-2.8085,-2.7271,-2.605,-2.4666,-2.2849,-2.0134,0.0,0.0,-1.6403,0.0,-1.875,-2.1019,0.0,-2.605,-2.9094,-3.0459,-3.1422,-3.2137,-3.2218,-3.2218,-3.2218,-3.3216,-3.3975,-3.4138,-3.5249,-3.6415,-3.7431,-3.8654,-3.9305,-3.9305,-3.9305,-3.9305,-3.9305,-3.9807,-3.9807,-3.9305,-3.9821,-3.9807,-3.9305,-3.9305,-3.9305,-3.9305,0.0,0.0,-3.9305,-3.9305,-3.9305,-3.9305,-3.9305,-3.9305,-3.9305,-3.9305,-3.9305,-3.9305,-3.9305,-3.9305,-3.9305,-3.9305,-3.8491,-3.7255,-3.609,-3.4856,-3.3664,-3.2508,-3.2218,-3.2182,-3.2146,-3.1853,-3.1609,-3.1535,-3.1261,-3.0986,-3.0986,-3.0986,-3.0843,-3.0309,-2.9784,-2.9222,-2.8712,-2.859,-2.8294,-2.7699,-2.7607,-2.7581,-2.7503,-2.749,-2.749,-2.749,-2.749,-2.749,-2.749,-2.749,-2.749,-2.749,-2.749,-2.749,-2.749,-2.749,-2.7529,-2.7607,-2.7607,-2.7646,-2.7725,-2.8255,-2.8538,-2.8551,-2.9074,-2.9327,-2.8085,-2.8519,-2.8587,-2.8587,-2.7773,-2.663,-2.5439,-2.3052,0.0,0.0,0.0,-1.6471,-1.6154,-1.7495,0.0,-2.1087,0.0,0.0,0.0,0.0,-3.0975,0.0,0.0,0.0,0.0,0.0,0.0,0.0,0.0,0.0,-3.7485,-3.8654,-3.9305,-3.9305,-3.9305,-3.9305,-3.9305,-3.94,-3.94,-3.9305,-3.9414,-3.94,-3.9305,-3.9305,-3.9305,-3.9305,-3.9305,0.0,-3.9305,-3.9305,-3.9305,-3.9305,-3.9305,-3.9305,-3.9305,-3.9305,-3.9305,-3.9305,-3.9305,-3.9305,-3.9305,-3.9305,-3.8491,-3.7255,-3.609,-3.4856,-3.3664,-3.2508,-3.2218,-3.2109,-3.178,-3.1646,-3.1535,-3.1174,-3.1061,-3.0986,-3.0986,-3.0986,-3.096,-3.0856,-3.0385,-2.9918,-2.9813,-2.9431,-2.8957,-2.832,-2.8229,-2.8059,-2.7555,-2.749,-2.749,-2.749,-2.749,-2.749,-2.749,-2.749,-2.749,-2.749,-2.749,-2.749,-2.749,-2.749,-2.7745,-2.8216,-2.8229,-2.8477,-2.8974,-2.9078,-2.9118,-2.9166,-2.9235,-2.9536,-2.7895,-2.8356,-2.8587,-2.8587,-2.7461,-2.5941,-2.4407,0.0,0.0,0.0,0.0,-1.5535,-1.5223,0.0,0.0,0.0,0.0,0.0,0.0,0.0,0.0,0.0,0.0,0.0,0.0,0.0,0.0,0.0,0.0,0.0,-3.845,-3.8993,-3.9305,-3.9305,-3.9305,-3.9305,-3.9305,-3.9604,-3.9604,-3.9305,-3.9617,-3.959,-3.9305,-3.9305,-3.9305,-3.9305,-3.9305,0.0,-3.9305,-3.9305,-3.9305,-3.9305,-3.9305,-3.9305,-3.9305,-3.9305,-3.9305,-3.9305,-3.9305,-3.9305,-3.9305,-3.9305,-3.8925,-3.8233,-3.6984,-3.5778,-3.4585,-3.343,-3.2657,-3.2146,-3.1963,-3.1817,-3.1669,-3.1373,-3.1136,-3.0986,-3.0986,-3.0986,-3.0986,-3.0986,-3.0764,-3.049,-3.014,-2.9902,-2.9523,-2.8935,-2.8878,-2.8752,-2.8477,-2.8438,-2.8203,-2.7555,-2.749,-2.749,-2.749,-2.749,-2.749,-2.749,-2.749,-2.749,-2.749,-2.7811,-2.8098,-2.8407,-2.8721,-2.9022,-2.931,-2.9575,-2.9732,-2.9732,-3.0032,-3.0307,-2.7515,-2.8139,-2.856,-2.8438,-2.704,-2.5236,-2.3418,-2.1087,0.0,0.0,0.0,-1.49,-1.4574,0.0,0.0,0.0,0.0,0.0,0.0,0.0,0.0,0.0,0.0,0.0,0.0,0.0,0.0,0.0,0.0,0.0,-3.9305,-3.9305,-3.9305,-3.9305,-3.9305,-3.9305,-3.9305,-3.9766,-3.9766,-3.9305,-3.978,-3.9753,-3.9305,-3.9305,-3.9305,-3.9305,-3.9305,0.0,0.0,-3.9305,-3.9305,-3.9305,-3.9305,-3.9305,-3.9305,-3.9305,-3.9305,-3.9305,-3.9305,-3.9305,-3.9305,-3.9305,-3.9305,-3.9074,-3.7851,-3.6645,-3.5425,-3.4246,-3.3091,-3.2182,-3.2146,-3.2,-3.178,-3.1522,-3.1224,-3.0986,-3.0986,-3.0986,-3.0986,-3.0986,-3.0986,-3.0843,-3.0348,-3.0283,-3.0124,-2.9549,-2.9457,-2.9418,-2.9287,-2.931,-2.8935,-2.8007,-2.7868,-2.7868,-2.7868,-2.7868,-2.7868,-2.7868,-2.7868,-2.7868,-2.7868,-2.8333,-2.8669,-2.8752,-2.9222,-2.9523,-2.9689,-3.0098,-3.0283,-3.0283,-3.0777,-3.0986,-2.7393,-2.8139,-2.8465,-2.7922,-2.643,-2.4611,-2.2807,0.0,0.0,0.0,-1.5182,-1.4517,-1.5036,0.0,0.0,0.0,0.0,0.0,0.0,0.0,0.0,0.0,0.0,0.0,0.0,0.0,0.0,0.0,0.0,0.0,0.0,-3.9305,-3.9305,-3.9305,-3.9305,-3.9305,-3.9305,-3.9359,-3.9346,-3.9305,-3.9359,-3.9346,-3.9305,-3.9305,-3.9305,-3.9305,-3.9305,0.0,0.0,-3.9305,-3.9305,-3.9305,-3.9305,-3.9305,-3.9305,-3.9305,-3.9305,-3.9305,-3.9305,-3.9305,-3.9305,-3.9305,-3.9305,-3.9074,-3.7851,-3.6645,-3.5425,-3.4246,-3.3091,-3.2146,-3.1963,-3.178,-3.1522,-3.1149,-3.1024,-3.0986,-3.0986,-3.0986,-3.0986,-3.0986,-3.0986,-3.096,-3.0921,-3.0908,-3.0712,-3.0113,-3.0022,-2.9826,-2.934,-2.931,-2.9284,-2.9131,-2.9118,-2.9118,-2.9118,-2.9118,-2.9118,-2.9118,-2.9118,-2.9118,-2.9118,-2.9205,-2.9444,-2.9918,-2.9996,-3.032,-3.083,-3.0882,-3.0908,-3.0908,-3.096,-3.0986,-2.586,-2.7054,-2.7908,-2.7325,-2.579,-2.4096,-2.2644,0.0,0.0,-1.6263,-1.5141,-1.4368,-1.4615,-1.4955,-1.5634,0.0,0.0,0.0,0.0,0.0,0.0,0.0,0.0,0.0,0.0,0.0,0.0,0.0,0.0,0.0,0.0,-3.9305,-3.9305,-3.9305,-3.9305,-3.9305,-3.9305,-3.9305,-3.9305,-3.9305,-3.9305,-3.9305,-3.9305,-3.9305,-3.9305,-3.9305,-3.9305,0.0,0.0,-3.9305,-3.9305,-3.9305,-3.9305,-3.9305,-3.9305,-3.9305,-3.9305,-3.9305,-3.9305,-3.9305,-3.9305,-3.9305,-3.9305,-3.921,-3.8735,-3.7758,-3.651,-3.5303,-3.4124,-3.304,-3.2299,-3.1853,-3.1522,-3.1248,-3.1099,-3.0986,-3.0986,-3.0986,-3.0986,-3.0986,-3.0986,-3.0986,-3.0986,-3.0986,-3.0908,-3.0686,-3.0647,-3.0568,-3.0333,-3.0307,-3.0307,-3.0307,-2.9729,-2.931,-2.931,-2.931,-2.931,-2.931,-2.931,-2.931,-2.931,-2.9614,-2.9865,-3.0087,-3.0477,-3.0764,-3.0986,-3.0986,-3.0986,-3.0986,-3.0986,-3.0986,-2.4245,-2.5792,-2.6986,-2.6196,-2.4909,-2.3432,0.0,0.0,-1.6783,-1.5996,-1.5019,-1.43,-1.43,-1.4656,-1.5199,0.0,0.0,0.0,0.0,0.0,0.0,0.0,0.0,0.0,0.0,0.0,0.0,0.0,0.0,0.0,0.0,-3.9305,-3.9305,-3.9305,-3.9305,-3.9305,-3.9305,-3.9305,-3.9305,-3.9305,-3.9305,-3.9305,-3.9305,-3.9305,-3.9305,-3.9305,0.0,0.0,0.0,-3.9305,-3.9305,-3.9305,-3.9305,-3.9305,-3.9305,-3.9305,-3.9305,-3.9305,-3.9305,-3.9305,-3.9305,-3.9305,-3.9305,-3.9305,-3.9305,-3.8477,-3.7241,-3.6062,-3.4572,-3.3189,-3.2253,-3.1817,-3.1522,-3.1272,-3.1099,-3.0986,-3.0986,-3.0986,-3.0986,-3.0986,-3.0986,-3.0986,-3.0986,-3.0986,-3.0986,-3.0986,-3.0986,-3.0986,-3.0986,-3.0986,-3.0986,-3.0986,-3.0268,-2.9784,-2.9784,-2.9784,-2.9784,-2.9784,-2.9784,-2.9784,-2.9784,-3.0176,-3.0348,-3.0348,-3.0777,-3.0986,-3.0986,-3.0986,-3.0986,-3.0986,-3.0986,-3.0986,-2.2903,-2.4529,-2.5629,-2.4421,-2.3662,-2.2605,0.0,-1.8316,-1.6647,-1.5457,-1.4724,-1.43,-1.43,-1.43,-1.4694,-1.5897,-1.662,0.0,0.0,0.0,0.0,0.0,0.0,0.0,0.0,0.0,0.0,0.0,0.0,0.0,0.0,-3.9305,-3.9305,-3.9305,-3.9305,-3.9305,-3.9305,-3.9305,-3.9305,-3.9305,-3.9305,-3.9305,-3.9305,-3.9305,-3.9305,0.0,0.0,0.0,0.0,-3.9305,-3.9305,-3.9305,-3.9305,-3.9305,-3.9305,-3.9305,-3.9305,-3.9305,-3.9305,-3.9305,-3.9305,-3.9305,-3.9305,-3.9305,-3.9305,-3.8477,-3.7241,-3.6062,-3.4014,-3.2123,-3.172,-3.1609,-3.1485,-3.1099,-3.0986,-3.0986,-3.0986,-3.0986,-3.0986,-3.0986,-3.0986,-3.0986,-3.0986,-3.0986,-3.0986,-3.0986,-3.0986,-3.0986,-3.0986,-3.0986,-3.0986,-3.0986,-3.0973,-3.096,-3.096,-3.096,-3.096,-3.096,-3.096,-3.096,-3.096,-3.0973,-3.0973,-3.0973,-3.0986,-3.0986,-3.0986,-3.0986,-3.0986,-3.0986,-3.0986,-3.0986,-2.0103,-2.1477,-2.2563,-2.1396,-2.0962,-2.0406,-1.8818,-1.738,-1.6159,-1.5362,-1.4724,-1.43,-1.43,-1.43,-1.4965,-1.6987,-1.7495,0.0,0.0,0.0,0.0,0.0,0.0,0.0,0.0,0.0,0.0,0.0,0.0,0.0,0.0,-3.9305,-3.9305,-3.9305,-3.9305,-3.9305,-3.9305,-3.9305,-3.9305,-3.9305,-3.9305,-3.9305,-3.9305,-3.9305,0.0,0.0,0.0,0.0,0.0,-3.9305,-3.9305,-3.9305,-3.9305,-3.9305,-3.9305,-3.9305,-3.9305,-3.9305,-3.9305,-3.9305,-3.9305,-3.9305,-3.9305,-3.9305,-3.9305,-3.9034,-3.8315,-3.628,-3.4,-3.2109,-3.172,-3.1609,-3.1485,-3.1099,-3.0986,-3.0986,-3.0986,-3.0986,-3.0986,-3.0986,-3.0986,-3.0986,-3.0986,-3.0986,-3.0986,-3.0986,-3.0986,-3.0986,-3.0986,-3.0986,-3.0986,-3.0986,-3.0986,-3.0986,-3.0986,-3.0986,-3.0986,-3.0986,-3.0986,-3.0986,-3.0986,-3.0986,-3.0986,-3.0986,-3.0986,-3.0986,-3.0986,-3.0986,-3.0986,-3.0986,-3.0986,-3.0986,0.0,-1.9062,-2.0188,-1.9252,-1.9008,-1.8696,-1.7489,-1.6457,-1.5589,-1.4982,-1.4574,-1.43,-1.43,-1.43,-1.4938,-1.6892,-1.7217,0.0,0.0,0.0,0.0,0.0,0.0,0.0,0.0,0.0,0.0,0.0,0.0,0.0,0.0,0.0,-3.9305,-3.9305,-3.9305,-3.9305,-3.9305,-3.9305,-3.9305,-3.9305,-3.9305,-3.9305,-3.9305,-3.9305,0.0,0.0,0.0,0.0,0.0,-3.9305,-3.9305,-3.9305,-3.9305,-3.9305,-3.9305,-3.9305,-3.9305,-3.9305,-3.9305,-3.9305,-3.9305,-3.9305,-3.9305,-3.9305,-3.9305,-3.8993,-3.822,-3.6266,-3.4326,-3.2627,-3.1827,-3.1609,-3.1485,-3.1099,-3.0986,-3.0986,-3.0986,-3.0986,-3.0986,-3.0986,-3.0986,-3.0986,-3.0986,-3.0986,-3.0986,-3.0986,-3.0986,-3.0986,-3.0986,-3.0986,-3.0986,-3.0986,-3.0986,-3.0986,-3.0986,-3.0986,-3.0986,-3.0986,-3.0986,-3.0986,-3.0986,-3.0986,-3.0986,-3.0986,-3.0986,-3.0986,-3.0986,-3.0986,-3.0986,-3.0986,-3.0986,-3.0986,0.0,-1.7068,-1.8255,-1.7671,-1.7576,-1.7345,-1.6168,-1.5535,0.0,-1.4409,-1.43,-1.4327,-1.4409,-1.4395,-1.4802,-1.6145,-1.6385,0.0,0.0,0.0,0.0,0.0,0.0,0.0,0.0,0.0,0.0,0.0,0.0,0.0,0.0,0.0,-3.9305,-3.9305,-3.9305,-3.9305,-3.9305,-3.9305,-3.9305,-3.9305,-3.9305,-3.9305,-3.9305,-3.9305,0.0,0.0,0.0,0.0,0.0,-3.9305,-3.9305,-3.9305,-3.9305,-3.9305,-3.9305,-3.9305,-3.9305,-3.9305,-3.9305,-3.9305,-3.9305,-3.9305,-3.9305,-3.9305,-3.9305,-3.8477,-3.7241,-3.6062,-3.4816,-3.3522,-3.1977,-3.1609,-3.1485,-3.1099,-3.0986,-3.0986,-3.0986,-3.0986,-3.0986,-3.0986,-3.0986,-3.0986,-3.0986,-3.0986,-3.0986,-3.0986,-3.0986,-3.0986,-3.0986,-3.0986,-3.0986,-3.0986,-3.0986,-3.0986,-3.0986,-3.0986,-3.0986,-3.0986,-3.0986,-3.0986,-3.0986,-3.0986,-3.0986,-3.0986,-3.0986,-3.0986,-3.0986,-3.0986,-3.0986,-3.0986,-3.0986,-3.0986,-1.2536,0.0,-1.4531,-1.3918,-1.4463,-1.4938,0.0,-1.4639,-1.5036,-1.4409,0.0,0.0,-1.5508,-1.5291,-1.5851,0.0,0.0,0.0,0.0,0.0,0.0,0.0,0.0,0.0,0.0,0.0,0.0,0.0,0.0,0.0,0.0,0.0,-3.9305,-3.9305,-3.9305,-3.9305,-3.9305,-3.9305,-3.9305,-3.9305,-3.9305,-3.9305,-3.9305,-3.9305,0.0,0.0,0.0,0.0,-3.9305,-3.9305,-3.9305,-3.9305,-3.9305,-3.9305,-3.9305,-3.9305,-3.9305,-3.9305,-3.9305,-3.9305,-3.9305,-3.9305,-3.9305,-3.9305,-3.9305,-3.8477,-3.7241,-3.6062,-3.4816,-3.3522,-3.1977,-3.1609,-3.1485,-3.1099,-3.0986,-3.0986,-3.0986,-3.0986,-3.0986,-3.0986,-3.0986,-3.0986,-3.0986,-3.0986,-3.0986,-3.0986,-3.0986,-3.0986,-3.0986,-3.0986,-3.0986,-3.0986,-3.0986,-3.0986,-3.0986,-3.0986,-3.0986,-3.0986,-3.0986,-3.0986,-3.0986,-3.0986,-3.0986,-3.0986,-3.0986,-3.0986,-3.0986,-3.0986,-3.0986,-3.0986,-3.0986,-3.0986,-1.1193,-1.2469,-1.373,-1.3403,-1.4029,-1.4642,-1.43,0.0,0.0,0.0,0.0,0.0,0.0,0.0,0.0,0.0,0.0,0.0,0.0,0.0,0.0,0.0,0.0,0.0,0.0,0.0,0.0,0.0,0.0,0.0,0.0,0.0,-3.9706,-3.9305,-3.9706,-3.9706,-3.9305,-3.9305,-3.9305,-3.9305,-3.9305,-3.9305,-3.9305,-3.9305,-3.9305,0.0,0.0,0.0,-3.9305,-3.9305,-3.9305,-3.9305,-3.9305,-3.9305,-3.9305,-3.9305,-3.9305,-3.9305,-3.9305,-3.9305,-3.9305,-3.9305,-3.9305,-3.9305,-3.9305,-3.8844,-3.7975,-3.6212,-3.5209,-3.425,-3.2161,-3.1609,-3.1485,-3.1099,-3.0986,-3.0986,-3.0986,-3.0986,-3.0986,-3.0986,-3.0986,-3.0986,-3.0986,-3.0986,-3.0986,-3.0986,-3.0986,-3.0986,-3.0986,-3.0986,-3.0986,-3.0986,-3.0986,-3.0986,-3.0986,-3.0986,-3.0986,-3.0986,-3.0986,-3.0986,-3.0986,-3.0986,-3.0986,-3.0986,-3.0986,-3.0986,-3.0986,-3.0986,-3.0986,-3.0986,-3.0986,-3.0986,-1.0923,-1.2604,-1.4259,-1.407,-1.4629,-1.5199,-1.5199,0.0,0.0,0.0,0.0,0.0,0.0,0.0,0.0,0.0,0.0,0.0,0.0,0.0,0.0,0.0,0.0,0.0,0.0,0.0,0.0,0.0,0.0,0.0,0.0,0.0,0.0,-3.9719,-4.0403,-4.0403,-3.9499,-3.938,-3.9305,-3.9305,-3.9305,-3.9305,-3.9305,-3.9305,-3.9305,0.0,0.0,0.0,-3.9305,-3.9305,-3.9305,-3.9305,-3.9305,-3.9305,-3.9305,-3.9305,-3.9305,-3.9305,-3.9305,-3.9305,-3.9305,-3.9305,-3.9305,-3.9305,-3.9305,-3.9305,-3.8844,-3.6619,-3.5859,-3.5048,-3.2321,-3.1609,-3.1485,-3.1099,-3.0986,-3.0986,-3.0986,-3.0986,-3.0986,-3.0986,-3.0986,-3.0986,-3.0986,-3.0986,-3.0986,-3.0986,-3.0986,-3.0986,-3.0986,-3.0986,-3.0986,-3.0986,-3.0986,-3.0986,-3.0986,-3.0986,-3.0986,-3.0986,-3.0986,-3.0986,-3.0986,-3.0986,-3.0986,-3.0986,-3.0986,-3.0986,-3.0986,-3.0986,-3.0986,-3.0986,-3.0986,-3.0986,-1.1939,-1.324,-1.4056,-1.3037,-1.4002,-1.5199,-1.5199,0.0,0.0,0.0,0.0,0.0,0.0,0.0,0.0,0.0,0.0,0.0,0.0,0.0,0.0,0.0,0.0,0.0,0.0,0.0,0.0,0.0,0.0,0.0,0.0,0.0,0.0,-4.1576,-4.1742,-4.1338,-4.0389,-3.9662,-3.9305,-3.9305,-3.9305,-3.9305,-3.9305,-3.9305,-3.9305,0.0,0.0,-3.9305,-3.9305,-3.9305,-3.9305,-3.9305,-3.9305,-3.9305,-3.9305,-3.9305,-3.9305,-3.9305,-3.9305,-3.9305,-3.9305,-3.9305,-3.9305,-3.9305,-3.9305,-3.9305,-3.902,-3.7594,-3.6469,-3.5048,-3.2321,-3.1609,-3.1485,-3.1099,-3.0986,-3.0986,-3.0986,-3.0986,-3.0986,-3.0986,-3.0986,-3.0986,-3.0986,-3.0986,-3.0986,-3.0986,-3.0986,-3.0986,-3.0986,-3.0986,-3.0986,-3.0986,-3.0986,-3.0986,-3.0986,-3.0986,-3.0986,-3.0986,-3.0986,-3.0986,-3.0986,-3.0986,-3.0986,-3.0986,-3.0986,-3.0986,-3.0986,-3.0986,-3.0986,-3.0986,-3.0986,-3.0986,-1.1384,-1.2644,-1.3771,-1.3525,-1.5074,-1.6653,-1.6653,0.0,0.0,0.0,0.0,0.0,0.0,0.0,0.0,0.0,0.0,0.0,0.0,0.0,0.0,0.0,0.0,0.0,0.0,0.0,0.0,0.0,0.0,0.0,0.0,0.0,0.0,0.0,-4.2482,-4.2263,-4.138,-4.0972,-4.0272,-3.9305,-3.9305,-3.9305,-3.9305,-3.9305,-3.9305,-3.9305,0.0,-3.9305,-3.9305,-3.9305,-3.9305,-3.9305,-3.9305,-3.9305,-3.9305,-3.9305,-3.9305,-3.9305,-3.9305,-3.9305,-3.9305,-3.9305,-3.9305,-3.9305,-3.9305,-3.9305,-3.9061,-3.7824,-3.6618,-3.5236,-3.325,-3.2188,-3.1535,-3.1248,-3.1099,-3.0986,-3.0986,-3.0986,-3.0986,-3.0986,-3.0986,-3.0986,-3.0986,-3.0986,-3.0986,-3.0986,-3.0986,-3.0986,-3.0986,-3.0986,-3.0986,-3.0986,-3.0986,-3.0986,-3.0986,-3.0986,-3.0986,-3.0986,-3.0986,-3.0986,-3.0986,-3.0986,-3.0986,-3.0986,-3.0986,-3.0986,-3.0986,-3.0986,-3.0986,-3.0986,-3.0986,-3.0986,-1.1045,-1.2238,-1.3579,-1.4314,0.0,-1.7807,-1.8228,-1.8432,0.0,0.0,0.0,0.0,0.0,0.0,0.0,0.0,0.0,0.0,0.0,0.0,0.0,0.0,0.0,0.0,0.0,0.0,0.0,0.0,0.0,0.0,0.0,0.0,0.0,0.0,-4.3245,-4.3205,-4.2319,-4.2319,-4.1394,-3.9587,-3.9587,-3.9499,-3.9305,-3.9305,-3.9305,-3.9305,-3.9305,-3.9305,-3.9305,-3.9305,-3.9305,-3.9305,-3.9305,-3.9305,-3.9305,-3.9305,-3.9305,-3.9305,-3.9305,-3.9305,-3.9305,-3.9305,-3.9305,-3.9305,-3.9305,-3.9424,-3.9352,-3.8249,-3.7029,-3.5678,-3.4103,-3.2664,-3.1559,-3.136,-3.1161,-3.0986,-3.0986,-3.0986,-3.0986,-3.0986,-3.0986,-3.0986,-3.0986,-3.0986,-3.0986,-3.0986,-3.0986,-3.0986,-3.0986,-3.0986,-3.0986,-3.0986,-3.0986,-3.0986,-3.0986,-3.0986,-3.0986,-3.0986,-3.0986,-3.0986,-3.0986,-3.0986,-3.0986,-3.0986,-3.0986,-3.0986,-3.0986,-3.0986,-3.0986,-3.0986,-3.0986,-3.0986,-1.2061,-1.2875,-1.369,-1.4846,-1.6123,0.0,-1.9184,-1.9949,0.0,-2.1762,0.0,0.0,0.0,0.0,0.0,0.0,0.0,0.0,0.0,0.0,0.0,0.0,0.0,0.0,0.0,0.0,0.0,0.0,0.0,0.0,0.0,0.0,0.0,0.0,0.0,-4.4097,-4.3205,-4.3205,-4.2316,-4.0518,-4.0518,-4.0071,-3.9305,-3.9305,-3.9305,-3.9305,-3.9305,-3.9305,-3.9305,-3.9305,-3.9305,-3.9305,-3.9305,-3.9305,-3.9305,-3.9305,-3.9305,-3.9305,-3.9305,-3.9305,-3.9305,-3.9305,-3.9305,-3.9305,-3.9305,-3.9867,-4.0332,-3.9434,-3.8103,-3.6501,-3.4283,-3.2664,-3.1559,-3.136,-3.1161,-3.0986,-3.0986,-3.0986,-3.0986,-3.0986,-3.0986,-3.0986,-3.0986,-3.0986,-3.0986,-3.0986,-3.0986,-3.0986,-3.0986,-3.0986,-3.0986,-3.0986,-3.0986,-3.0986,-3.0986,-3.0986,-3.0986,-3.0986,-3.0986,-3.0986,-3.0986,-3.0986,-3.0986,-3.0986,-3.0986,-3.0986,-3.0986,-3.0986,-3.0986,-3.0986,-3.0986,-3.0986,-1.1262,-1.2631,-1.407,-1.4517,-1.6394,0.0,0.0,-2.0704,-2.1955,-2.3161,-2.373,0.0,0.0,0.0,0.0,0.0,0.0,0.0,0.0,0.0,0.0,0.0,0.0,0.0,0.0,0.0,0.0,0.0,0.0,0.0,0.0,0.0,0.0,0.0,0.0,-4.4458,-4.4135,-4.4097,-4.3506,-4.2275,-4.1713,-4.131,-4.0986,-4.0986,-4.0674,-4.0114,-4.0114,-3.9779,-3.9305,-3.9305,-3.9305,-3.9305,-3.9305,-3.9305,-3.9305,-3.9305,-3.9618,-4.0114,-4.0114,-4.0114,-4.0114,-4.0114,-3.9749,-3.9305,-3.9305,-3.9911,-4.0432,-3.9543,-3.8753,-3.7674,-3.5503,-3.3353,-3.1743,-3.1508,-3.1323,-3.1161,-3.1024,-3.0986,-3.0986,-3.0986,-3.0986,-3.0986,-3.0986,-3.0986,-3.0986,-3.0986,-3.0986,-3.0986,-3.0986,-3.0986,-3.0986,-3.0986,-3.0986,-3.0986,-3.0986,-3.0986,-3.0986,-3.0986,-3.0986,-3.0986,-3.0986,-3.0986,-3.0986,-3.0986,-3.0986,-3.0986,-3.0986,-3.0986,-3.0986,-3.0986,-3.0986,-3.0986,-1.1044,-1.2753,-1.4642,0.0,0.0,0.0,-2.0256,-2.1749,-2.3256,-2.4651,0.0,0.0,0.0,0.0,0.0,0.0,0.0,0.0,0.0,0.0,0.0,0.0,0.0,0.0,0.0,0.0,0.0,0.0,0.0,0.0,0.0,0.0,0.0,0.0,0.0,-4.461,-4.461,-4.461,-4.4289,-4.3678,-4.3126,-4.2522,-4.199,-4.199,-4.1645,-4.1029,-4.1029,-4.0703,-4.0142,-4.0142,-3.9968,-3.9706,-3.9706,-3.9543,-3.9305,-3.9305,-3.9662,-4.023,-4.0518,-4.0603,-4.0646,-4.0944,-4.0631,-4.0099,-3.9793,-4.0532,-4.1141,-3.9719,-3.9283,-3.8684,-3.6332,-3.4076,-3.231,-3.1726,-3.1434,-3.1235,-3.1061,-3.0986,-3.0986,-3.0986,-3.0986,-3.0986,-3.0986,-3.0986,-3.0986,-3.0986,-3.0986,-3.0986,-3.0986,-3.0986,-3.0986,-3.0986,-3.0986,-3.0986,-3.0986,-3.0986,-3.0986,-3.0986,-3.0986,-3.0986,-3.0986,-3.0986,-3.0986,-3.0986,-3.0986,-3.0986,-3.0986,-3.0986,-3.0986,-3.0986,-3.0986,-3.0986,-1.1777,-1.3379,0.0,0.0,0.0,0.0,-2.1776,-2.3268,-2.4611,-2.644,0.0,0.0,0.0,0.0,0.0,0.0,0.0,0.0,0.0,0.0,0.0,0.0,0.0,0.0,0.0,0.0,0.0,0.0,0.0,0.0,0.0,0.0,0.0,0.0,0.0,-4.4625,-4.461,-4.461,-4.461,-4.461,-4.461,-4.3693,-4.2032,-4.2032,-4.2032,-4.199,-4.199,-4.199,-4.199,-4.199,-4.1463,-4.0603,-4.0603,-4.0071,-3.9349,-3.9349,-3.9349,-3.9469,-4.0317,-4.0646,-4.0774,-4.1686,-4.199,-4.1811,-4.0901,-4.185,-4.2735,-4.0085,-3.9746,-3.9535,-3.6479,-3.4723,-3.3369,-3.1926,-3.1434,-3.1235,-3.1061,-3.0986,-3.0986,-3.0986,-3.0986,-3.0986,-3.0986,-3.0986,-3.0986,-3.0986,-3.0986,-3.0986,-3.0986,-3.0986,-3.0986,-3.0986,-3.0986,-3.0986,-3.0986,-3.0986,-3.0986,-3.0986,-3.0986,-3.0986,-3.0986,-3.0986,-3.0986,-3.0986,-3.0986,-3.0986,-3.0986,-3.0986,-3.0986,-3.0986,-3.0986,-3.0986,-1.2278,0.0,0.0,0.0,0.0,0.0,0.0,-2.4164,0.0,0.0,0.0,0.0,0.0,0.0,0.0,0.0,0.0,0.0,0.0,0.0,0.0,0.0,0.0,0.0,0.0,0.0,0.0,0.0,0.0,0.0,0.0,0.0,0.0,0.0,-4.528,-4.5103,-4.461,-4.461,-4.461,-4.461,-4.461,-4.4328,-4.3849,-4.3849,-4.3482,-4.2911,-4.2911,-4.2563,-4.199,-4.199,-4.1852,-4.1603,-4.1603,-4.1436,-4.1198,-4.1198,-4.1603,-4.2085,-4.1713,-4.2003,-4.2452,-4.2099,-4.199,-4.1949,-4.1686,-4.1976,-4.2237,-4.1436,-4.1205,-4.0579,-3.793,-3.6465,-3.4991,-3.2262,-3.1434,-3.1235,-3.1061,-3.0986,-3.0986,-3.0986,-3.0986,-3.0986,-3.0986,-3.0986,-3.0986,-3.0986,-3.0986,-3.0986,-3.0986,-3.0986,-3.0986,-3.0986,-3.0986,-3.0986,-3.0986,-3.0986,-3.0986,-3.0986,-3.0986,-3.0986,-3.0986,-3.0986,-3.0986,-3.0986,-3.0986,-3.0986,-3.0986,-3.0986,-3.0986,-3.0986,-3.0986,-3.0986,-1.3146,0.0,0.0,0.0,0.0,0.0,0.0,0.0,0.0,0.0,0.0,0.0,0.0,0.0,0.0,0.0,0.0,0.0,0.0,0.0,0.0,0.0,0.0,0.0,0.0,0.0,0.0,0.0,0.0,0.0,0.0,0.0,0.0,0.0,-4.5726,-4.5387,-4.4987,-4.471,-4.461,-4.461,-4.461,-4.461,-4.461,-4.461,-4.4289,-4.381,-4.381,-4.3521,-4.3046,-4.3046,-4.2845,-4.2522,-4.2522,-4.2319,-4.199,-4.199,-4.2319,-4.2765,-4.2603,-4.2845,-4.3284,-4.3086,-4.3046,-4.2966,-4.2629,-4.2684,-4.2765,-4.2017,-4.1949,-4.1369,-3.8534,-3.7299,-3.5986,-3.2688,-3.1606,-3.1235,-3.1061,-3.0986,-3.0986,-3.0986,-3.0986,-3.0986,-3.0986,-3.0986,-3.0986,-3.0986,-3.0986,-3.0986,-3.0986,-3.0986,-3.0986,-3.0986,-3.0986,-3.0986,-3.0986,-3.0986,-3.0986,-3.0986,-3.0986,-3.0986,-3.0986,-3.0986,-3.0986,-3.0986,-3.0986,-3.0986,-3.0986,-3.0986,-3.0986,-3.0986,-3.0986,-3.0986,0.0,0.0,0.0,0.0,0.0,0.0,0.0,0.0,0.0,0.0,0.0,0.0,0.0,0.0,0.0,0.0,0.0,0.0,0.0,0.0,0.0,0.0,0.0,0.0,0.0,0.0,0.0,0.0,0.0,0.0,0.0,0.0,0.0,0.0,-4.6095,-4.5741,-4.568,-4.5041,-4.4702,0.0,-4.4641,-4.461,-4.461,-4.461,-4.461,-4.461,-4.461,-4.461,-4.461,-4.461,-4.4135,-4.3403,-4.3403,-4.2911,-4.2237,-4.2237,-4.2237,-4.236,-4.3046,-4.3364,-4.3536,-4.4251,-4.4534,-4.4458,-4.3654,-4.3786,-4.3864,-4.229,-4.2293,-4.1993,-3.8871,-3.7715,-3.6651,-3.3503,-3.2063,-3.1296,-3.1123,-3.1061,-3.0986,-3.0986,-3.0986,-3.0986,-3.0986,-3.0986,-3.0986,-3.0986,-3.0986,-3.0986,-3.0986,-3.0986,-3.0986,-3.0986,-3.0986,-3.0986,-3.0986,-3.0986,-3.0986,-3.0986,-3.0986,-3.0986,-3.0986,-3.0986,-3.0986,-3.0986,-3.0986,-3.0986,-3.0986,-3.0986,-3.0986,-3.0986,-3.0986,-3.0986,0.0,-1.5806,0.0,0.0,0.0,0.0,0.0,0.0,0.0,0.0,0.0,0.0,0.0,0.0,0.0,0.0,0.0,0.0,0.0,0.0,0.0,0.0,0.0,0.0,0.0,0.0,0.0,0.0,0.0,0.0,0.0,0.0,0.0,-4.7404,-4.725,-4.6911,-4.6388,-4.5711,-4.5372,0.0,-4.4872,-4.461,-4.461,-4.461,-4.461,-4.461,-4.461,-4.461,-4.461,-4.461,-4.4496,-4.4328,-4.4328,-4.4212,-4.4058,-4.4058,-4.4058,-4.3966,-4.3482,-4.3771,-4.4251,-4.3732,-4.4043,-4.4572,-4.4381,-4.3927,-4.3576,-4.3888,-4.3457,-4.2664,-4.1566,-3.9817,-3.7886,-3.6114,-3.3772,-3.1919,-3.1882,-3.1394,-3.0986,-3.0986,-3.0986,-3.0986,-3.0986,-3.0986,-3.0986,-3.0986,-3.0986,-3.0986,-3.0986,-3.0986,-3.0986,-3.0986,-3.0986,-3.0986,-3.0986,-3.0986,-3.0986,-3.0986,-3.0986,-3.0986,-3.0986,-3.0986,-3.0986,-3.0986,-3.0986,-3.0986,-3.0986,-3.0986,-3.0986,-3.0986,-3.0986,-3.0986,0.0,0.0,0.0,0.0,0.0,0.0,0.0,0.0,0.0,0.0,0.0,0.0,0.0,0.0,0.0,0.0,0.0,0.0,0.0,0.0,0.0,0.0,0.0,0.0,0.0,0.0,0.0,0.0,0.0,0.0,0.0,-4.7281,-4.7635,-4.7604,-4.7604,-4.7434,-4.708,-4.6403,-4.6065,-4.6065,-4.5387,-4.4895,-4.461,-4.461,-4.461,-4.461,-4.461,-4.461,-4.461,-4.461,-4.461,-4.461,-4.461,-4.461,-4.461,-4.461,-4.461,-4.4534,-4.4097,-4.4212,-4.4534,-4.4058,-4.4212,-4.461,-4.461,-4.4228,-4.3864,-4.4343,-4.3918,-4.3148,-4.2243,-4.0514,-3.8625,-3.7307,-3.4491,-3.211,-3.211,-3.1529,-3.0986,-3.0986,-3.0986,-3.0986,-3.0986,-3.0986,-3.0986,-3.0986,-3.0986,-3.0986,-3.0986,-3.0986,-3.0986,-3.0986,-3.0986,-3.0986,-3.0986,-3.0986,-3.0986,-3.0986,-3.0986,-3.0986,-3.0986,-3.0986,-3.0986,-3.0986,-3.0986,-3.0986,-3.0986,-3.0986,-3.0986,-3.0986,-3.0986,-3.0986,0.0,0.0,0.0,0.0,0.0,0.0,0.0,0.0,0.0,0.0,0.0,0.0,0.0,0.0,0.0,0.0,0.0,0.0,0.0,0.0,0.0,0.0,0.0,0.0,0.0,0.0,0.0,0.0,0.0,0.0,0.0,-4.588,-4.6557,-4.7234,-4.7373,-4.7481,-4.7604,-4.705,-4.6773,-4.6757,-4.5972,-4.5295,-4.4779,-4.4671,-4.461,-4.461,-4.461,-4.461,-4.461,-4.461,-4.461,-4.461,-4.461,-4.461,-4.461,-4.461,-4.461,-4.461,-4.461,-4.461,-4.461,-4.461,-4.461,-4.461,-4.461,-4.4458,-4.4358,-4.4358,-4.4104,-4.3536,-4.2455,-4.082,-3.9161,-3.8053,-3.5086,-3.242,-3.2326,-3.1713,-3.1161,-3.1011,-3.0986,-3.0986,-3.0986,-3.0986,-3.0986,-3.0986,-3.0986,-3.0986,-3.0986,-3.0986,-3.0986,-3.0986,-3.0986,-3.0986,-3.0986,-3.0986,-3.0986,-3.0986,-3.0986,-3.0986,-3.0986,-3.0986,-3.0986,-3.0986,-3.0986,-3.0986,-3.0986,-3.0986,-3.0986,-3.0986,-3.0986,-3.0986,0.0,0.0,0.0,0.0,0.0,0.0,0.0,0.0,0.0,0.0,0.0,0.0,0.0,0.0,0.0,0.0,0.0,0.0,0.0,0.0,0.0,0.0,0.0,0.0,0.0,0.0,0.0,0.0,0.0,0.0,-4.387,-4.4517,-4.5157,-4.5834,-4.6419,-4.7004,-4.7604,-4.7511,-4.7465,-4.745,-4.6188,-4.5541,-4.5434,-4.4849,-4.461,-4.461,-4.461,-4.461,-4.461,-4.461,-4.461,-4.461,-4.461,-4.461,-4.461,-4.461,-4.461,-4.461,-4.461,-4.461,-4.461,-4.461,-4.461,-4.461,-4.461,-4.4587,-4.4572,-4.4572,-4.4396,-4.4159,-4.3976,-4.181,-3.96,-3.9435,-3.663,-3.3822,-3.3178,-3.247,-3.1773,-3.1123,-3.0986,-3.0986,-3.0986,-3.0986,-3.0986,-3.0986,-3.0986,-3.0986,-3.0986,-3.0986,-3.0986,-3.0986,-3.0986,-3.0986,-3.0986,-3.0986,-3.0986,-3.0986,-3.0986,-3.0986,-3.0986,-3.0986,-3.0986,-3.0986,-3.0986,-3.0986,-3.0986,-3.0986,-3.0986,-3.0986,-3.0986,-3.0986,0.0,0.0,0.0,0.0,0.0,0.0,0.0,0.0,0.0,0.0,0.0,0.0,0.0,0.0,0.0,0.0,0.0,0.0,0.0,0.0,0.0,0.0,0.0,0.0,0.0,0.0,0.0,0.0,0.0,0.0,-4.2463,-4.311,-4.3771,-4.4471,-4.511,-4.5788,-4.6465,-4.685,-4.7234,-4.7588,-4.7004,-4.6511,-4.6126,-4.5449,-4.4979,-4.461,-4.461,-4.461,-4.461,-4.461,-4.461,-4.461,-4.461,-4.461,-4.461,-4.461,-4.461,-4.461,-4.461,-4.461,-4.461,-4.461,-4.461,-4.461,-4.461,-4.4534,-4.4435,-4.4435,-4.422,-4.3767,-4.3047,-4.1202,-3.9397,-3.8902,-3.6845,-3.4872,-3.4572,-3.2911,-3.1408,-3.1048,-3.0986,-3.0986,-3.0986,-3.0986,-3.0986,-3.0986,-3.0986,-3.0986,-3.0986,-3.0986,-3.0986,-3.0986,-3.0986,-3.0986,-3.0986,-3.0986,-3.0986,-3.0986,-3.0986,-3.0986,-3.0986,-3.0986,-3.0986,-3.0986,-3.0986,-3.0986,-3.0986,-3.0986,-3.0986,-3.0986,-3.0986,-3.0986,0.0,0.0,0.0,0.0,0.0,0.0,0.0,0.0,0.0,0.0,0.0,0.0,0.0,0.0,0.0,0.0,0.0,0.0,0.0,0.0,0.0,0.0,0.0,0.0,0.0,0.0,0.0,0.0,0.0,0.0,-4.1617,-4.2078,-4.2571,-4.31,-4.3725,-4.4402,-4.5064,-4.5911,-4.668,-4.7357,-4.7357,-4.7173,-4.6819,-4.5972,-4.5311,-4.4818,-4.4687,-4.461,-4.461,-4.461,-4.461,-4.461,-4.461,-4.461,-4.461,-4.461,-4.461,-4.461,-4.461,-4.4572,-4.4534,-4.4534,-4.4511,-4.4473,-4.4473,-4.4358,-4.4205,-4.4205,-4.3988,-4.3374,-4.2055,-4.0544,-3.9134,-3.8167,-3.6686,-3.5392,-3.5001,-3.2995,-3.1222,-3.1061,-3.0986,-3.0986,-3.0986,-3.0986,-3.0986,-3.0986,-3.0986,-3.0986,-3.0986,-3.0986,-3.0986,-3.0986,-3.0986,-3.0986,-3.0986,-3.0986,-3.0986,-3.0986,-3.0986,-3.0986,-3.0986,-3.0986,-3.0986,-3.0986,-3.0986,-3.0986,-3.0986,-3.0986,-3.0986,-3.0986,-3.0986,-3.0986,0.0,0.0,0.0,0.0,0.0,0.0,0.0,0.0,0.0,0.0,0.0,0.0,0.0,0.0,0.0,0.0,0.0,0.0,0.0,0.0,0.0,0.0,0.0,0.0,0.0,0.0,0.0,0.0,0.0,0.0,-4.1632,-4.1632,-4.1663,-4.1694,-4.2355,-4.3033,-4.3701,-4.4987,-4.5972,-4.665,-4.665,-4.6973,-4.7511,-4.6188,-4.5572,-4.5495,-4.4902,-4.461,-4.461,-4.461,-4.461,-4.461,-4.461,-4.461,-4.461,-4.461,-4.461,-4.461,-4.461,-4.4473,-4.432,-4.432,-4.4166,-4.4026,-4.4026,-4.4026,-4.4026,-4.4026,-4.3871,-4.3374,-4.2055,-4.0544,-3.9059,-3.7764,-3.6447,-3.5115,-3.3644,-3.2648,-3.1846,-3.1123,-3.0986,-3.0986,-3.0986,-3.0986,-3.0986,-3.0986,-3.0986,-3.0986,-3.0986,-3.0986,-3.0986,-3.0986,-3.0986,-3.0986,-3.0986,-3.0986,-3.0986,-3.0986,-3.0986,-3.0986,-3.0986,-3.0986,-3.0986,-3.0986,-3.0986,-3.0986,-3.0986,-3.0986,-3.0986,-3.0986,-3.0986,-3.0986,0.0,0.0,0.0,0.0,0.0,0.0,0.0,0.0,0.0,0.0,0.0,0.0,0.0,0.0,0.0,0.0,0.0,0.0,0.0,0.0,0.0,0.0,0.0,0.0,0.0,0.0,0.0,0.0,0.0,0.0,-4.2279,-4.1832,-4.1601,-4.1601,-4.1386,-4.1817,-4.294,-4.3848,-4.4849,-4.5957,-4.5957,-4.6311,-4.6942,-4.6449,-4.6003,-4.5572,-4.5341,-4.4987,-4.461,-4.461,-4.461,-4.461,-4.461,-4.461,-4.461,-4.461,-4.461,-4.461,-4.461,-4.4534,-4.4496,-4.4496,-4.4358,-4.4205,-4.4205,-4.4026,-4.3808,-4.3847,-4.3675,-4.3088,-4.1483,-3.9805,-3.8167,-3.6567,-3.5833,-3.5213,-3.4158,-3.3353,-3.2448,-3.1235,-3.0986,-3.0986,-3.0986,-3.0986,-3.0986,-3.0986,-3.0986,-3.0986,-3.0986,-3.0986,-3.0986,-3.0986,-3.0986,-3.0986,-3.0986,-3.0986,-3.0986,-3.0986,-3.0986,-3.0986,-3.0986,-3.0986,-3.0986,-3.0986,-3.0986,-3.0986,-3.0986,-3.0986,-3.0986,-3.0986,-3.0986,-3.0986,-0.929,0.0,0.0,0.0,0.0,0.0,0.0,0.0,0.0,0.0,0.0,0.0,0.0,0.0,0.0,0.0,0.0,0.0,0.0,0.0,0.0,0.0,0.0,0.0,0.0,0.0,0.0,0.0,0.0,0.0,-4.2648,-4.2386,-4.2063,-4.1617,-4.1124,-4.1217,-4.1909,-4.2571,-4.3479,-4.4587,-4.4803,-4.5387,-4.6249,-4.6249,-4.6142,-4.5926,-4.5926,-4.5418,-4.461,-4.461,-4.461,-4.461,-4.461,-4.461,-4.461,-4.461,-4.461,-4.461,-4.461,-4.4549,-4.4496,-4.4496,-4.4358,-4.4205,-4.4205,-4.4026,-4.3808,-4.3808,-4.3636,-4.3019,-4.1175,-3.8955,-3.6941,-3.5789,-3.5504,-3.5359,-3.4824,-3.4056,-3.3087,-3.1763,-3.1235,-3.0986,-3.0986,-3.0986,-3.0986,-3.0986,-3.0986,-3.0986,-3.0986,-3.0986,-3.0986,-3.0986,-3.0986,-3.0986,-3.0986,-3.0986,-3.0986,-3.0986,-3.0986,-3.0986,-3.0986,-3.0986,-3.0986,-3.0986,-3.0986,-3.0986,-3.0986,-3.0986,-3.0986,-3.0986,-3.0986,-3.0986,0.0,0.0,0.0,0.0,0.0,0.0,0.0,0.0,0.0,0.0,0.0,0.0,0.0,0.0,0.0,0.0,0.0,0.0,0.0,0.0,0.0,0.0,0.0,0.0,0.0,0.0,0.0,0.0,0.0,-4.3202,-4.2586,-4.3156,-4.2925,-4.1663,-4.1617,-4.1263,-4.0536,-4.1232,-4.1909,-4.2586,-4.3217,-4.424,-4.5495,-4.5541,-4.5911,-4.6542,-4.6573,-4.5849,-4.4671,-4.4656,-4.4641,-4.461,-4.461,-4.461,-4.461,-4.461,-4.461,-4.461,-4.461,-4.4473,-4.432,-4.432,-4.4166,-4.4026,-4.4026,-4.4026,-4.3972,-4.3786,-4.3732,-4.3232,-4.1115,-3.8048,-3.5504,-3.5504,-3.5504,-3.5504,-3.5504,-3.4721,-3.3762,-3.2761,-3.174,-3.1048,-3.1048,-3.1086,-3.1099,-3.1024,-3.0986,-3.0986,-3.0986,-3.0986,-3.0986,-3.0986,-3.0986,-3.0986,-3.0986,-3.0986,-3.0986,-3.0986,-3.0986,-3.0986,-3.0986,-3.0986,-3.0986,-3.0986,-3.0986,-3.0986,-3.0986,-3.0986,-3.0986,-3.0986,-3.0986,-3.0986,-0.9721,0.0,0.0,0.0,0.0,0.0,0.0,0.0,0.0,0.0,0.0,0.0,0.0,0.0,0.0,0.0,0.0,0.0,0.0,0.0,0.0,0.0,0.0,0.0,0.0,0.0,0.0,0.0,-4.117,-4.1294,-4.1074,-4.1755,-4.2202,-4.2325,-4.1848,-4.1509,-4.1309,-4.0986,-4.1186,-4.1878,-4.2048,-4.2586,-4.3464,-4.4418,-4.4995,-4.5187,-4.6172,-4.6388,-4.6003,-4.5511,-4.5018,-4.461,-4.461,-4.461,-4.461,-4.461,-4.461,-4.461,-4.461,-4.4572,-4.4511,-4.4511,-4.4396,-4.4205,-4.4205,-4.4104,-4.3753,-4.2499,-4.2134,-4.1383,-3.8031,-3.6408,-3.5621,-3.5522,-3.5504,-3.5504,-3.5504,-3.5294,-3.482,-3.3988,-3.3143,-3.2591,-3.2591,-3.352,-3.352,-3.1334,-3.0986,-3.0986,-3.0986,-3.0986,-3.0986,-3.0986,-3.0986,-3.0986,-3.0986,-3.0986,-3.0986,-3.0986,-3.0986,-3.0986,-3.0986,-3.0986,-3.0986,-3.0986,-3.0986,-3.0986,-3.0986,-3.0986,-3.0986,-3.0986,-3.0986,-3.0986,0.0,0.0,0.0,0.0,0.0,0.0,0.0,0.0,0.0,0.0,0.0,0.0,0.0,0.0,0.0,0.0,0.0,0.0,0.0,0.0,0.0,0.0,0.0,0.0,0.0,0.0,0.0,-3.7461,-3.8616,-3.9598,-4.0443,-4.0889,-4.1463,-4.2171,-4.1801,-4.174,-4.2017,-4.1324,-4.1186,-4.1601,-4.1294,-4.1524,-4.2217,-4.3279,-4.4048,-4.4671,-4.5711,-4.6326,-4.6573,-4.6172,-4.5603,-4.501,-4.4733,-4.461,-4.461,-4.461,-4.461,-4.461,-4.461,-4.461,-4.461,-4.461,-4.4127,-4.3569,-4.3569,-4.3096,-4.2426,-4.1826,-4.0506,-3.872,-3.6392,-3.5752,-3.5703,-3.5522,-3.5504,-3.5504,-3.5504,-3.5504,-3.5359,-3.4905,-3.4457,-3.4153,-3.4153,-3.4902,-3.4902,-3.3136,-3.2889,-3.2889,-3.2889,-3.2889,-3.2403,-3.1123,-3.0986,-3.0986,-3.0986,-3.0986,-3.0986,-3.0986,-3.0986,-3.0986,-3.0986,-3.0986,-3.0986,-3.0986,-3.0986,-3.0986,-3.0986,-3.0986,-3.0986,-3.0986,-3.0986,-3.0986,0.0,0.0,0.0,0.0,0.0,0.0,0.0,-1.6317,0.0,0.0,0.0,0.0,0.0,0.0,0.0,0.0,0.0,0.0,0.0,0.0,0.0,0.0,0.0,0.0,0.0,0.0,-3.3013,-3.3167,-3.5507,-3.7784,-3.9721,-3.9967,-4.0413,-4.1232,-4.1401,-4.1801,-4.2494,-4.1817,-4.1524,-4.1586,-4.0843,-4.0828,-4.1509,-4.2186,-4.3171,-4.4402,-4.5157,-4.5865,-4.648,-4.648,-4.6172,-4.5634,-4.4957,-4.4733,-4.4718,-4.4641,-4.461,-4.4594,-4.444,-4.4394,-4.4363,-4.4209,-4.334,-4.2371,-4.2371,-4.1474,-4.0628,-4.1324,-3.8895,-3.607,-3.5847,-3.5831,-3.5735,-3.5554,-3.5504,-3.5504,-3.5504,-3.5504,-3.5504,-3.5504,-3.5504,-3.5504,-3.5504,-3.5504,-3.5504,-3.5504,-3.5504,-3.5504,-3.5504,-3.5504,-3.4471,-3.18,-3.1519,-3.1519,-3.1519,-3.1198,-3.0986,-3.0986,-3.0986,-3.0986,-3.0986,-3.0986,-3.0986,-3.0986,-3.0986,-3.0986,-3.0986,-3.0986,-3.0986,-3.0986,-3.0986,-3.0986,0.0,0.0,0.0,0.0,0.0,0.0,0.0,-1.4298,0.0,0.0,0.0,0.0,0.0,0.0,0.0,0.0,0.0,0.0,0.0,0.0,0.0,0.0,0.0,0.0,0.0,0.0,-3.0628,-3.1705,-3.2782,-3.4044,-3.5598,-3.6692,-3.7846,-3.9077,-4.0136,-4.1078,-4.1786,-4.1093,-4.1032,-4.1586,-4.0843,-4.0566,-4.072,-4.1463,-4.2232,-4.3063,-4.4264,-4.5157,-4.5788,-4.5788,-4.6034,-4.6326,-4.5649,-4.5387,-4.5326,-4.4825,-4.461,-4.4471,-4.3356,-4.2987,-4.2802,-4.1694,-4.1105,-4.0905,-4.0905,-4.0705,-4.0305,-3.9431,-3.7717,-3.6148,-3.599,-3.5863,-3.5735,-3.5554,-3.5504,-3.5504,-3.5504,-3.5504,-3.5504,-3.5504,-3.5504,-3.5504,-3.5504,-3.5504,-3.5504,-3.5504,-3.5504,-3.5504,-3.5504,-3.5504,-3.5261,-3.4687,-3.462,-3.462,-3.462,-3.2403,-3.0986,-3.0986,-3.0986,-3.0986,-3.0986,-3.0986,-3.0986,-3.0986,-3.0986,-3.0986,-3.0986,-3.0986,-3.0986,-3.0986,-3.0986,-3.0986,0.0,0.0,0.0,-1.6855,0.0,0.0,0.0,0.0,0.0,0.0,0.0,0.0,0.0,0.0,0.0,0.0,0.0,0.0,0.0,0.0,0.0,0.0,0.0,0.0,0.0,0.0,-2.8049,-2.9766,-3.052,-3.1505,-3.2887,-3.3906,-3.5076,-3.6445,-3.7815,-3.917,-4.0555,-4.0893,-4.1417,-4.2094,-4.1401,-4.1063,-4.1063,-4.1063,-4.1447,-4.214,-4.2802,-4.3848,-4.508,-4.508,-4.528,-4.5588,-4.5588,-4.5788,-4.5926,-4.461,-4.4117,-4.387,-4.2155,-4.1535,-4.1463,-4.072,-4.0043,-3.949,-3.949,-3.9046,-3.8337,-3.758,-3.6794,-3.6133,-3.5958,-3.5894,-3.5846,-3.5554,-3.5504,-3.5504,-3.5504,-3.5504,-3.5504,-3.5504,-3.5504,-3.5504,-3.5504,-3.5504,-3.5504,-3.5504,-3.5504,-3.5504,-3.5504,-3.5504,-3.5504,-3.5504,-3.5504,-3.5504,-3.5504,-3.4133,-3.2925,-3.2137,-3.2101,-3.1932,-3.1566,-3.1529,-3.1371,-3.1024,-3.0986,-3.0986,-3.0986,-3.0986,-3.0986,-3.0986,-3.0986,-3.0986,0.0,0.0,0.0,0.0,0.0,-1.7131,0.0,0.0,0.0,0.0,0.0,0.0,0.0,0.0,0.0,0.0,0.0,0.0,0.0,0.0,0.0,0.0,0.0,0.0,0.0,0.0,-2.5395,-2.7457,-2.7996,-2.8812,-3.0135,-3.1243,-3.2336,-3.3488,-3.506,-3.6753,-3.8539,-3.9785,-4.0955,-4.2001,-4.1463,-4.1401,-4.1771,-4.1063,-4.0909,-4.1201,-4.1201,-4.1971,-4.3233,-4.3494,-4.3679,-4.3895,-4.4833,-4.5372,-4.5418,-4.3633,-4.2987,-4.2709,-4.0801,-4.0105,-4.0059,-3.9797,-3.8967,-3.8058,-3.8058,-3.729,-3.6367,-3.6211,-3.6148,-3.607,-3.5847,-3.5846,-3.5829,-3.5554,-3.5504,-3.5504,-3.5504,-3.5504,-3.5504,-3.5504,-3.5504,-3.5504,-3.5504,-3.5504,-3.5504,-3.5504,-3.5504,-3.5504,-3.5504,-3.5504,-3.5504,-3.5504,-3.5504,-3.5504,-3.5504,-3.5504,-3.4968,-3.3713,-3.3367,-3.2932,-3.2326,-3.2051,-3.1603,-3.1024,-3.0986,-3.0986,-3.0986,-3.0986,-3.0986,-3.0986,-3.0986,-3.0986,0.0,0.0,0.0,0.0,-1.9007,0.0,0.0,0.0,0.0,0.0,0.0,0.0,0.0,0.0,0.0,0.0,0.0,0.0,0.0,0.0,0.0,0.0,0.0,0.0,0.0,0.0,0.0,-2.461,-2.4287,-2.4579,-2.5911,-2.8381,-2.9802,-2.9981,-3.2444,-3.4168,-3.5075,-3.5829,-3.7415,-3.9828,-3.9751,-4.0709,-4.2463,-4.1786,-4.0847,-3.9754,-3.9754,-3.92,-3.84,-3.9601,-4.0447,-4.117,-4.3063,-4.3162,-4.2063,-4.1186,-4.0843,-4.0628,-3.9231,-3.8739,-3.8539,-3.7338,-3.6736,-3.6472,-3.6472,-3.627,-3.6037,-3.6037,-3.5894,-3.5752,-3.5799,-3.5701,-3.5569,-3.5504,-3.5504,-3.5504,-3.5504,-3.5504,-3.5504,-3.5504,-3.5504,-3.5504,-3.5504,-3.5504,-3.5504,-3.5504,-3.5504,-3.5504,-3.5504,-3.5504,-3.5504,-3.5504,-3.5504,-3.5504,-3.5504,-3.5504,-3.5439,-3.5261,-3.3968,-3.3143,-3.3073,-3.1823,-3.1099,-3.0986,-3.0986,-3.0986,-3.0986,-3.0986,-3.0986,-3.0986,-3.0986,-3.0986,0.0,0.0,0.0,0.0,0.0,0.0,0.0,0.0,-1.7361,0.0,0.0,0.0,0.0,0.0,0.0,0.0,0.0,0.0,0.0,0.0,0.0,0.0,0.0,0.0,0.0,0.0,0.0,0.0,0.0,-2.2886,-2.4641,-2.6542,-2.7787,-2.8227,-3.0474,-3.1997,-3.2702,-3.4181,-3.5891,-3.7769,-3.7769,-3.8415,-3.9616,-3.8939,-3.8323,-3.7769,-3.7769,-3.7661,-3.7538,-3.8123,-3.8523,-3.8862,-3.9708,-4.0924,-4.2001,-4.0493,-3.9905,-3.9659,-3.7938,-3.7338,-3.7246,-3.6676,-3.6445,-3.6383,-3.6383,-3.632,-3.6273,-3.6148,-3.6053,-3.5943,-3.5816,-3.5668,-3.5504,-3.5504,-3.5504,-3.5504,-3.5504,-3.5504,-3.5504,-3.5504,-3.5504,-3.5504,-3.5504,-3.5504,-3.5504,-3.5504,-3.5504,-3.5504,-3.5504,-3.5504,-3.5504,-3.5504,-3.5504,-3.5504,-3.5504,-3.5504,-3.5504,-3.5504,-3.4902,-3.4153,-3.3248,-3.1786,-3.0986,-3.0986,-3.0986,-3.0986,-3.0986,-3.0986,-3.0986,-3.0986,-3.0986,-3.0986,-2.035,0.0,0.0,0.0,0.0,0.0,0.0,0.0,0.0,0.0,0.0,0.0,0.0,0.0,0.0,0.0,0.0,0.0,0.0,0.0,0.0,0.0,0.0,0.0,0.0,0.0,0.0,0.0,0.0,0.0,-2.3363,-2.4912,-2.6081,-2.6795,-2.8627,-2.9904,-3.0551,-3.2271,-3.3952,-3.5645,-3.5845,-3.6584,-3.7754,-3.7076,-3.6569,-3.6199,-3.6014,-3.5999,-3.6122,-3.6307,-3.6384,-3.6415,-3.6799,-3.8462,-4.0493,-3.9185,-3.8692,-3.8477,-3.7015,-3.6492,-3.6492,-3.6492,-3.646,-3.6414,-3.6414,-3.6383,-3.632,-3.6179,-3.6148,-3.6116,-3.5926,-3.5782,-3.5668,-3.5748,-3.5634,-3.5504,-3.5504,-3.5504,-3.5504,-3.5504,-3.5504,-3.5504,-3.5504,-3.5504,-3.5504,-3.5504,-3.5504,-3.5504,-3.5504,-3.5504,-3.5504,-3.5504,-3.5504,-3.5504,-3.5504,-3.5504,-3.5504,-3.5504,-3.5504,-3.5001,-3.3899,-3.2818,-3.2223,-3.2223,-3.1823,-3.1408,-3.0986,-3.1272,-3.1272,-3.0986,-3.0986,-3.0986,0.0,0.0,0.0,-1.8898,0.0,0.0,0.0,0.0,-1.924,0.0,0.0,0.0,0.0,0.0,0.0,0.0,0.0,0.0,0.0,0.0,0.0,0.0,0.0,0.0,0.0,0.0,0.0,0.0,0.0,0.0,-2.1257,-2.3286,-2.4666,-2.5342,-2.6749,-2.7811,-2.8488,-2.9212,-3.0905,-3.3506,-3.4227,-3.5922,-3.8462,-3.7769,-3.6753,-3.5506,-3.4859,-3.3812,-3.2613,-3.326,-3.3537,-3.3675,-3.5014,-3.5645,-3.5784,-3.6368,-3.6599,-3.6584,-3.6507,-3.6492,-3.6492,-3.6492,-3.6383,-3.6211,-3.6211,-3.6116,-3.6005,-3.6005,-3.6005,-3.6037,-3.607,-3.6101,-3.6133,-3.6429,-3.5972,-3.5504,-3.5504,-3.5504,-3.5504,-3.5504,-3.5504,-3.5504,-3.5504,-3.5504,-3.5504,-3.5504,-3.5504,-3.5504,-3.5504,-3.5504,-3.5504,-3.5504,-3.5504,-3.5504,-3.5504,-3.5504,-3.5504,-3.5504,-3.5504,-3.5472,-3.5439,-3.5359,-3.5374,-3.5374,-3.3899,-3.2426,-3.0986,-3.1982,-3.1946,-3.0986,-3.0986,-3.0986,0.0,0.0,-2.281,-2.0553,0.0,0.0,0.0,0.0,0.0,0.0,0.0,0.0,0.0,0.0,0.0,0.0,0.0,0.0,0.0,0.0,0.0,0.0,0.0,0.0,0.0,0.0,0.0,0.0,0.0,0.0,0.0,-2.2778,-2.4148,-2.525,-2.6672,-2.7719,-2.8396,-2.8627,-2.9427,-3.0766,-3.1459,-3.249,-3.3798,-3.4029,-3.3875,-3.3429,-3.3198,-3.2829,-3.2413,-3.2644,-3.2998,-3.3506,-3.4474,-3.5121,-3.5598,-3.6245,-3.6492,-3.6492,-3.6492,-3.6492,-3.6492,-3.6492,-3.646,-3.6383,-3.6383,-3.6274,-3.6148,-3.6148,-3.6148,-3.6148,-3.6101,-3.6101,-3.6101,-3.6163,-3.5988,-3.5765,-3.5569,-3.5504,-3.5504,-3.5504,-3.5504,-3.5504,-3.5504,-3.5504,-3.5504,-3.5504,-3.5504,-3.5504,-3.5504,-3.5504,-3.5504,-3.5504,-3.5504,-3.5504,-3.5504,-3.5504,-3.5504,-3.5504,-3.5504,-3.5504,-3.5504,-3.5504,-3.5504,-3.5504,-3.5001,-3.4153,-3.2981,-3.2654,-3.2223,-3.1713,-3.1222,-3.0986,-2.3112,-2.3597,0.0,-2.1905,-2.1472,0.0,-1.8669,0.0,0.0,0.0,0.0,0.0,0.0,0.0,0.0,0.0,0.0,0.0,0.0,0.0,0.0,0.0,0.0,0.0,0.0,0.0,-1.5624,-1.77,0.0,0.0,0.0,0.0,-2.3456,-2.4564,-2.6195,-2.7365,-2.8042,-2.8288,-2.875,-2.9402,-3.0079,-3.0766,-3.1439,-3.209,-3.2398,-3.2398,-3.2398,-3.2398,-3.2398,-3.2398,-3.2644,-3.3136,-3.4135,-3.4767,-3.526,-3.6153,-3.6492,-3.6492,-3.6492,-3.6492,-3.6492,-3.6492,-3.6492,-3.6492,-3.6492,-3.6352,-3.6196,-3.6196,-3.6179,-3.6116,-3.6101,-3.6101,-3.607,-3.5958,-3.5941,-3.5878,-3.5636,-3.5522,-3.5504,-3.5504,-3.5504,-3.5504,-3.5504,-3.5504,-3.5504,-3.5504,-3.5504,-3.5504,-3.5504,-3.5504,-3.5504,-3.5504,-3.5504,-3.5504,-3.5504,-3.5504,-3.5504,-3.5504,-3.5504,-3.5504,-3.5504,-3.5504,-3.5504,-3.5504,-3.5504,-3.5034,-3.409,-3.3471,-3.2769,-3.2074,-3.1603,-3.1259]},{"header":{"parameterUnit":"m.s-1","parameterCategory":1,"la1":30.6,"la2":29.2853,"lo1":-89.7004,"lo2":-87.6739,"dy":0.0162,"dx":0.0183,"nx":112,"ny":82,"refTime":"2025-07-04T00:00:00:Z","depth":0,"parameterNumber":3,"parameterNumberName":"V-component_of_WINDS"},"data":[0.0,0.0,0.0,0.0,0.0,0.0,0.0,0.0,0.0,0.0,0.0,0.0,0.0,0.0,0.0,0.0,0.0,0.0,0.0,0.0,0.0,0.0,0.0,0.0,0.0,0.0,0.0,0.0,0.0,0.0,0.0,0.0,0.0,0.0,0.0,0.0,0.0,0.0,0.0,0.0,0.0,0.0,0.0,0.0,0.0,0.0,0.0,0.0,0.0,0.0,0.0,0.0,0.0,0.0,0.0,0.0,0.0,0.0,0.0,0.0,0.0,0.0,0.0,0.0,0.0,0.0,0.0,0.0,0.0,0.0,0.0,0.0,0.0,0.0,0.0,0.0,0.0,0.0,0.0,0.0,0.0,0.0,0.0,0.0,0.0,0.0,0.0,0.0,0.0,0.0,0.0,-1.5559,-1.7748,-1.9059,-1.9017,-1.8908,-1.7748,-1.5215,0.0,0.0,0.0,0.0,0.0,0.0,0.0,0.0,0.0,0.0,0.0,0.0,0.0,0.0,0.0,0.0,0.0,0.0,0.0,0.0,0.0,0.0,0.0,0.0,0.0,0.0,0.0,0.0,0.0,0.0,0.0,0.0,0.0,0.0,0.0,0.0,0.0,0.0,0.0,0.0,0.0,0.0,0.0,0.0,0.0,0.0,0.0,0.0,0.0,0.0,0.0,0.0,0.0,0.0,0.0,0.0,0.0,0.0,0.0,0.0,0.0,0.0,0.0,0.0,0.0,0.0,0.0,0.0,0.0,0.0,0.0,0.0,0.0,0.0,0.0,0.0,0.0,0.0,0.0,0.0,0.0,0.0,0.0,0.0,0.0,0.0,0.0,0.0,0.0,0.0,0.0,0.0,0.0,0.0,0.0,0.0,0.0,0.0,0.0,0.0,0.0,0.0,0.0,0.0,-1.3878,-1.7371,-1.852,-1.9036,-1.9078,-1.9003,-1.7917,-1.5412,0.0,0.0,0.0,0.0,0.0,0.0,0.0,0.0,0.0,0.0,0.0,0.0,0.0,0.0,0.0,0.0,0.0,0.0,0.0,0.0,0.0,0.0,0.0,0.0,0.0,0.0,0.0,0.0,0.0,0.0,0.0,0.0,0.0,0.0,0.0,0.0,0.0,0.0,0.0,0.0,0.0,0.0,0.0,0.0,0.0,0.0,0.0,0.0,0.0,0.0,0.0,0.0,0.0,0.0,0.0,0.0,0.0,0.0,0.0,0.0,0.0,0.0,0.0,0.0,0.0,0.0,0.0,0.0,0.0,0.0,0.0,0.0,0.0,0.0,0.0,0.0,0.0,0.0,0.0,0.0,0.0,0.0,0.0,0.0,0.0,0.0,0.0,0.0,0.0,0.0,0.0,0.0,0.0,0.0,0.0,0.0,0.0,0.0,0.0,0.0,0.0,0.0,0.0,-1.3589,-1.5182,-1.8361,-1.8919,-1.9059,-1.9101,-1.9036,-1.7935,-1.5457,-1.3954,0.0,0.0,0.0,0.0,0.0,0.0,0.0,0.0,0.0,0.0,0.0,0.0,0.0,0.0,0.0,0.0,0.0,0.0,0.0,0.0,0.0,0.0,0.0,0.0,0.0,0.0,0.0,0.0,0.0,0.0,0.0,0.0,0.0,0.0,0.0,0.0,0.0,0.0,0.0,0.0,0.0,0.0,0.0,0.0,0.0,0.0,0.0,0.0,0.0,0.0,0.0,0.0,0.0,0.0,0.0,0.0,0.0,0.0,0.0,0.0,0.0,0.0,0.0,0.0,0.0,0.0,0.0,0.0,0.0,0.0,0.0,0.0,0.0,0.0,0.0,0.0,0.0,0.0,0.0,0.0,0.0,0.0,0.0,0.0,0.0,0.0,0.0,0.0,0.0,0.0,0.0,0.0,0.0,0.0,0.0,0.0,0.0,0.0,0.0,0.0,0.0,0.0,-1.5385,-1.6619,-1.8869,-1.9101,-1.9101,-1.9101,-1.878,-1.7635,-1.5443,-1.3735,0.0,0.0,0.0,0.0,0.0,0.0,0.0,0.0,0.0,0.0,0.0,0.0,0.0,0.0,0.0,0.0,0.0,0.0,0.0,0.0,0.0,0.0,0.0,0.0,0.0,0.0,0.0,0.0,0.0,0.0,0.0,0.0,0.0,0.0,0.0,0.0,0.0,0.0,0.0,0.0,0.0,0.0,0.0,0.0,0.0,0.0,0.0,0.0,0.0,0.0,0.0,0.0,0.0,0.0,0.0,0.0,0.0,0.0,0.0,0.0,0.0,0.0,0.0,0.0,0.0,0.0,0.0,0.0,0.0,0.0,0.0,0.0,0.0,0.0,0.0,0.0,0.0,0.0,0.0,0.0,0.0,0.0,0.0,0.0,0.0,0.0,0.0,0.0,0.0,0.0,0.0,0.0,0.0,0.0,0.0,0.0,0.0,0.0,0.0,0.0,0.0,0.0,-1.5604,-1.7592,-1.8956,-1.9101,-1.9101,-1.9101,-1.8009,-1.6748,-1.5385,-1.2976,0.0,0.0,0.0,0.0,0.0,0.0,0.0,0.0,0.0,0.0,0.0,0.0,0.0,0.0,0.0,0.0,0.0,0.0,0.0,0.0,0.0,0.0,0.0,0.0,0.0,0.0,0.0,0.0,0.0,0.0,0.0,0.0,0.0,0.0,0.0,0.0,0.0,0.0,0.0,0.0,0.0,0.0,0.0,0.0,0.0,0.0,0.0,0.0,0.0,0.0,0.0,0.0,0.0,0.0,0.0,0.0,0.0,0.0,0.0,0.0,0.0,0.0,0.0,0.0,0.0,0.0,0.0,0.0,0.0,0.0,0.0,0.0,0.0,0.0,0.0,0.0,0.0,0.0,0.0,0.0,0.0,0.0,0.0,0.0,0.0,0.0,0.0,0.0,0.0,0.0,0.0,0.0,0.0,0.0,0.0,0.0,0.0,0.0,0.0,0.0,0.0,0.0,-1.527,-1.7229,0.0,-1.9101,-1.9101,-1.9101,-1.8666,-1.7505,-1.5428,0.0,0.0,0.0,0.0,0.0,0.0,0.0,0.0,0.0,0.0,0.0,0.0,0.0,0.0,0.0,0.0,0.0,0.0,0.0,0.0,0.0,0.0,0.0,0.0,0.0,0.0,0.0,0.0,0.0,0.0,0.0,0.0,0.0,0.0,0.0,0.0,0.0,0.0,0.0,0.0,0.0,0.0,0.0,0.0,0.0,0.0,0.0,0.0,0.0,0.0,0.0,0.0,0.0,0.0,0.0,0.0,0.0,0.0,0.0,0.0,0.0,0.0,0.0,0.0,0.0,0.0,0.0,0.0,0.0,0.0,0.0,0.0,0.0,0.0,0.0,0.0,0.0,0.0,0.0,0.0,0.0,0.0,0.0,0.0,0.0,0.0,0.0,0.0,0.0,0.0,0.0,0.0,0.0,0.0,0.0,0.0,0.0,0.0,0.0,0.0,0.0,0.0,-1.3218,-1.5415,-1.7417,0.0,-1.9101,-1.9101,-1.9101,-1.8738,-1.7592,-1.5428,0.0,0.0,0.0,0.0,0.0,0.0,0.0,0.0,0.0,0.0,0.0,0.0,0.0,0.0,0.0,0.0,0.0,0.0,0.0,0.0,0.0,0.0,0.0,0.0,0.0,0.0,0.0,0.0,0.0,0.0,0.0,0.0,0.0,0.0,0.0,0.0,0.0,0.0,0.0,0.0,0.0,0.0,0.0,0.0,0.0,0.0,0.0,0.0,0.0,0.0,0.0,0.0,0.0,0.0,0.0,0.0,0.0,0.0,0.0,0.0,0.0,0.0,0.0,0.0,0.0,0.0,0.0,0.0,0.0,0.0,0.0,0.0,0.0,0.0,0.0,0.0,0.0,0.0,0.0,0.0,0.0,0.0,0.0,0.0,0.0,0.0,0.0,0.0,0.0,0.0,0.0,0.0,0.0,0.0,0.0,0.0,0.0,0.0,0.0,0.0,0.0,0.0,-1.3334,-1.6229,-1.8448,-1.9043,-1.9101,-1.9101,-1.9101,-1.7954,-1.6661,0.0,0.0,0.0,0.0,0.0,0.0,0.0,0.0,0.0,0.0,0.0,0.0,0.0,0.0,0.0,0.0,0.0,0.0,0.0,0.0,0.0,0.0,0.0,0.0,0.0,0.0,0.0,0.0,0.0,0.0,0.0,0.0,0.0,0.0,0.0,0.0,0.0,0.0,0.0,0.0,0.0,0.0,0.0,0.0,0.0,0.0,0.0,0.0,0.0,0.0,0.0,0.0,0.0,0.0,0.0,0.0,0.0,0.0,0.0,0.0,0.0,0.0,0.0,0.0,0.0,0.0,0.0,0.0,0.0,0.0,0.0,0.0,0.0,0.0,0.0,0.0,0.0,0.0,0.0,0.0,0.0,0.0,0.0,0.0,0.0,0.0,0.0,0.0,0.0,0.0,0.0,0.0,0.0,0.0,0.0,0.0,0.0,0.0,0.0,0.0,0.0,0.0,0.0,0.0,-1.6837,-1.8898,-1.9087,-1.9101,-1.9101,-1.9101,-1.8753,-1.7621,-1.5428,0.0,0.0,0.0,0.0,0.0,0.0,0.0,0.0,0.0,0.0,0.0,0.0,0.0,0.0,0.0,0.0,0.0,0.0,0.0,0.0,0.0,0.0,0.0,0.0,0.0,0.0,0.0,0.0,0.0,0.0,0.0,0.0,0.0,0.0,0.0,0.0,0.0,0.0,0.0,0.0,0.0,0.0,0.0,0.0,0.0,0.0,0.0,0.0,0.0,0.0,0.0,0.0,0.0,0.0,0.0,0.0,0.0,0.0,0.0,0.0,0.0,0.0,0.0,0.0,0.0,0.0,0.0,0.0,0.0,0.0,0.0,0.0,0.0,0.0,0.0,0.0,0.0,0.0,0.0,0.0,0.0,0.0,0.0,0.0,0.0,0.0,0.0,0.0,0.0,0.0,0.0,0.0,0.0,0.0,0.0,0.0,0.0,0.0,0.0,0.0,0.0,0.0,-1.421,-1.7113,-1.9101,-1.9101,-1.9101,-1.9101,-1.9101,-1.9101,-1.8129,-1.5791,0.0,0.0,0.0,0.0,0.0,0.0,0.0,0.0,0.0,0.0,0.0,0.0,0.0,0.0,0.0,0.0,0.0,0.0,0.0,0.0,0.0,0.0,0.0,0.0,0.0,0.0,0.0,0.0,0.0,0.0,0.0,0.0,0.0,0.0,0.0,0.0,0.0,0.0,0.0,0.0,0.0,0.0,0.0,0.0,0.0,0.0,0.0,0.0,0.0,0.0,0.0,0.0,0.0,0.0,0.0,0.0,0.0,0.0,0.0,0.0,0.0,0.0,0.0,0.0,0.0,0.0,0.0,0.0,0.0,0.0,0.0,0.0,0.0,0.0,0.0,0.0,0.0,0.0,0.0,0.0,0.0,0.0,0.0,0.0,0.0,0.0,0.0,0.0,0.0,0.0,0.0,0.0,0.0,0.0,0.0,0.0,0.0,0.0,0.0,0.0,0.0,0.0,-1.4297,-1.7156,-1.9101,-1.9101,-1.9101,-1.9101,-1.9101,-1.9101,-1.8303,-1.6416,0.0,0.0,0.0,0.0,0.0,0.0,0.0,0.0,0.0,0.0,0.0,0.0,0.0,0.0,0.0,0.0,0.0,0.0,0.0,0.0,0.0,0.0,0.0,0.0,0.0,0.0,0.0,0.0,0.0,0.0,0.0,0.0,0.0,0.0,0.0,0.0,0.0,0.0,0.0,0.0,0.0,0.0,0.0,0.0,0.0,0.0,0.0,0.0,0.0,0.0,0.0,0.0,0.0,0.0,0.0,0.0,0.0,0.0,0.0,0.0,-1.4429,0.0,0.0,0.0,0.0,0.0,0.0,0.0,0.0,0.0,0.0,0.0,0.0,0.0,0.0,0.0,0.0,0.0,0.0,0.0,0.0,0.0,0.0,0.0,0.0,0.0,0.0,0.0,0.0,0.0,0.0,0.0,0.0,0.0,0.0,0.0,0.0,0.0,0.0,0.0,0.0,0.0,-1.4935,-1.7446,-1.9101,-1.9101,-1.9101,-1.9101,-1.9101,-1.9101,-1.8506,-1.7084,0.0,0.0,0.0,0.0,0.0,0.0,0.0,0.0,0.0,0.0,0.0,0.0,0.0,0.0,0.0,0.0,0.0,0.0,0.0,0.0,0.0,0.0,0.0,0.0,0.0,0.0,0.0,0.0,0.0,0.0,0.0,0.0,0.0,0.0,0.0,0.0,0.0,0.0,0.0,0.0,0.0,0.0,0.0,0.0,0.0,0.0,0.0,0.0,0.0,0.0,0.0,0.0,0.0,0.0,0.0,0.0,0.0,0.0,0.0,0.0,0.0,-1.6452,0.0,0.0,0.0,0.0,0.0,0.0,0.0,0.0,0.0,0.0,0.0,0.0,0.0,0.0,0.0,0.0,0.0,0.0,0.0,0.0,0.0,0.0,0.0,0.0,0.0,0.0,0.0,0.0,0.0,0.0,0.0,0.0,0.0,0.0,0.0,0.0,0.0,0.0,0.0,0.0,-1.5574,-1.7708,-1.9101,-1.9101,-1.9101,-1.9101,-1.9101,-1.9101,-1.8695,-1.7751,-1.6764,0.0,0.0,0.0,0.0,0.0,0.0,0.0,0.0,0.0,0.0,0.0,0.0,0.0,0.0,0.0,0.0,0.0,0.0,0.0,0.0,0.0,0.0,0.0,0.0,0.0,0.0,0.0,0.0,0.0,0.0,0.0,0.0,0.0,0.0,0.0,0.0,0.0,0.0,0.0,0.0,0.0,0.0,0.0,0.0,0.0,0.0,0.0,0.0,0.0,0.0,0.0,0.0,0.0,-2.0988,-2.1875,-2.2869,-2.335,-2.3966,-2.4402,-2.1299,-2.0302,-2.0737,0.0,0.0,0.0,0.0,0.0,0.0,0.0,0.0,0.0,0.0,0.0,0.0,0.0,0.0,0.0,0.0,0.0,0.0,0.0,0.0,0.0,0.0,0.0,0.0,0.0,-1.8161,-1.875,0.0,0.0,0.0,0.0,0.0,0.0,0.0,0.0,0.0,0.0,0.0,0.0,-1.6372,-1.8143,-1.9275,-1.9275,-1.9275,-1.9232,-1.9116,-1.9101,-1.8883,-1.839,-1.7737,-1.6909,0.0,0.0,0.0,0.0,0.0,0.0,0.0,0.0,0.0,0.0,0.0,0.0,0.0,0.0,0.0,0.0,0.0,0.0,0.0,0.0,0.0,0.0,0.0,0.0,0.0,0.0,0.0,0.0,0.0,0.0,0.0,0.0,-0.9539,-1.0612,0.0,0.0,0.0,0.0,0.0,0.0,0.0,0.0,0.0,0.0,0.0,0.0,0.0,0.0,-2.1042,-2.2314,-2.3387,-2.425,-2.4868,-2.5247,-2.5402,-2.5486,-2.5865,-2.6427,-2.5936,0.0,-2.2634,-2.135,0.0,0.0,0.0,0.0,0.0,0.0,0.0,0.0,0.0,0.0,0.0,0.0,0.0,0.0,0.0,0.0,0.0,0.0,0.0,0.0,0.0,0.0,-1.9683,-1.9768,-2.0414,-2.0886,0.0,-1.7721,-1.5274,-1.4562,0.0,0.0,0.0,0.0,0.0,0.0,0.0,0.0,-1.7708,-1.913,-1.9972,-1.9972,-1.9972,-1.9725,-1.9145,-1.9101,-1.9072,-1.8985,-1.8419,-1.7998,-1.7824,-1.611,0.0,0.0,0.0,0.0,0.0,0.0,0.0,0.0,0.0,0.0,0.0,0.0,0.0,0.0,0.0,0.0,0.0,0.0,0.0,0.0,0.0,0.0,0.0,0.0,0.0,0.0,0.0,0.0,0.0,-0.9187,-1.0808,-1.176,-1.2347,-1.252,0.0,0.0,0.0,0.0,0.0,0.0,0.0,0.0,0.0,-1.9892,-2.1523,-2.2927,-2.4147,-2.503,-2.5839,-2.6582,-2.7172,-2.765,-2.7987,-2.8338,-2.8844,-2.942,-2.9055,-2.8085,-2.6596,-2.4671,-2.2774,-2.0948,0.0,0.0,0.0,0.0,-1.7436,-1.8143,-1.8762,-1.9437,0.0,0.0,0.0,0.0,0.0,0.0,0.0,0.0,0.0,0.0,0.0,0.0,0.0,-2.1833,-2.2419,-2.2893,-2.2965,-2.1338,-1.9317,0.0,-1.696,-1.6113,-1.381,0.0,0.0,0.0,0.0,0.0,-1.855,-1.9812,-2.0611,-2.0611,-2.0306,-1.9986,-1.9696,-1.9319,-1.9101,-1.9101,-1.8854,-1.8709,-1.8709,-1.7545,-1.6429,0.0,0.0,0.0,0.0,0.0,0.0,0.0,0.0,0.0,0.0,0.0,0.0,0.0,0.0,0.0,0.0,0.0,0.0,0.0,0.0,0.0,0.0,0.0,0.0,0.0,0.0,0.0,0.0,-1.086,-1.2372,-1.3446,-1.4469,-1.4917,0.0,0.0,0.0,0.0,0.0,0.0,-1.9231,-2.0798,-2.2123,-2.3125,-2.4984,-2.6258,-2.6835,-2.7621,-2.8254,-2.8762,-2.9673,-3.0347,-3.0825,-3.1752,-3.244,-3.2876,-3.2384,-3.1921,-3.1232,-2.779,-2.5359,-2.3702,-2.2658,-2.1566,-2.0617,-2.0771,-2.1426,-2.232,-2.2939,-2.3769,-2.4359,-2.3108,0.0,-2.1597,-1.9282,0.0,0.0,0.0,0.0,-1.9712,-2.0807,-2.2011,-2.3037,-2.3463,-2.3966,-2.4368,-2.451,-2.3925,-2.2649,0.0,-2.0,-1.9241,-1.6248,0.0,0.0,0.0,0.0,-1.897,-1.974,-2.0669,-2.1249,-2.1249,-2.0843,-2.0451,-2.0132,-1.9638,-1.9275,-1.9116,-1.9101,-1.9101,-1.9101,-1.868,-1.7896,-1.6735,0.0,0.0,0.0,0.0,0.0,0.0,0.0,0.0,0.0,0.0,0.0,0.0,0.0,0.0,0.0,0.0,0.0,0.0,0.0,0.0,0.0,0.0,0.0,0.0,0.0,0.0,0.0,0.0,0.0,-1.6563,-1.7814,0.0,0.0,0.0,0.0,-1.7952,-2.0158,-2.187,-2.263,-2.4005,-2.5303,-2.6512,-2.7832,-2.8802,-2.942,-3.0642,-3.1274,-3.1316,-3.3066,-3.3936,-3.4034,-3.5855,-3.6669,-3.6712,-3.6669,-3.6641,-3.615,-3.0182,-2.6947,-2.5697,-2.5077,-2.4416,-2.3923,-2.4514,-2.4767,-2.4908,-2.5486,-2.5753,-2.5879,-2.6371,-2.5345,-2.3923,-2.3769,-2.2067,0.0,0.0,-2.1533,-2.2165,-2.2788,-2.3923,-2.4866,-2.4908,-2.4936,-2.499,-2.5121,-2.4575,-2.3717,0.0,-2.1926,-2.1105,-1.9843,0.0,-1.9885,-1.9827,-1.9928,-2.0451,-2.1685,-2.1902,-2.1946,-2.1946,-2.1917,-2.1409,-2.0204,-2.0074,-1.9783,-1.9145,-1.9101,-1.9101,-1.9101,-1.9072,-1.8753,-1.8114,-1.6182,0.0,0.0,0.0,0.0,0.0,0.0,0.0,0.0,0.0,0.0,0.0,0.0,0.0,0.0,0.0,0.0,0.0,0.0,0.0,0.0,0.0,0.0,0.0,0.0,0.0,0.0,0.0,0.0,-1.8755,-1.9954,0.0,0.0,-2.1005,-2.156,-2.1932,-2.3168,-2.4355,-2.5363,-2.6666,-2.8127,-2.9771,-3.1021,-3.2159,-3.3206,-3.3656,-3.3895,-3.3888,-3.4548,-3.5264,-3.6023,-3.6683,-3.7467,-3.8213,-3.7751,-3.7569,-3.7372,-3.4773,-3.2988,-3.1822,-3.119,-2.9827,-2.8197,-2.8015,-2.7706,-2.7369,-2.7172,-2.7397,-2.7664,-2.7495,-2.6708,-2.5837,-2.5837,-2.4938,-2.4067,-2.4657,-2.4994,-2.5219,-2.543,-2.5823,-2.6062,-2.5655,-2.557,-2.5624,-2.5758,-2.5508,-2.5125,-2.4644,-2.3956,-2.2973,-2.1391,-2.1556,-2.1489,-2.0291,-2.0799,-2.1481,-2.1931,-2.233,-2.2577,-2.2577,-2.2236,-2.1815,-2.1365,-2.0567,-2.0001,-1.9754,-1.9333,-1.9101,-1.9101,-1.9101,-1.8999,-1.8782,-1.7301,-1.5908,0.0,0.0,0.0,0.0,0.0,0.0,0.0,0.0,0.0,0.0,0.0,0.0,0.0,0.0,0.0,0.0,0.0,0.0,0.0,0.0,0.0,0.0,0.0,0.0,0.0,0.0,-1.8803,-2.0589,-2.1961,-2.2762,-2.2831,-2.4021,-2.5114,-2.5893,-2.7088,-2.824,-2.9234,-3.0305,-3.1476,-3.2714,-3.3719,-3.4646,-3.5498,-3.5709,-3.5822,-3.5812,-3.6445,-3.7161,-3.7948,-3.858,-3.9325,-4.014,-3.9662,-3.9479,-3.9451,-3.9044,-3.8271,-3.7217,-3.5742,-3.4028,-3.2342,-3.1935,-3.1134,-3.0108,-2.9069,-2.883,-2.8942,-2.8535,-2.7959,-2.7439,-2.7439,-2.7017,-2.661,-2.7017,-2.713,-2.713,-2.713,-2.713,-2.6975,-2.6412,-2.6258,-2.6256,-2.6234,-2.6138,-2.6024,-2.5928,-2.5314,-2.4375,-2.3048,-2.3204,-2.3128,-2.1902,-2.2425,-2.2875,-2.2657,-2.3006,-2.3157,-2.2917,-2.2533,-2.2222,-2.2019,-2.1017,-2.032,-2.0117,-1.9464,-1.9101,-1.9101,-1.9101,-1.9101,-1.9101,-1.7853,-1.6559,-1.5283,0.0,0.0,0.0,0.0,0.0,0.0,0.0,0.0,0.0,0.0,0.0,0.0,0.0,0.0,0.0,0.0,0.0,0.0,0.0,0.0,0.0,0.0,0.0,-1.7141,-1.9038,-2.0915,-2.2212,-2.405,-2.4978,-2.4374,-2.7074,-2.9083,-2.9673,-3.1991,-3.3599,-3.4189,-3.4843,-3.5245,-3.5273,-3.5878,-3.6216,-3.6244,-3.6796,-3.7105,-3.7119,-3.8945,-3.9816,-3.9901,-4.1727,-4.2556,-4.2584,-4.2584,-4.2584,-4.2584,-4.2584,-4.2219,-4.1348,-3.8313,-3.6764,-3.6188,-3.6188,-3.4969,-3.3087,-3.1213,-3.0161,-2.9659,-2.9645,-2.9237,-2.8745,-2.8717,-2.831,-2.7862,-2.7862,-2.7862,-2.7862,-2.7833,-2.7833,-2.7694,-2.7173,-2.7032,-2.6917,-2.6603,-2.6406,-2.6326,-2.6457,-2.5905,-2.5303,-2.4906,-2.4839,-2.4853,-2.4878,-2.4839,0.0,-2.4007,-2.3905,-2.3659,-2.2989,-2.2902,-2.2664,-2.2077,-2.1394,-2.0741,-2.0175,-1.9478,-1.9116,-1.913,-1.913,-1.913,-1.913,-1.7911,-1.6634,-1.5356,0.0,0.0,0.0,0.0,0.0,0.0,0.0,0.0,0.0,0.0,0.0,0.0,0.0,0.0,0.0,0.0,0.0,0.0,0.0,0.0,0.0,0.0,-1.9091,-1.8732,-2.2333,-2.5305,-2.6174,-2.8282,-2.9662,-2.9462,-3.1021,-3.2117,-3.2252,-3.3761,-3.4767,-3.4936,-3.5513,-3.6258,-3.7119,-3.7805,-3.8564,-3.9423,-3.9592,-3.9676,-3.969,-4.0196,-4.0674,-4.1123,-4.1643,-4.2135,-4.2584,-4.2584,-4.2584,-4.2584,-4.2584,-4.2472,-4.2177,-4.0856,-3.9423,-3.8143,-3.8143,-3.636,-3.381,-3.2855,-3.1864,-3.0895,-3.0417,-3.0119,-2.994,-2.949,-2.9237,-2.9111,-2.9111,-2.9111,-2.8998,-2.8563,-2.8512,-2.8461,-2.7853,-2.7456,-2.7184,-2.7095,-2.6681,-2.6326,-2.6457,-2.6354,-2.6012,-2.5484,-2.5456,-2.5386,-2.495,-2.4878,0.0,-2.4655,-2.4196,-2.3818,-2.3644,-2.3186,-2.2815,-2.2678,-2.1641,-2.093,-2.0756,-1.9711,-1.9319,-1.9798,-1.9827,-1.9827,-1.9827,-1.8999,-1.7954,0.0,0.0,0.0,0.0,0.0,0.0,0.0,0.0,0.0,0.0,0.0,0.0,0.0,0.0,0.0,0.0,0.0,0.0,0.0,0.0,0.0,0.0,-2.0325,-2.2184,-2.2086,-2.5038,-2.7453,-2.8085,-3.0361,-3.1977,-3.223,-3.3607,-3.4688,-3.5208,-3.6388,-3.7242,-3.7496,-3.7847,-3.8341,-3.9044,-3.9437,-3.9971,-4.0688,-4.0702,-4.0702,-4.0702,-4.0702,-4.0884,-4.1221,-4.1221,-4.1432,0.0,-4.1797,-4.1797,-4.1797,-4.1797,-4.1797,0.0,0.0,0.0,0.0,0.0,-3.7948,-3.5981,-3.4576,-3.3283,-3.2117,-3.1218,-3.0937,-3.0853,-3.0502,-3.0207,-2.9996,-2.9996,-2.9799,-2.9532,-2.9167,-2.9116,-2.9052,-2.8519,-2.821,-2.8011,-2.7796,-2.7293,-2.6915,-2.6982,-2.6792,0.0,-2.6156,-2.6162,-2.6108,-2.5734,-2.5716,-2.5575,-2.5299,-2.4946,-2.4588,-2.4312,-2.394,-2.3621,-2.3345,-2.2374,0.0,0.0,0.0,-2.0074,-2.0465,-2.048,0.0,0.0,0.0,0.0,0.0,0.0,0.0,0.0,-1.7448,-1.799,0.0,0.0,0.0,0.0,0.0,0.0,0.0,0.0,0.0,0.0,0.0,0.0,0.0,0.0,0.0,0.0,-2.3189,-2.5358,-2.6006,-2.7242,-2.8368,-2.9026,-3.1302,-3.3087,-3.374,-3.5447,-3.6975,-3.8032,-3.9212,-4.0126,-4.0674,0.0,0.0,0.0,0.0,-4.0702,-4.0702,-4.0702,-4.0702,-4.0702,-4.0702,-4.0702,-4.0702,-4.0702,-4.0702,-4.0702,-4.0702,-4.0702,-4.0702,-4.0702,-4.0702,-4.0814,-4.2008,-4.2163,-4.1573,-4.0421,-3.9605,-3.8691,-3.6399,0.0,0.0,-3.2174,-3.171,-3.1583,-3.1513,-3.1092,-3.0582,-3.0512,-3.0091,-2.9701,-2.9631,-2.9602,-2.9524,-2.9141,-2.9092,-2.9012,-2.8627,-2.8135,-2.7782,-2.771,-2.7273,-2.6866,-2.682,-2.6806,-2.6806,-2.6806,-2.6806,-2.6602,-2.6006,-2.5861,-2.5575,-2.4984,0.0,0.0,-2.4051,-2.3389,-2.2751,-2.2149,-2.1481,-2.1104,-2.1104,-2.1177,-2.1177,-2.1104,-2.1177,-2.1177,-2.1104,-2.1249,-2.1509,-2.1813,-1.9673,-1.977,0.0,0.0,0.0,0.0,0.0,0.0,0.0,0.0,0.0,0.0,0.0,0.0,0.0,0.0,0.0,-2.3578,-2.4994,-2.6118,-2.7285,-2.89,-3.0417,-3.1555,-3.3859,-3.5798,-3.6908,-3.8257,-3.9156,-3.9395,-4.0097,-4.0575,-4.0688,-4.0702,0.0,-4.0702,-4.0702,-4.0702,-4.0702,-4.0702,-4.0702,-4.0702,0.0,0.0,-4.0702,-4.0702,-4.0702,-4.0702,-4.0702,-4.0702,-4.0702,-4.0702,-4.0702,-4.0772,-4.1516,-4.2036,-4.2303,-4.1545,-4.0561,-3.9507,-3.8522,-3.6708,-3.4711,-3.3944,-3.3031,-3.2145,-3.164,-3.1401,0.0,-3.0638,-3.0413,-3.0203,-2.9743,-2.9682,-2.9794,-2.9862,-2.9585,-2.9347,-2.9348,-2.8913,-2.8347,-2.7797,-2.7608,-2.7389,-2.6866,-2.6806,-2.6806,-2.6806,-2.6806,-2.6736,-2.6631,-2.6137,-2.5734,-2.5618,-2.5168,-2.482,-2.4636,-2.4065,-2.3441,-2.278,-2.2164,-2.1801,-2.1801,-2.2272,-2.2301,-2.1815,-2.2272,-2.2287,-2.1801,-2.2831,-2.3371,-2.3433,-2.2235,-2.2586,0.0,0.0,0.0,0.0,0.0,0.0,0.0,0.0,0.0,0.0,0.0,-1.8232,0.0,0.0,-2.3205,-2.5515,-2.668,-2.7509,-2.8141,-2.9293,-3.0385,-3.1359,-3.3649,-3.5756,-3.7302,-3.8285,-3.9226,-4.0168,-4.0519,-4.0702,-4.0702,-4.0702,-4.0702,-4.0702,-4.0702,-4.0702,-4.0702,-4.0702,-4.0702,-4.0702,-4.0702,-4.0702,-4.0702,-4.0702,-4.0702,-4.0702,-4.0702,-4.0702,-4.0702,-4.0702,-4.0702,-4.073,-4.1039,-4.1545,-4.205,-4.1727,-4.1221,-4.0561,-3.9634,-3.7932,-3.5963,-3.4997,-3.3859,-3.2806,-3.2497,-3.2188,-3.1878,-3.1555,-3.0975,-3.0413,-3.0119,-2.989,-2.9713,-2.9834,-2.9732,-2.9641,-2.9806,-2.9434,-2.8972,-2.871,-2.8391,-2.7998,-2.7374,-2.7258,-2.7157,-2.6837,-2.6806,-2.6806,-2.6806,-2.6515,-2.6312,-2.6312,-2.6036,-2.5691,-2.5342,-2.4733,-2.4215,-2.3911,-2.3615,-2.3441,-2.3389,-2.3708,-2.3775,-2.3455,-2.3708,-2.3708,-2.3389,-2.4027,-2.4331,-2.4355,-2.4195,-2.4522,0.0,0.0,0.0,0.0,0.0,0.0,0.0,0.0,-1.6992,-1.8271,-2.0224,-2.2101,-2.342,-2.4462,-2.5576,-2.6947,-2.8029,-2.8731,-2.8858,-2.9293,-2.9785,-3.0259,-3.2406,-3.4568,-3.6483,-3.7189,-3.8327,-4.0196,-4.0336,-4.0449,-4.0688,-4.0702,-4.0702,-4.0702,-4.0702,-4.0702,-4.0702,-4.0702,-4.0702,-4.0702,-4.0702,-4.0702,-4.0702,-4.0702,-4.0702,-4.0702,-4.0702,-4.0702,-4.0702,-4.0702,-4.0702,-4.0702,-4.0702,-4.0997,-4.1446,-4.1446,-4.1446,-4.1292,-4.0308,-3.865,-3.6824,-3.5878,-3.452,-3.329,-3.329,-3.2974,-3.2553,-3.244,-3.1668,-3.0806,-3.0554,-3.0119,-2.9757,-2.9662,-2.9699,-2.9853,-3.005,-2.9817,-2.9564,-2.9551,-2.9189,-2.8666,-2.8,-2.7884,-2.7665,-2.6895,-2.6806,-2.6806,-2.6806,-2.6806,-2.6806,-2.6806,-2.6806,-2.6588,-2.605,-2.5386,-2.5013,-2.5067,-2.495,-2.4863,-2.481,-2.4863,-2.4892,-2.4892,-2.4955,-2.4998,-2.4998,-2.5129,-2.5187,-2.5201,-2.5734,-2.5893,-1.086,-1.1645,-1.308,-1.5407,-1.6104,-1.701,0.0,0.0,-2.2269,-2.3147,-2.4392,-2.553,-2.6245,-2.6484,-2.6989,-2.8282,-2.8605,-2.8886,-2.942,-2.956,-2.9645,-2.9701,-3.1429,-3.334,-3.5217,-3.5949,-3.7088,-3.8972,-3.9113,-3.9591,-4.0631,-4.0702,-4.0702,-4.0702,-4.0702,-4.0702,-4.0702,-4.0702,-4.0702,-4.0702,-4.0702,-4.0702,-4.0702,-4.0702,-4.0702,-4.0702,-4.0702,-4.0702,-4.0702,-4.0702,-4.0702,-4.0702,-4.0702,-4.0744,-4.08,-4.08,-4.08,-4.0786,-4.0645,-3.9016,-3.6964,-3.6824,-3.5208,-3.329,-3.329,-3.3234,-3.3066,-3.2553,-3.23,-3.1935,-3.0778,-3.0441,-3.0277,-2.9888,-2.9777,-2.9853,-3.005,-3.0162,-3.0053,-2.952,-2.9479,-2.9319,-2.8681,-2.8607,-2.8186,-2.6994,-2.6806,-2.6806,-2.6806,-2.6806,-2.6806,-2.6806,-2.6806,-2.6777,-2.6678,-2.6054,-2.5676,-2.5716,-2.5154,-2.481,-2.481,-2.4863,-2.4892,-2.4892,-2.5415,-2.5676,-2.5676,-2.6286,-2.6562,-2.6562,-2.6634,-2.6608,-1.514,-1.6166,0.0,0.0,-1.9898,-2.1189,-2.2591,-2.3719,-2.4713,-2.5515,-2.6371,-2.7172,-2.779,-2.7902,-2.8197,0.0,-2.9223,-2.9307,-2.956,-2.9602,-2.9602,-2.9602,-3.0305,-3.1654,-3.3874,-3.4646,-3.577,-3.7625,-3.8494,-3.9127,-3.9606,-4.0308,-4.0702,-4.0702,-4.0702,-4.0702,-4.0702,-4.0702,-4.0702,-4.0702,-4.0702,-4.0702,-4.0702,-4.0702,-4.0702,-4.0702,-4.0702,-4.0702,-4.0702,-4.0702,-4.0702,-4.0702,-4.0702,-4.0702,-4.0702,-4.0702,-4.0702,-4.0702,-4.0702,-3.955,-3.8002,-3.7217,-3.5798,-3.4253,-3.3536,-3.329,-3.3234,-3.3002,-3.2679,-3.2286,-3.1752,-3.1359,-3.0923,-3.0341,-3.0217,-3.0182,-3.0135,-3.0127,-3.0178,-3.01,-3.0146,-2.9972,-2.9334,-2.9232,-2.8913,-2.8055,-2.7563,-2.7331,-2.7331,-2.7012,-2.6806,-2.6806,-2.6806,-2.6806,-2.6806,-2.6559,-2.6384,-2.6384,-2.6112,-2.5966,-2.5966,-2.5981,-2.6021,-2.6021,-2.6242,-2.6384,-2.6373,-2.7026,-2.7331,-2.7345,-2.7708,-2.7886,-1.8043,0.0,0.0,-2.1195,-2.2859,-2.4286,-2.4506,-2.5535,-2.6623,-2.7213,-2.7706,-2.8199,-2.8605,-2.8549,0.0,-2.9251,-2.949,-2.9602,-2.9602,-2.9757,-2.9799,-2.9631,-2.9602,-3.0445,-3.2609,-3.3178,-3.4309,-3.637,-3.7678,-3.8536,-3.8888,-4.0027,-4.0702,-4.0702,-4.0702,-4.0702,-4.0702,-4.0702,-4.0702,-4.0702,-4.0702,-4.0702,-4.0702,-4.0702,-4.0702,-4.0702,-4.0702,-4.0702,-4.0702,-4.0702,-4.0702,-4.0702,-4.0702,-4.0702,-4.0702,-4.0702,-4.0702,-4.0702,-4.0702,-3.9901,-3.8705,-3.7386,-3.6188,-3.4964,-3.3691,-3.329,-3.329,-3.329,-3.3002,-3.2623,-3.244,-3.2075,-3.1583,-3.0937,-3.0688,-3.0531,-3.0344,-3.0225,-3.0219,-3.0477,-3.0568,-3.0467,-2.9972,-2.9885,-2.9726,-2.9305,-2.8652,-2.8159,-2.7985,-2.7432,-2.6968,-2.6835,-2.6806,-2.6806,-2.6806,-2.6806,-2.6806,-2.6806,-2.6806,-2.6806,-2.6806,-2.6806,-2.6866,-2.7041,-2.7041,-2.7128,-2.7343,-2.7766,-2.7998,-2.7971,-2.8463,-2.8796,0.0,0.0,-2.0816,-2.3052,-2.4565,-2.5744,-2.654,-2.7706,-2.8605,-2.8633,-2.8647,-2.8675,-2.8689,-2.8227,-2.803,-2.8619,-2.9223,-2.9602,-2.9602,-3.0091,-3.0245,-2.9673,-2.9602,-3.0122,0.0,-3.1555,-3.2581,-3.5062,-3.6385,-3.7622,-3.8846,-4.0027,-4.0702,-4.0702,-4.0702,-4.0702,-4.0702,-4.0702,-4.0702,-4.0702,-4.0702,-4.0702,-4.0702,-4.0702,-4.0702,-4.0702,-4.0702,-4.0702,-4.0702,-4.0702,-4.0702,-4.0702,-4.0702,-4.0702,-4.0702,-4.0702,-4.0702,-4.0702,-4.0702,-3.9901,-3.8705,-3.7386,-3.6188,-3.4964,-3.3691,-3.329,-3.329,-3.329,-3.3276,-3.3122,-3.2553,-3.2398,-3.2216,-3.1612,-3.111,-3.0786,-3.0789,-3.0511,-3.0296,-3.0312,-3.0477,-3.0598,-3.0583,-3.0583,-3.0569,-3.0554,-2.9972,-2.932,-2.8724,-2.81,-2.7434,-2.6852,-2.6806,-2.6806,-2.6806,-2.6806,-2.6806,-2.6806,-2.6806,-2.6806,-2.6806,-2.6806,-2.7084,-2.7666,-2.7666,-2.7971,-2.8651,-2.8665,-2.868,-2.868,-2.8694,-2.9,0.0,0.0,-2.3632,-2.5338,-2.6693,-2.7716,-2.8015,-2.8703,-2.9181,-2.8774,-2.8366,-2.7988,-2.7523,-2.727,-2.734,-2.8016,-2.8942,-2.9757,-3.0119,-3.0769,-3.0923,-3.0259,-3.06,0.0,0.0,0.0,0.0,-3.3775,-3.5447,-3.6778,-3.7608,-3.9578,-4.0702,-4.0702,-4.0702,-4.0702,-4.0702,-4.0702,-4.0702,-4.0702,-4.0702,-4.0702,-4.0702,-4.0702,-4.0702,-4.0702,-4.0702,-4.0702,-4.0702,-4.0702,-4.0702,-4.0702,-4.0702,-4.0702,-4.0702,-4.0702,-4.0702,-4.0702,-4.0702,-4.0421,-3.9732,-3.7653,-3.675,-3.6019,-3.3944,-3.329,-3.329,-3.329,-3.329,-3.3234,-3.3073,-3.3016,-3.2897,-3.2413,-3.2169,-3.1886,-3.1271,-3.1039,-3.0875,-3.0564,-3.0538,-3.0598,-3.0598,-3.0598,-3.0598,-3.0598,-3.0031,-2.9392,-2.8796,-2.8492,-2.8274,-2.8084,-2.807,-2.807,-2.807,-2.807,-2.807,-2.807,-2.807,-2.807,-2.807,-2.807,-2.8171,-2.8361,-2.8361,-2.8463,-2.8709,-2.9102,-2.9305,-2.9319,-2.974,-3.0089,0.0,-2.4371,-2.5674,-2.7115,-2.8254,-2.9012,-2.9012,-2.9153,-2.904,-2.8197,-2.7355,-2.6539,-2.564,-2.5303,-2.5584,-2.6919,-2.8141,-2.9321,-3.0343,-3.1274,-3.1583,-3.0937,-3.1232,0.0,0.0,0.0,0.0,-3.3164,-3.5236,-3.661,-3.6964,-3.9339,-4.0702,-4.0702,-4.0702,-4.0702,-4.0702,-4.0702,-4.0702,-4.0702,-4.0702,-4.0702,-4.0702,-4.0702,-4.0702,-4.0702,-4.0702,-4.0702,-4.0702,-4.0702,-4.0702,-4.0702,-4.0702,-4.0702,-4.0702,-4.0702,-4.0702,-4.0702,-4.0702,-4.0702,-4.0364,-3.8327,-3.7358,-3.6613,-3.459,-3.3663,-3.329,-3.329,-3.329,-3.329,-3.329,-3.3361,-3.3332,-3.3075,-3.2942,-3.2711,-3.2123,-3.1841,-3.1575,-3.1047,-3.0916,-3.0843,-3.0641,-3.0598,-3.0598,-3.0598,-3.0219,-2.974,-2.9102,-2.9015,-2.8927,-2.8723,-2.8709,-2.8709,-2.8709,-2.8709,-2.8709,-2.8709,-2.8709,-2.8709,-2.8709,-2.8709,-2.8811,-2.9015,-2.9015,-2.9131,-2.9392,-2.9769,-2.9972,-2.9972,-3.0409,-3.0598,-2.4234,-2.5689,-2.697,-2.8406,-2.9181,-2.9602,-2.956,-2.9055,-2.824,-2.6975,-2.5711,-2.4472,0.0,0.0,-2.3037,-2.5416,-2.699,-2.8493,-3.0287,-3.162,-3.2216,0.0,0.0,0.0,0.0,0.0,0.0,-3.3326,0.0,-3.695,-3.6978,-3.9339,-4.0702,-4.0702,-4.0702,-4.0702,-4.0702,-4.0702,-4.0702,-4.0702,-4.0702,-4.0702,-4.0702,-4.0702,-4.0702,-4.0702,-4.0702,-4.0702,-4.0702,-4.0702,-4.0702,-4.0702,-4.0702,-4.0702,-4.0702,-4.0702,-4.0702,-4.0702,-4.0702,-4.0702,-4.0491,-3.931,-3.8058,-3.6754,-3.5569,-3.4295,-3.329,-3.329,-3.329,-3.329,-3.3326,-3.3466,-3.3605,-3.3605,-3.3411,-3.3221,-3.3225,-3.2862,-3.2367,-3.1669,-3.1509,-3.1322,-3.0757,-3.0627,-3.0598,-3.0598,-3.0598,-3.0364,-2.9726,-2.9639,-2.9435,-2.8869,-2.8811,-2.8811,-2.8811,-2.8811,-2.8811,-2.8811,-2.8811,-2.8811,-2.8811,-2.8811,-2.9058,-2.9639,-2.9639,-2.9972,-3.0598,-3.0598,-3.0598,-3.0598,-3.0598,-3.0627,-2.5826,-2.717,-2.8334,-2.9181,-2.949,-2.949,-2.9026,-2.8071,-2.6947,-2.5697,-2.4106,-2.2545,0.0,0.0,0.0,-2.4374,-2.7158,0.0,-3.105,-3.2314,0.0,0.0,0.0,-3.2736,-3.244,-3.2679,0.0,0.0,-3.5723,-3.6539,-3.6964,-3.9339,-4.0702,-4.0702,-4.0702,-4.0702,-4.0702,-4.0702,-4.0702,-4.0702,-4.0702,-4.0702,-4.0702,-4.0702,-4.0702,-4.0702,-4.0702,-4.0702,-4.0702,-4.0702,-4.0702,-4.0702,-4.0702,-4.0702,-4.0702,-4.0702,-4.0702,-4.0702,-4.0702,-4.0702,-4.0491,-3.931,-3.8058,-3.6754,-3.5569,-3.4295,-3.329,-3.329,-3.329,-3.3326,-3.3466,-3.357,-3.3675,-3.3888,-3.391,-3.3802,-3.3506,-3.334,-3.3035,-3.2396,-3.1828,-3.1437,-3.1308,-3.0887,-3.0598,-3.0598,-3.0598,-3.0539,-3.038,-3.0335,-3.0307,-3.0133,-3.0118,-3.0118,-3.0118,-3.0118,-3.0118,-3.0118,-3.0118,-3.0118,-3.0118,-3.0118,-3.0205,-3.0321,-3.0335,-3.0438,-3.0598,-3.0598,-3.0598,-3.0598,-3.0598,-3.0829,-2.7199,-2.8352,-2.9181,-2.9532,-2.9406,-2.897,-2.8071,-2.6905,-2.543,-2.3393,-2.1903,0.0,0.0,0.0,0.0,0.0,0.0,0.0,-3.0769,-3.2131,-3.289,0.0,-3.3066,0.0,-3.2848,-3.3607,-3.4444,0.0,-3.6005,-3.6905,-3.7805,-3.9648,-4.0702,-4.0702,-4.0702,-4.0702,-4.0702,-4.0969,-4.0969,-4.0702,-4.0969,-4.0969,-4.0702,-4.0702,-4.0702,-4.0702,0.0,-4.0702,-4.0702,-4.0702,-4.0702,-4.0702,-4.0702,-4.0702,-4.0702,-4.0702,-4.0702,-4.0702,-4.0702,-4.0702,-4.0589,-3.9901,-3.8874,-3.7608,-3.637,-3.5133,-3.4014,-3.348,-3.329,-3.3326,-3.3431,-3.3605,-3.3779,-3.3985,-3.4108,-3.4177,-3.3949,-3.3877,-3.3703,-3.305,-3.2411,-3.1828,-3.1538,-3.1221,-3.0901,-3.0641,-3.0598,-3.0598,-3.0598,-3.0598,-3.0598,-3.0598,-3.0598,-3.0598,-3.0598,-3.0598,-3.0598,-3.0598,-3.0598,-3.0598,-3.0598,-3.0598,-3.0598,-3.0598,-3.0598,-3.0598,-3.0598,-3.0858,-3.0988,-3.0988,-3.1293,-3.1613,-2.8324,-2.9195,-2.9602,-2.9602,-2.9083,-2.824,-2.6975,-2.5542,-2.3713,-2.085,0.0,0.0,-1.6986,0.0,-1.9417,-2.1814,0.0,-2.6975,-3.0062,-3.1541,-3.2539,-3.3206,-3.329,-3.329,-3.329,-3.4472,-3.5259,-3.5428,-3.6581,-3.7709,-3.8846,-4.0027,-4.0702,-4.0702,-4.0702,-4.0702,-4.0702,-4.1221,-4.1221,-4.0702,-4.1235,-4.1221,-4.0702,-4.0702,-4.0702,-4.0702,0.0,0.0,-4.0702,-4.0702,-4.0702,-4.0702,-4.0702,-4.0702,-4.0702,-4.0702,-4.0702,-4.0702,-4.0702,-4.0702,-4.0702,-4.0702,-3.9859,-3.8663,-3.7372,-3.6174,-3.4936,-3.3663,-3.329,-3.3326,-3.3361,-3.364,-3.3896,-3.3965,-3.4191,-3.4414,-3.4414,-3.4414,-3.4254,-3.3736,-3.3079,-3.2454,-3.1888,-3.1683,-3.1424,-3.083,-3.0728,-3.0699,-3.0612,-3.0598,-3.0598,-3.0598,-3.0598,-3.0598,-3.0598,-3.0598,-3.0598,-3.0598,-3.0598,-3.0598,-3.0598,-3.0598,-3.0641,-3.0728,-3.0728,-3.0772,-3.0859,-3.138,-3.1625,-3.164,-3.222,-3.2571,-2.9083,-2.9532,-2.9602,-2.9602,-2.8759,-2.7636,-2.6343,-2.3923,0.0,0.0,0.0,-1.7056,-1.6765,-1.8077,0.0,-2.1884,0.0,0.0,0.0,0.0,-3.2075,0.0,0.0,0.0,0.0,0.0,0.0,0.0,0.0,0.0,-3.8902,-4.0027,-4.0702,-4.0702,-4.0702,-4.0702,-4.0702,-4.08,-4.08,-4.0702,-4.0814,-4.08,-4.0702,-4.0702,-4.0702,-4.0702,-4.0702,0.0,-4.0702,-4.0702,-4.0702,-4.0702,-4.0702,-4.0702,-4.0702,-4.0702,-4.0702,-4.0702,-4.0702,-4.0702,-4.0702,-4.0702,-3.9859,-3.8663,-3.7372,-3.6174,-3.4936,-3.3663,-3.329,-3.3396,-3.3709,-3.3862,-3.3965,-3.4244,-3.4346,-3.4414,-3.4414,-3.4414,-3.4385,-3.4269,-3.3746,-3.33,-3.3184,-3.2687,-3.2089,-3.1453,-3.1351,-3.1163,-3.067,-3.0598,-3.0598,-3.0598,-3.0598,-3.0598,-3.0598,-3.0598,-3.0598,-3.0598,-3.0598,-3.0598,-3.0598,-3.0598,-3.0814,-3.1337,-3.1351,-3.1627,-3.2179,-3.2295,-3.2338,-3.2321,-3.2469,-3.2803,-2.8886,-2.9364,-2.9602,-2.9602,-2.8436,-2.6863,-2.533,0.0,0.0,0.0,0.0,-1.6087,-1.5764,0.0,0.0,0.0,0.0,0.0,0.0,0.0,0.0,0.0,0.0,0.0,0.0,0.0,0.0,0.0,0.0,0.0,-3.9816,-4.0378,-4.0702,-4.0702,-4.0702,-4.0702,-4.0702,-4.1011,-4.1011,-4.0702,-4.1025,-4.0997,-4.0702,-4.0702,-4.0702,-4.0702,-4.0702,0.0,-4.0702,-4.0702,-4.0702,-4.0702,-4.0702,-4.0702,-4.0702,-4.0702,-4.0702,-4.0702,-4.0702,-4.0702,-4.0702,-4.0702,-4.0308,-3.9592,-3.8382,-3.713,-3.5892,-3.4618,-3.3817,-3.3361,-3.3536,-3.3675,-3.3813,-3.4088,-3.4278,-3.4414,-3.4414,-3.4414,-3.4414,-3.4414,-3.4167,-3.3862,-3.3547,-3.3209,-3.2788,-3.2135,-3.2002,-3.1932,-3.1627,-3.1584,-3.1322,-3.067,-3.0598,-3.0598,-3.0598,-3.0598,-3.0598,-3.0598,-3.0598,-3.0598,-3.0598,-3.0887,-3.1206,-3.148,-3.1828,-3.2162,-3.2481,-3.2846,-3.3021,-3.3021,-3.3354,-3.3659,-2.8493,-2.9139,-2.9574,-2.9448,-2.8001,-2.6132,-2.4303,-2.1884,0.0,0.0,0.0,-1.5396,-1.5059,0.0,0.0,0.0,0.0,0.0,0.0,0.0,0.0,0.0,0.0,0.0,0.0,0.0,0.0,0.0,0.0,0.0,-4.0702,-4.0702,-4.0702,-4.0702,-4.0702,-4.0702,-4.0702,-4.1179,-4.1179,-4.0702,-4.1193,-4.1165,-4.0702,-4.0702,-4.0702,-4.0702,-4.0702,0.0,0.0,-4.0702,-4.0702,-4.0702,-4.0702,-4.0702,-4.0702,-4.0702,-4.0702,-4.0702,-4.0702,-4.0702,-4.0702,-4.0702,-4.0702,-4.0463,-3.9282,-3.803,-3.6764,-3.5541,-3.4267,-3.3326,-3.3361,-3.3501,-3.3709,-3.3951,-3.4225,-3.4414,-3.4414,-3.4414,-3.4414,-3.4414,-3.4414,-3.4254,-3.3779,-3.3707,-3.3456,-3.2817,-3.2716,-3.2672,-3.2527,-3.2481,-3.2135,-3.1105,-3.1019,-3.1019,-3.1019,-3.1019,-3.1019,-3.1019,-3.1019,-3.1019,-3.1019,-3.1467,-3.177,-3.1932,-3.2454,-3.2788,-3.2901,-3.3427,-3.3707,-3.3707,-3.4182,-3.4414,-2.8366,-2.9139,-2.9476,-2.8914,-2.7369,-2.5486,-2.3617,0.0,0.0,0.0,-1.5721,-1.5033,-1.5536,0.0,0.0,0.0,0.0,0.0,0.0,0.0,0.0,0.0,0.0,0.0,0.0,0.0,0.0,0.0,0.0,0.0,0.0,-4.0702,-4.0702,-4.0702,-4.0702,-4.0702,-4.0702,-4.0758,-4.0744,-4.0702,-4.0758,-4.0744,-4.0702,-4.0702,-4.0702,-4.0702,-4.0702,0.0,0.0,-4.0702,-4.0702,-4.0702,-4.0702,-4.0702,-4.0702,-4.0702,-4.0702,-4.0702,-4.0702,-4.0702,-4.0702,-4.0702,-4.0702,-4.0463,-3.9282,-3.803,-3.6764,-3.5541,-3.4267,-3.3361,-3.3536,-3.3709,-3.3951,-3.4293,-3.438,-3.4414,-3.4414,-3.4414,-3.4414,-3.4414,-3.4414,-3.4385,-3.4341,-3.4327,-3.4109,-3.3518,-3.3416,-3.3198,-3.2585,-3.2481,-3.2452,-3.2353,-3.2338,-3.2338,-3.2338,-3.2338,-3.2338,-3.2338,-3.2338,-3.2338,-3.2338,-3.2365,-3.2701,-3.33,-3.3387,-3.3674,-3.424,-3.4298,-3.4327,-3.4327,-3.4385,-3.4414,-2.6778,-2.8015,-2.89,-2.8296,-2.6764,-2.4952,-2.3449,0.0,0.0,-1.6877,-1.5679,-1.4878,-1.5101,-1.5452,-1.6154,0.0,0.0,0.0,0.0,0.0,0.0,0.0,0.0,0.0,0.0,0.0,0.0,0.0,0.0,0.0,0.0,-4.0702,-4.0702,-4.0702,-4.0702,-4.0702,-4.0702,-4.0702,-4.0702,-4.0702,-4.0702,-4.0702,-4.0702,-4.0702,-4.0702,-4.0702,-4.0702,0.0,0.0,-4.0702,-4.0702,-4.0702,-4.0702,-4.0702,-4.0702,-4.0702,-4.0702,-4.0702,-4.0702,-4.0702,-4.0702,-4.0702,-4.0702,-4.0603,-4.0112,-3.91,-3.7889,-3.6638,-3.5414,-3.4289,-3.3593,-3.364,-3.3951,-3.4176,-3.4312,-3.4414,-3.4414,-3.4414,-3.4414,-3.4414,-3.4414,-3.4414,-3.4414,-3.4414,-3.4327,-3.408,-3.4037,-3.3949,-3.3688,-3.3659,-3.3659,-3.3659,-3.2945,-3.2481,-3.2481,-3.2481,-3.2481,-3.2481,-3.2481,-3.2481,-3.2481,-3.289,-3.3242,-3.3489,-3.3848,-3.4167,-3.4414,-3.4414,-3.4414,-3.4414,-3.4414,-3.4414,-2.5161,-2.6708,-2.7945,-2.7186,-2.585,-2.4317,0.0,0.0,-1.7379,-1.6564,-1.5553,-1.4808,-1.4808,-1.5144,-1.5705,0.0,0.0,0.0,0.0,0.0,0.0,0.0,0.0,0.0,0.0,0.0,0.0,0.0,0.0,0.0,0.0,-4.0702,-4.0702,-4.0702,-4.0702,-4.0702,-4.0702,-4.0702,-4.0702,-4.0702,-4.0702,-4.0702,-4.0702,-4.0702,-4.0702,-4.0702,0.0,0.0,0.0,-4.0702,-4.0702,-4.0702,-4.0702,-4.0702,-4.0702,-4.0702,-4.0702,-4.0702,-4.0702,-4.0702,-4.0702,-4.0702,-4.0702,-4.0702,-4.0702,-3.9845,-3.8649,-3.7344,-3.5878,-3.4444,-3.3691,-3.3675,-3.3951,-3.4128,-3.4312,-3.4414,-3.4414,-3.4414,-3.4414,-3.4414,-3.4414,-3.4414,-3.4414,-3.4414,-3.4414,-3.4414,-3.4414,-3.4414,-3.4414,-3.4414,-3.4414,-3.4414,-3.3616,-3.3079,-3.3079,-3.3079,-3.3079,-3.3079,-3.3079,-3.3079,-3.3079,-3.3514,-3.3779,-3.3779,-3.4182,-3.4414,-3.4414,-3.4414,-3.4414,-3.4414,-3.4414,-3.4414,-2.3769,-2.5456,-2.654,-2.5344,-2.4556,-2.3459,0.0,-1.8967,-1.7239,-1.5972,-1.5214,-1.4808,-1.4808,-1.4808,-1.5216,-1.6497,-1.7211,0.0,0.0,0.0,0.0,0.0,0.0,0.0,0.0,0.0,0.0,0.0,0.0,0.0,0.0,-4.0702,-4.0702,-4.0702,-4.0702,-4.0702,-4.0702,-4.0702,-4.0702,-4.0702,-4.0702,-4.0702,-4.0702,-4.0702,-4.0702,0.0,0.0,0.0,0.0,-4.0702,-4.0702,-4.0702,-4.0702,-4.0702,-4.0702,-4.0702,-4.0702,-4.0702,-4.0702,-4.0702,-4.0702,-4.0702,-4.0702,-4.0702,-4.0702,-3.9845,-3.8649,-3.7344,-3.5222,-3.341,-3.3793,-3.3896,-3.3985,-3.4312,-3.4414,-3.4414,-3.4414,-3.4414,-3.4414,-3.4414,-3.4414,-3.4414,-3.4414,-3.4414,-3.4414,-3.4414,-3.4414,-3.4414,-3.4414,-3.4414,-3.4414,-3.4414,-3.4399,-3.4385,-3.4385,-3.4385,-3.4385,-3.4385,-3.4385,-3.4385,-3.4385,-3.4399,-3.4399,-3.4399,-3.4414,-3.4414,-3.4414,-3.4414,-3.4414,-3.4414,-3.4414,-3.4414,-2.0771,-2.224,-2.3364,-2.2156,-2.1707,-2.1131,-1.9487,-1.7998,-1.6733,-1.5873,-1.5214,-1.4808,-1.4808,-1.4808,-1.5497,-1.759,-1.8077,0.0,0.0,0.0,0.0,0.0,0.0,0.0,0.0,0.0,0.0,0.0,0.0,0.0,0.0,-4.0702,-4.0702,-4.0702,-4.0702,-4.0702,-4.0702,-4.0702,-4.0702,-4.0702,-4.0702,-4.0702,-4.0702,-4.0702,0.0,0.0,0.0,0.0,0.0,-4.0702,-4.0702,-4.0702,-4.0702,-4.0702,-4.0702,-4.0702,-4.0702,-4.0702,-4.0702,-4.0702,-4.0702,-4.0702,-4.0702,-4.0702,-4.0702,-4.0421,-3.9676,-3.7569,-3.5208,-3.3396,-3.3793,-3.3896,-3.3985,-3.4312,-3.4414,-3.4414,-3.4414,-3.4414,-3.4414,-3.4414,-3.4414,-3.4414,-3.4414,-3.4414,-3.4414,-3.4414,-3.4414,-3.4414,-3.4414,-3.4414,-3.4414,-3.4414,-3.4414,-3.4414,-3.4414,-3.4414,-3.4414,-3.4414,-3.4414,-3.4414,-3.4414,-3.4414,-3.4414,-3.4414,-3.4414,-3.4414,-3.4414,-3.4414,-3.4414,-3.4414,-3.4414,-3.4414,0.0,-1.974,-2.0906,-1.9936,-1.9683,-1.936,-1.811,-1.7042,-1.6143,-1.548,-1.5059,-1.4808,-1.4808,-1.4808,-1.5469,-1.7492,-1.7829,0.0,0.0,0.0,0.0,0.0,0.0,0.0,0.0,0.0,0.0,0.0,0.0,0.0,0.0,0.0,-4.0702,-4.0702,-4.0702,-4.0702,-4.0702,-4.0702,-4.0702,-4.0702,-4.0702,-4.0702,-4.0702,-4.0702,0.0,0.0,0.0,0.0,0.0,-4.0702,-4.0702,-4.0702,-4.0702,-4.0702,-4.0702,-4.0702,-4.0702,-4.0702,-4.0702,-4.0702,-4.0702,-4.0702,-4.0702,-4.0702,-4.0702,-4.0378,-3.9578,-3.7555,-3.5545,-3.4009,-3.3907,-3.3896,-3.3985,-3.4312,-3.4414,-3.4414,-3.4414,-3.4414,-3.4414,-3.4414,-3.4414,-3.4414,-3.4414,-3.4414,-3.4414,-3.4414,-3.4414,-3.4414,-3.4414,-3.4414,-3.4414,-3.4414,-3.4414,-3.4414,-3.4414,-3.4414,-3.4414,-3.4414,-3.4414,-3.4414,-3.4414,-3.4414,-3.4414,-3.4414,-3.4414,-3.4414,-3.4414,-3.4414,-3.4414,-3.4414,-3.4414,-3.4414,0.0,-1.7674,-1.8863,-1.8259,-1.8161,-1.7922,-1.6779,-1.6087,0.0,-1.4921,-1.4808,-1.4836,-1.4921,-1.4907,-1.5328,-1.6719,-1.7004,0.0,0.0,0.0,0.0,0.0,0.0,0.0,0.0,0.0,0.0,0.0,0.0,0.0,0.0,0.0,-4.0702,-4.0702,-4.0702,-4.0702,-4.0702,-4.0702,-4.0702,-4.0702,-4.0702,-4.0702,-4.0702,-4.0702,0.0,0.0,0.0,0.0,0.0,-4.0702,-4.0702,-4.0702,-4.0702,-4.0702,-4.0702,-4.0702,-4.0702,-4.0702,-4.0702,-4.0702,-4.0702,-4.0702,-4.0702,-4.0702,-4.0702,-3.9845,-3.8649,-3.7344,-3.6131,-3.5018,-3.4141,-3.3896,-3.3985,-3.4312,-3.4414,-3.4414,-3.4414,-3.4414,-3.4414,-3.4414,-3.4414,-3.4414,-3.4414,-3.4414,-3.4414,-3.4414,-3.4414,-3.4414,-3.4414,-3.4414,-3.4414,-3.4414,-3.4414,-3.4414,-3.4414,-3.4414,-3.4414,-3.4414,-3.4414,-3.4414,-3.4414,-3.4414,-3.4414,-3.4414,-3.4414,-3.4414,-3.4414,-3.4414,-3.4414,-3.4414,-3.4414,-3.4414,-1.2982,0.0,-1.5047,-1.4444,-1.4977,-1.5469,0.0,-1.5159,-1.5536,-1.4921,0.0,0.0,-1.6059,-1.5834,-1.6379,0.0,0.0,0.0,0.0,0.0,0.0,0.0,0.0,0.0,0.0,0.0,0.0,0.0,0.0,0.0,0.0,0.0,-4.0702,-4.0702,-4.0702,-4.0702,-4.0702,-4.0702,-4.0702,-4.0702,-4.0702,-4.0702,-4.0702,-4.0702,0.0,0.0,0.0,0.0,-4.0702,-4.0702,-4.0702,-4.0702,-4.0702,-4.0702,-4.0702,-4.0702,-4.0702,-4.0702,-4.0702,-4.0702,-4.0702,-4.0702,-4.0702,-4.0702,-4.0702,-3.9845,-3.8649,-3.7344,-3.6131,-3.5018,-3.4141,-3.3896,-3.3985,-3.4312,-3.4414,-3.4414,-3.4414,-3.4414,-3.4414,-3.4414,-3.4414,-3.4414,-3.4414,-3.4414,-3.4414,-3.4414,-3.4414,-3.4414,-3.4414,-3.4414,-3.4414,-3.4414,-3.4414,-3.4414,-3.4414,-3.4414,-3.4414,-3.4414,-3.4414,-3.4414,-3.4414,-3.4414,-3.4414,-3.4414,-3.4414,-3.4414,-3.4414,-3.4414,-3.4414,-3.4414,-3.4414,-3.4414,-1.1591,-1.2912,-1.4218,-1.391,-1.4527,-1.5129,-1.4808,0.0,0.0,0.0,0.0,0.0,0.0,0.0,0.0,0.0,0.0,0.0,0.0,0.0,0.0,0.0,0.0,0.0,0.0,0.0,0.0,0.0,0.0,0.0,0.0,0.0,-4.0229,-4.0702,-4.0229,-4.0229,-4.0702,-4.0702,-4.0702,-4.0702,-4.0702,-4.0702,-4.0702,-4.0702,-4.0702,0.0,0.0,0.0,-4.0702,-4.0702,-4.0702,-4.0702,-4.0702,-4.0702,-4.0702,-4.0702,-4.0702,-4.0702,-4.0702,-4.0702,-4.0702,-4.0702,-4.0702,-4.0702,-4.0702,-4.0224,-3.9325,-3.7498,-3.6539,-3.57,-3.4263,-3.3896,-3.3985,-3.4312,-3.4414,-3.4414,-3.4414,-3.4414,-3.4414,-3.4414,-3.4414,-3.4414,-3.4414,-3.4414,-3.4414,-3.4414,-3.4414,-3.4414,-3.4414,-3.4414,-3.4414,-3.4414,-3.4414,-3.4414,-3.4414,-3.4414,-3.4414,-3.4414,-3.4414,-3.4414,-3.4414,-3.4414,-3.4414,-3.4414,-3.4414,-3.4414,-3.4414,-3.4414,-3.4414,-3.4414,-3.4414,-3.4414,-1.1336,-1.3052,-1.4766,-1.4569,-1.5115,-1.5705,-1.5705,0.0,0.0,0.0,0.0,0.0,0.0,0.0,0.0,0.0,0.0,0.0,0.0,0.0,0.0,0.0,0.0,0.0,0.0,0.0,0.0,0.0,0.0,0.0,0.0,0.0,0.0,-4.0243,-3.9445,-3.9445,-4.0459,-4.0602,-4.0702,-4.0702,-4.0702,-4.0702,-4.0702,-4.0702,-4.0702,0.0,0.0,0.0,-4.0702,-4.0702,-4.0702,-4.0702,-4.0702,-4.0702,-4.0702,-4.0702,-4.0702,-4.0702,-4.0702,-4.0702,-4.0702,-4.0702,-4.0702,-4.0702,-4.0702,-4.0702,-4.0224,-3.792,-3.7133,-3.6531,-3.4434,-3.3896,-3.3985,-3.4312,-3.4414,-3.4414,-3.4414,-3.4414,-3.4414,-3.4414,-3.4414,-3.4414,-3.4414,-3.4414,-3.4414,-3.4414,-3.4414,-3.4414,-3.4414,-3.4414,-3.4414,-3.4414,-3.4414,-3.4414,-3.4414,-3.4414,-3.4414,-3.4414,-3.4414,-3.4414,-3.4414,-3.4414,-3.4414,-3.4414,-3.4414,-3.4414,-3.4414,-3.4414,-3.4414,-3.4414,-3.4414,-3.4414,-1.2418,-1.3741,-1.4555,-1.353,-1.4499,-1.5705,-1.5705,0.0,0.0,0.0,0.0,0.0,0.0,0.0,0.0,0.0,0.0,0.0,0.0,0.0,0.0,0.0,0.0,0.0,0.0,0.0,0.0,0.0,0.0,0.0,0.0,0.0,0.0,-3.8264,-3.8082,-3.8464,-3.9431,-4.0272,-4.0702,-4.0702,-4.0702,-4.0702,-4.0702,-4.0702,-4.0702,0.0,0.0,-4.0702,-4.0702,-4.0702,-4.0702,-4.0702,-4.0702,-4.0702,-4.0702,-4.0702,-4.0702,-4.0702,-4.0702,-4.0702,-4.0702,-4.0702,-4.0702,-4.0702,-4.0702,-4.0702,-4.0407,-3.9015,-3.7847,-3.6531,-3.4434,-3.3896,-3.3985,-3.4312,-3.4414,-3.4414,-3.4414,-3.4414,-3.4414,-3.4414,-3.4414,-3.4414,-3.4414,-3.4414,-3.4414,-3.4414,-3.4414,-3.4414,-3.4414,-3.4414,-3.4414,-3.4414,-3.4414,-3.4414,-3.4414,-3.4414,-3.4414,-3.4414,-3.4414,-3.4414,-3.4414,-3.4414,-3.4414,-3.4414,-3.4414,-3.4414,-3.4414,-3.4414,-3.4414,-3.4414,-3.4414,-3.4414,-1.1814,-1.3122,-1.426,-1.4036,-1.5609,-1.7207,-1.7207,0.0,0.0,0.0,0.0,0.0,0.0,0.0,0.0,0.0,0.0,0.0,0.0,0.0,0.0,0.0,0.0,0.0,0.0,0.0,0.0,0.0,0.0,0.0,0.0,0.0,0.0,0.0,-3.7256,-3.7474,-3.8419,-3.8881,-3.9662,-4.0702,-4.0702,-4.0702,-4.0702,-4.0702,-4.0702,-4.0702,0.0,-4.0702,-4.0702,-4.0702,-4.0702,-4.0702,-4.0702,-4.0702,-4.0702,-4.0702,-4.0702,-4.0702,-4.0702,-4.0702,-4.0702,-4.0702,-4.0702,-4.0702,-4.0702,-4.0702,-4.0449,-3.9254,-3.8002,-3.6648,-3.5115,-3.4291,-3.3965,-3.4176,-3.4312,-3.4414,-3.4414,-3.4414,-3.4414,-3.4414,-3.4414,-3.4414,-3.4414,-3.4414,-3.4414,-3.4414,-3.4414,-3.4414,-3.4414,-3.4414,-3.4414,-3.4414,-3.4414,-3.4414,-3.4414,-3.4414,-3.4414,-3.4414,-3.4414,-3.4414,-3.4414,-3.4414,-3.4414,-3.4414,-3.4414,-3.4414,-3.4414,-3.4414,-3.4414,-3.4414,-3.4414,-3.4414,-1.1462,-1.27,-1.4092,-1.4822,0.0,-1.84,-1.8835,-1.9045,0.0,0.0,0.0,0.0,0.0,0.0,0.0,0.0,0.0,0.0,0.0,0.0,0.0,0.0,0.0,0.0,0.0,0.0,0.0,0.0,0.0,0.0,0.0,0.0,0.0,0.0,-3.6367,-3.6414,-3.7441,-3.7441,-3.8432,-4.0372,-4.0372,-4.0459,-4.0702,-4.0702,-4.0702,-4.0702,-4.0702,-4.0702,-4.0702,-4.0702,-4.0702,-4.0702,-4.0702,-4.0702,-4.0702,-4.0702,-4.0702,-4.0702,-4.0702,-4.0702,-4.0702,-4.0702,-4.0702,-4.0702,-4.0702,-4.0559,-4.022,-3.9522,-3.8011,-3.6465,-3.5624,-3.4647,-3.3917,-3.4074,-3.423,-3.4414,-3.4414,-3.4414,-3.4414,-3.4414,-3.4414,-3.4414,-3.4414,-3.4414,-3.4414,-3.4414,-3.4414,-3.4414,-3.4414,-3.4414,-3.4414,-3.4414,-3.4414,-3.4414,-3.4414,-3.4414,-3.4414,-3.4414,-3.4414,-3.4414,-3.4414,-3.4414,-3.4414,-3.4414,-3.4414,-3.4414,-3.4414,-3.4414,-3.4414,-3.4414,-3.4414,-3.4414,-1.2545,-1.3361,-1.4176,-1.534,-1.6659,0.0,-1.9866,-2.0703,0.0,-2.2536,0.0,0.0,0.0,0.0,0.0,0.0,0.0,0.0,0.0,0.0,0.0,0.0,0.0,0.0,0.0,0.0,0.0,0.0,0.0,0.0,0.0,0.0,0.0,0.0,0.0,-3.5391,-3.6414,-3.6414,-3.7356,-3.9299,-3.9299,-3.9809,-4.0702,-4.0702,-4.0702,-4.0702,-4.0702,-4.0702,-4.0702,-4.0702,-4.0702,-4.0702,-4.0702,-4.0702,-4.0702,-4.0702,-4.0702,-4.0702,-4.0702,-4.0702,-4.0702,-4.0702,-4.0702,-4.0702,-4.0702,-4.0041,-3.9461,-4.0304,-3.8187,-3.5557,-3.5424,-3.4647,-3.3917,-3.4074,-3.423,-3.4414,-3.4414,-3.4414,-3.4414,-3.4414,-3.4414,-3.4414,-3.4414,-3.4414,-3.4414,-3.4414,-3.4414,-3.4414,-3.4414,-3.4414,-3.4414,-3.4414,-3.4414,-3.4414,-3.4414,-3.4414,-3.4414,-3.4414,-3.4414,-3.4414,-3.4414,-3.4414,-3.4414,-3.4414,-3.4414,-3.4414,-3.4414,-3.4414,-3.4414,-3.4414,-3.4414,-3.4414,-1.1687,-1.3108,-1.4569,-1.5033,-1.694,0.0,0.0,-2.144,-2.2784,-2.4036,-2.4573,0.0,0.0,0.0,0.0,0.0,0.0,0.0,0.0,0.0,0.0,0.0,0.0,0.0,0.0,0.0,0.0,0.0,0.0,0.0,0.0,0.0,0.0,0.0,0.0,-3.4969,-3.5343,-3.5391,-3.6023,-3.7402,-3.8056,-3.8522,-3.8895,-3.8895,-3.9193,-3.9766,-3.9766,-4.0128,-4.0702,-4.0702,-4.0702,-4.0702,-4.0702,-4.0702,-4.0702,-4.0702,-4.0315,-3.9766,-3.9766,-3.9766,-3.9766,-3.9766,-4.0185,-4.0702,-4.0702,-3.9998,-3.9387,-4.0416,-3.8753,-3.662,-3.6445,-3.5071,-3.3744,-3.3937,-3.4108,-3.423,-3.438,-3.4414,-3.4414,-3.4414,-3.4414,-3.4414,-3.4414,-3.4414,-3.4414,-3.4414,-3.4414,-3.4414,-3.4414,-3.4414,-3.4414,-3.4414,-3.4414,-3.4414,-3.4414,-3.4414,-3.4414,-3.4414,-3.4414,-3.4414,-3.4414,-3.4414,-3.4414,-3.4414,-3.4414,-3.4414,-3.4414,-3.4414,-3.4414,-3.4414,-3.4414,-3.4414,-1.1436,-1.3207,-1.5129,0.0,0.0,0.0,-2.0976,-2.2521,-2.4134,-2.5583,0.0,0.0,0.0,0.0,0.0,0.0,0.0,0.0,0.0,0.0,0.0,0.0,0.0,0.0,0.0,0.0,0.0,0.0,0.0,0.0,0.0,0.0,0.0,0.0,0.0,-3.4775,-3.4775,-3.4775,-3.515,-3.5846,-3.6508,-3.7209,-3.7808,-3.7808,-3.816,-3.8765,-3.8765,-3.9135,-3.9793,-3.9793,-3.9968,-4.0229,-4.0229,-4.0416,-4.0702,-4.0702,-4.0272,-3.9621,-3.9299,-3.921,-3.9166,-3.8854,-3.9237,-3.9837,-4.0142,-3.9312,-3.8617,-4.0243,-3.8857,-3.6951,-3.6972,-3.5596,-3.4122,-3.3948,-3.4005,-3.4162,-3.4346,-3.4414,-3.4414,-3.4414,-3.4414,-3.4414,-3.4414,-3.4414,-3.4414,-3.4414,-3.4414,-3.4414,-3.4414,-3.4414,-3.4414,-3.4414,-3.4414,-3.4414,-3.4414,-3.4414,-3.4414,-3.4414,-3.4414,-3.4414,-3.4414,-3.4414,-3.4414,-3.4414,-3.4414,-3.4414,-3.4414,-3.4414,-3.4414,-3.4414,-3.4414,-3.4414,-1.2195,-1.3824,0.0,0.0,0.0,0.0,-2.255,-2.4095,-2.5541,-2.744,0.0,0.0,0.0,0.0,0.0,0.0,0.0,0.0,0.0,0.0,0.0,0.0,0.0,0.0,0.0,0.0,0.0,0.0,0.0,0.0,0.0,0.0,0.0,0.0,0.0,-3.4787,-3.4775,-3.4775,-3.4775,-3.4775,-3.4775,-3.5858,-3.7763,-3.7763,-3.7763,-3.7808,-3.7808,-3.7808,-3.7808,-3.7808,-3.8328,-3.921,-3.921,-3.9809,-4.0659,-4.0659,-4.0659,-4.0516,-3.9533,-3.9166,-3.9033,-3.8115,-3.7808,-3.7978,-3.8899,-3.7848,-3.6905,-3.9823,-3.8383,-3.6068,-3.6799,-3.6193,-3.5164,-3.4162,-3.4005,-3.4162,-3.4346,-3.4414,-3.4414,-3.4414,-3.4414,-3.4414,-3.4414,-3.4414,-3.4414,-3.4414,-3.4414,-3.4414,-3.4414,-3.4414,-3.4414,-3.4414,-3.4414,-3.4414,-3.4414,-3.4414,-3.4414,-3.4414,-3.4414,-3.4414,-3.4414,-3.4414,-3.4414,-3.4414,-3.4414,-3.4414,-3.4414,-3.4414,-3.4414,-3.4414,-3.4414,-3.4414,-1.277,0.0,0.0,0.0,0.0,0.0,0.0,-2.5077,0.0,0.0,0.0,0.0,0.0,0.0,0.0,0.0,0.0,0.0,0.0,0.0,0.0,0.0,0.0,0.0,0.0,0.0,0.0,0.0,0.0,0.0,0.0,0.0,0.0,0.0,-3.5376,-3.5159,-3.4775,-3.4775,-3.4775,-3.4775,-3.4775,-3.5102,-3.5667,-3.5667,-3.6083,-3.673,-3.673,-3.7163,-3.7808,-3.7808,-3.7933,-3.8206,-3.8206,-3.8387,-3.8671,-3.8671,-3.8206,-3.7645,-3.8056,-3.7736,-3.723,-3.7658,-3.7808,-3.7854,-3.8115,-3.7795,-3.7533,-3.8387,-3.809,-3.7184,-3.5759,-3.5678,-3.5607,-3.4221,-3.4005,-3.4162,-3.4346,-3.4414,-3.4414,-3.4414,-3.4414,-3.4414,-3.4414,-3.4414,-3.4414,-3.4414,-3.4414,-3.4414,-3.4414,-3.4414,-3.4414,-3.4414,-3.4414,-3.4414,-3.4414,-3.4414,-3.4414,-3.4414,-3.4414,-3.4414,-3.4414,-3.4414,-3.4414,-3.4414,-3.4414,-3.4414,-3.4414,-3.4414,-3.4414,-3.4414,-3.4414,-3.4414,-1.3642,0.0,0.0,0.0,0.0,0.0,0.0,0.0,0.0,0.0,0.0,0.0,0.0,0.0,0.0,0.0,0.0,0.0,0.0,0.0,0.0,0.0,0.0,0.0,0.0,0.0,0.0,0.0,0.0,0.0,0.0,0.0,0.0,0.0,-3.5725,-3.5461,-3.5148,-3.4931,-3.4775,-3.4775,-3.4775,-3.4775,-3.4775,-3.4775,-3.515,-3.5715,-3.5715,-3.6036,-3.6602,-3.6602,-3.6837,-3.7209,-3.7209,-3.7441,-3.7808,-3.7808,-3.7441,-3.693,-3.7116,-3.6837,-3.632,-3.6555,-3.6602,-3.6696,-3.7057,-3.7023,-3.693,-3.775,-3.7854,-3.7331,-3.531,-3.5318,-3.5441,-3.3923,-3.3819,-3.4162,-3.4346,-3.4414,-3.4414,-3.4414,-3.4414,-3.4414,-3.4414,-3.4414,-3.4414,-3.4414,-3.4414,-3.4414,-3.4414,-3.4414,-3.4414,-3.4414,-3.4414,-3.4414,-3.4414,-3.4414,-3.4414,-3.4414,-3.4414,-3.4414,-3.4414,-3.4414,-3.4414,-3.4414,-3.4414,-3.4414,-3.4414,-3.4414,-3.4414,-3.4414,-3.4414,-3.4414,0.0,0.0,0.0,0.0,0.0,0.0,0.0,0.0,0.0,0.0,0.0,0.0,0.0,0.0,0.0,0.0,0.0,0.0,0.0,0.0,0.0,0.0,0.0,0.0,0.0,0.0,0.0,0.0,0.0,0.0,0.0,0.0,0.0,0.0,-3.6014,-3.5737,-3.5689,-3.5111,-3.4847,0.0,-3.4799,-3.4775,-3.4775,-3.4775,-3.4775,-3.4775,-3.4775,-3.4775,-3.4775,-3.4775,-3.5343,-3.6178,-3.6178,-3.673,-3.7533,-3.7533,-3.7533,-3.7394,-3.6602,-3.6225,-3.6048,-3.5199,-3.4872,-3.4969,-3.5906,-3.5775,-3.5679,-3.7415,-3.75,-3.6746,-3.5231,-3.5017,-3.4781,-3.3285,-3.3494,-3.4079,-3.4264,-3.4346,-3.4414,-3.4414,-3.4414,-3.4414,-3.4414,-3.4414,-3.4414,-3.4414,-3.4414,-3.4414,-3.4414,-3.4414,-3.4414,-3.4414,-3.4414,-3.4414,-3.4414,-3.4414,-3.4414,-3.4414,-3.4414,-3.4414,-3.4414,-3.4414,-3.4414,-3.4414,-3.4414,-3.4414,-3.4414,-3.4414,-3.4414,-3.4414,-3.4414,-3.4414,0.0,-1.6368,0.0,0.0,0.0,0.0,0.0,0.0,0.0,0.0,0.0,0.0,0.0,0.0,0.0,0.0,0.0,0.0,0.0,0.0,0.0,0.0,0.0,0.0,0.0,0.0,0.0,0.0,0.0,0.0,0.0,0.0,0.0,-3.7036,-3.6916,-3.6651,-3.6242,-3.5713,-3.5449,0.0,-3.4979,-3.4775,-3.4775,-3.4775,-3.4775,-3.4775,-3.4775,-3.4775,-3.4775,-3.4775,-3.492,-3.5102,-3.5102,-3.5247,-3.544,-3.544,-3.544,-3.5523,-3.6083,-3.5763,-3.5199,-3.581,-3.5427,-3.4823,-3.5066,-3.5571,-3.6001,-3.5619,-3.6143,-3.6358,-3.4417,-3.4007,-3.3814,-3.266,-3.29,-3.3416,-3.3451,-3.3962,-3.4414,-3.4414,-3.4414,-3.4414,-3.4414,-3.4414,-3.4414,-3.4414,-3.4414,-3.4414,-3.4414,-3.4414,-3.4414,-3.4414,-3.4414,-3.4414,-3.4414,-3.4414,-3.4414,-3.4414,-3.4414,-3.4414,-3.4414,-3.4414,-3.4414,-3.4414,-3.4414,-3.4414,-3.4414,-3.4414,-3.4414,-3.4414,-3.4414,-3.4414,0.0,0.0,0.0,0.0,0.0,0.0,0.0,0.0,0.0,0.0,0.0,0.0,0.0,0.0,0.0,0.0,0.0,0.0,0.0,0.0,0.0,0.0,0.0,0.0,0.0,0.0,0.0,0.0,0.0,0.0,0.0,-3.694,-3.7216,-3.7192,-3.7192,-3.706,-3.6783,-3.6254,-3.599,-3.599,-3.5461,-3.5076,-3.4775,-3.4775,-3.4775,-3.4775,-3.4775,-3.4775,-3.4775,-3.4775,-3.4775,-3.4775,-3.4775,-3.4775,-3.4775,-3.4775,-3.4775,-3.4872,-3.5391,-3.5247,-3.4872,-3.544,-3.5247,-3.4775,-3.4775,-3.5259,-3.5679,-3.5114,-3.5644,-3.5965,-3.4361,-3.3695,-3.3208,-3.2075,-3.2517,-3.3178,-3.3178,-3.3811,-3.4414,-3.4414,-3.4414,-3.4414,-3.4414,-3.4414,-3.4414,-3.4414,-3.4414,-3.4414,-3.4414,-3.4414,-3.4414,-3.4414,-3.4414,-3.4414,-3.4414,-3.4414,-3.4414,-3.4414,-3.4414,-3.4414,-3.4414,-3.4414,-3.4414,-3.4414,-3.4414,-3.4414,-3.4414,-3.4414,-3.4414,-3.4414,-3.4414,-3.4414,0.0,0.0,0.0,0.0,0.0,0.0,0.0,0.0,0.0,0.0,0.0,0.0,0.0,0.0,0.0,0.0,0.0,0.0,0.0,0.0,0.0,0.0,0.0,0.0,0.0,0.0,0.0,0.0,0.0,0.0,0.0,-3.5845,-3.6374,-3.6904,-3.7012,-3.7096,-3.7192,-3.6759,-3.6543,-3.6531,-3.5918,-3.5388,-3.4907,-3.4823,-3.4775,-3.4775,-3.4775,-3.4775,-3.4775,-3.4775,-3.4775,-3.4775,-3.4775,-3.4775,-3.4775,-3.4775,-3.4775,-3.4775,-3.4775,-3.4775,-3.4775,-3.4775,-3.4775,-3.4775,-3.4775,-3.4969,-3.5126,-3.5126,-3.5476,-3.5649,-3.4687,-3.3724,-3.2787,-3.1859,-3.2221,-3.2847,-3.2967,-3.3638,-3.423,-3.4366,-3.4414,-3.4414,-3.4414,-3.4414,-3.4414,-3.4414,-3.4414,-3.4414,-3.4414,-3.4414,-3.4414,-3.4414,-3.4414,-3.4414,-3.4414,-3.4414,-3.4414,-3.4414,-3.4414,-3.4414,-3.4414,-3.4414,-3.4414,-3.4414,-3.4414,-3.4414,-3.4414,-3.4414,-3.4414,-3.4414,-3.4414,-3.4414,0.0,0.0,0.0,0.0,0.0,0.0,0.0,0.0,0.0,0.0,0.0,0.0,0.0,0.0,0.0,0.0,0.0,0.0,0.0,0.0,0.0,0.0,0.0,0.0,0.0,0.0,0.0,0.0,0.0,0.0,-3.4198,-3.4703,-3.528,-3.5809,-3.6266,-3.6723,-3.7192,-3.712,-3.7084,-3.7072,-3.6086,-3.5581,-3.5497,-3.504,-3.4775,-3.4775,-3.4775,-3.4775,-3.4775,-3.4775,-3.4775,-3.4775,-3.4775,-3.4775,-3.4775,-3.4775,-3.4775,-3.4775,-3.4775,-3.4775,-3.4775,-3.4775,-3.4775,-3.4775,-3.4775,-3.4835,-3.4823,-3.4823,-3.5078,-3.5283,-3.5137,-3.3933,-3.2717,-3.258,-3.1842,-3.1402,-3.211,-3.2826,-3.3555,-3.4264,-3.4414,-3.4414,-3.4414,-3.4414,-3.4414,-3.4414,-3.4414,-3.4414,-3.4414,-3.4414,-3.4414,-3.4414,-3.4414,-3.4414,-3.4414,-3.4414,-3.4414,-3.4414,-3.4414,-3.4414,-3.4414,-3.4414,-3.4414,-3.4414,-3.4414,-3.4414,-3.4414,-3.4414,-3.4414,-3.4414,-3.4414,-3.4414,0.0,0.0,0.0,0.0,0.0,0.0,0.0,0.0,0.0,0.0,0.0,0.0,0.0,0.0,0.0,0.0,0.0,0.0,0.0,0.0,0.0,0.0,0.0,0.0,0.0,0.0,0.0,0.0,0.0,0.0,-3.3176,-3.3681,-3.4198,-3.4667,-3.5244,-3.5773,-3.6302,-3.6603,-3.6904,-3.718,-3.6723,-3.6338,-3.6038,-3.5509,-3.5063,-3.4775,-3.4775,-3.4775,-3.4775,-3.4775,-3.4775,-3.4775,-3.4775,-3.4775,-3.4775,-3.4775,-3.4775,-3.4775,-3.4775,-3.4775,-3.4775,-3.4775,-3.4775,-3.4775,-3.4775,-3.4872,-3.503,-3.503,-3.5332,-3.5521,-3.4858,-3.3814,-3.2839,-3.2426,-3.1261,-3.0381,-3.0722,-3.2412,-3.3977,-3.4332,-3.4414,-3.4414,-3.4414,-3.4414,-3.4414,-3.4414,-3.4414,-3.4414,-3.4414,-3.4414,-3.4414,-3.4414,-3.4414,-3.4414,-3.4414,-3.4414,-3.4414,-3.4414,-3.4414,-3.4414,-3.4414,-3.4414,-3.4414,-3.4414,-3.4414,-3.4414,-3.4414,-3.4414,-3.4414,-3.4414,-3.4414,-3.4414,0.0,0.0,0.0,0.0,0.0,0.0,0.0,0.0,0.0,0.0,0.0,0.0,0.0,0.0,0.0,0.0,0.0,0.0,0.0,0.0,0.0,0.0,0.0,0.0,0.0,0.0,0.0,0.0,0.0,0.0,-3.2515,-3.2875,-3.326,-3.3598,-3.4162,-3.4691,-3.5208,-3.5869,-3.6471,-3.7,-3.7,-3.6855,-3.6579,-3.5918,-3.54,-3.5016,-3.4835,-3.4775,-3.4775,-3.4775,-3.4775,-3.4775,-3.4775,-3.4775,-3.4775,-3.4775,-3.4775,-3.4775,-3.4775,-3.4823,-3.4872,-3.4872,-3.4932,-3.4981,-3.4981,-3.5126,-3.532,-3.532,-3.562,-3.5754,-3.4591,-3.372,-3.291,-3.2026,-3.0783,-2.9895,-3.0292,-3.2354,-3.4147,-3.4346,-3.4414,-3.4414,-3.4414,-3.4414,-3.4414,-3.4414,-3.4414,-3.4414,-3.4414,-3.4414,-3.4414,-3.4414,-3.4414,-3.4414,-3.4414,-3.4414,-3.4414,-3.4414,-3.4414,-3.4414,-3.4414,-3.4414,-3.4414,-3.4414,-3.4414,-3.4414,-3.4414,-3.4414,-3.4414,-3.4414,-3.4414,-3.4414,0.0,0.0,0.0,0.0,0.0,0.0,0.0,0.0,0.0,0.0,0.0,0.0,0.0,0.0,0.0,0.0,0.0,0.0,0.0,0.0,0.0,0.0,0.0,0.0,0.0,0.0,0.0,0.0,0.0,0.0,-3.2527,-3.2527,-3.2551,-3.2575,-3.3092,-3.3621,-3.4066,-3.5148,-3.5918,-3.6447,-3.6447,-3.6699,-3.712,-3.6086,-3.5605,-3.5545,-3.5003,-3.4775,-3.4775,-3.4775,-3.4775,-3.4775,-3.4775,-3.4775,-3.4775,-3.4775,-3.4775,-3.4775,-3.4775,-3.4981,-3.5175,-3.5175,-3.5368,-3.5572,-3.5572,-3.5572,-3.5572,-3.5572,-3.5764,-3.5754,-3.4591,-3.372,-3.2847,-3.1687,-3.0583,-3.019,-3.1649,-3.2648,-3.3485,-3.4264,-3.4414,-3.4414,-3.4414,-3.4414,-3.4414,-3.4414,-3.4414,-3.4414,-3.4414,-3.4414,-3.4414,-3.4414,-3.4414,-3.4414,-3.4414,-3.4414,-3.4414,-3.4414,-3.4414,-3.4414,-3.4414,-3.4414,-3.4414,-3.4414,-3.4414,-3.4414,-3.4414,-3.4414,-3.4414,-3.4414,-3.4414,-3.4414,0.0,0.0,0.0,0.0,0.0,0.0,0.0,0.0,0.0,0.0,0.0,0.0,0.0,0.0,0.0,0.0,0.0,0.0,0.0,0.0,0.0,0.0,0.0,0.0,0.0,0.0,0.0,0.0,0.0,0.0,-3.3032,-3.2683,-3.2503,-3.2503,-3.2334,-3.2671,-3.3549,-3.4258,-3.504,-3.5905,-3.5905,-3.6182,-3.6675,-3.629,-3.5942,-3.5605,-3.5425,-3.5148,-3.4775,-3.4775,-3.4775,-3.4775,-3.4775,-3.4775,-3.4775,-3.4775,-3.4775,-3.4775,-3.4775,-3.4872,-3.492,-3.492,-3.5126,-3.532,-3.532,-3.5572,-3.5872,-3.5824,-3.6003,-3.5915,-3.4577,-3.3326,-3.2026,-3.0683,-3.0068,-3.0075,-3.1095,-3.1928,-3.2875,-3.4162,-3.4414,-3.4414,-3.4414,-3.4414,-3.4414,-3.4414,-3.4414,-3.4414,-3.4414,-3.4414,-3.4414,-3.4414,-3.4414,-3.4414,-3.4414,-3.4414,-3.4414,-3.4414,-3.4414,-3.4414,-3.4414,-3.4414,-3.4414,-3.4414,-3.4414,-3.4414,-3.4414,-3.4414,-3.4414,-3.4414,-3.4414,-3.4414,-0.9049,0.0,0.0,0.0,0.0,0.0,0.0,0.0,0.0,0.0,0.0,0.0,0.0,0.0,0.0,0.0,0.0,0.0,0.0,0.0,0.0,0.0,0.0,0.0,0.0,0.0,0.0,0.0,0.0,0.0,-3.332,-3.3116,-3.2863,-3.2515,-3.213,-3.2202,-3.2743,-3.326,-3.397,-3.4835,-3.5004,-3.5461,-3.6134,-3.6134,-3.605,-3.5881,-3.5881,-3.5485,-3.4775,-3.4775,-3.4775,-3.4775,-3.4775,-3.4775,-3.4775,-3.4775,-3.4775,-3.4775,-3.4775,-3.4884,-3.492,-3.492,-3.5126,-3.532,-3.532,-3.5572,-3.5872,-3.5872,-3.6051,-3.5937,-3.455,-3.2759,-3.0997,-3.003,-2.9792,-2.9934,-3.0406,-3.1206,-3.2232,-3.3618,-3.4162,-3.4414,-3.4414,-3.4414,-3.4414,-3.4414,-3.4414,-3.4414,-3.4414,-3.4414,-3.4414,-3.4414,-3.4414,-3.4414,-3.4414,-3.4414,-3.4414,-3.4414,-3.4414,-3.4414,-3.4414,-3.4414,-3.4414,-3.4414,-3.4414,-3.4414,-3.4414,-3.4414,-3.4414,-3.4414,-3.4414,-3.4414,0.0,0.0,0.0,0.0,0.0,0.0,0.0,0.0,0.0,0.0,0.0,0.0,0.0,0.0,0.0,0.0,0.0,0.0,0.0,0.0,0.0,0.0,0.0,0.0,0.0,0.0,0.0,0.0,0.0,-3.3753,-3.3272,-3.3717,-3.3537,-3.2551,-3.2515,-3.2238,-3.1741,-3.2214,-3.2743,-3.3272,-3.3765,-3.4486,-3.5545,-3.5581,-3.5869,-3.6362,-3.6386,-3.5821,-3.4823,-3.4811,-3.4799,-3.4775,-3.4775,-3.4775,-3.4775,-3.4775,-3.4775,-3.4775,-3.4775,-3.4981,-3.5175,-3.5175,-3.5368,-3.5572,-3.5572,-3.5572,-3.5608,-3.5775,-3.581,-3.5558,-3.4347,-3.1926,-2.9792,-2.9792,-2.9792,-2.9792,-2.9792,-3.0583,-3.1553,-3.2618,-3.3667,-3.4332,-3.4332,-3.4298,-3.4312,-3.438,-3.4414,-3.4414,-3.4414,-3.4414,-3.4414,-3.4414,-3.4414,-3.4414,-3.4414,-3.4414,-3.4414,-3.4414,-3.4414,-3.4414,-3.4414,-3.4414,-3.4414,-3.4414,-3.4414,-3.4414,-3.4414,-3.4414,-3.4414,-3.4414,-3.4414,-3.4414,-0.8376,0.0,0.0,0.0,0.0,0.0,0.0,0.0,0.0,0.0,0.0,0.0,0.0,0.0,0.0,0.0,0.0,0.0,0.0,0.0,0.0,0.0,0.0,0.0,0.0,0.0,0.0,0.0,-3.2166,-3.2262,-3.2163,-3.2623,-3.2971,-3.3068,-3.2695,-3.243,-3.2274,-3.2022,-3.2178,-3.2719,-3.2851,-3.3272,-3.3958,-3.4703,-3.5075,-3.5304,-3.6074,-3.6242,-3.5942,-3.5557,-3.5172,-3.4775,-3.4775,-3.4775,-3.4775,-3.4775,-3.4775,-3.4775,-3.4775,-3.4823,-3.4932,-3.4932,-3.5078,-3.532,-3.532,-3.5476,-3.5351,-3.4262,-3.3968,-3.3437,-3.1212,-3.0079,-2.956,-2.974,-2.9792,-2.9792,-2.9792,-3.0011,-3.047,-3.1281,-3.2146,-3.2733,-3.2733,-3.1809,-3.1809,-3.4045,-3.4414,-3.4414,-3.4414,-3.4414,-3.4414,-3.4414,-3.4414,-3.4414,-3.4414,-3.4414,-3.4414,-3.4414,-3.4414,-3.4414,-3.4414,-3.4414,-3.4414,-3.4414,-3.4414,-3.4414,-3.4414,-3.4414,-3.4414,-3.4414,-3.4414,-3.4414,0.0,0.0,0.0,0.0,0.0,0.0,0.0,0.0,0.0,0.0,0.0,0.0,0.0,0.0,0.0,0.0,0.0,0.0,0.0,0.0,0.0,0.0,0.0,0.0,0.0,0.0,0.0,-2.9268,-3.017,-3.1007,-3.1669,-3.2018,-3.2394,-3.2947,-3.2659,-3.2611,-3.2827,-3.2286,-3.2178,-3.2503,-3.2262,-3.2442,-3.2984,-3.3813,-3.4414,-3.4823,-3.5713,-3.6194,-3.6386,-3.6074,-3.5629,-3.5087,-3.4871,-3.4775,-3.4775,-3.4775,-3.4775,-3.4775,-3.4775,-3.4775,-3.4775,-3.4775,-3.4631,-3.4424,-3.4424,-3.4203,-3.3823,-3.3196,-3.222,-3.1076,-2.9668,-2.9341,-2.9431,-2.974,-2.9792,-2.9792,-2.9792,-2.9792,-2.9934,-3.0343,-3.0822,-3.1158,-3.1158,-3.0406,-3.0406,-3.2209,-3.2461,-3.2461,-3.2461,-3.2461,-3.2974,-3.4264,-3.4414,-3.4414,-3.4414,-3.4414,-3.4414,-3.4414,-3.4414,-3.4414,-3.4414,-3.4414,-3.4414,-3.4414,-3.4414,-3.4414,-3.4414,-3.4414,-3.4414,-3.4414,-3.4414,-3.4414,0.0,0.0,0.0,0.0,0.0,0.0,0.0,-1.2806,0.0,0.0,0.0,0.0,0.0,0.0,0.0,0.0,0.0,0.0,0.0,0.0,0.0,0.0,0.0,0.0,0.0,0.0,-2.5793,-2.5913,-2.7741,-2.952,-3.1103,-3.1296,-3.1645,-3.2214,-3.2346,-3.2659,-3.32,-3.2671,-3.2442,-3.2491,-3.1982,-3.197,-3.243,-3.2959,-3.3729,-3.4691,-3.528,-3.5833,-3.6314,-3.6314,-3.6074,-3.5653,-3.5124,-3.4871,-3.4859,-3.4799,-3.4775,-3.4763,-3.4643,-3.4607,-3.4583,-3.4462,-3.3861,-3.3104,-3.3104,-3.2476,-3.1813,-3.2286,-3.0731,-2.8949,-2.9223,-2.9275,-2.9392,-2.9702,-2.9792,-2.9792,-2.9792,-2.9792,-2.9792,-2.9792,-2.9792,-2.9792,-2.9792,-2.9792,-2.9792,-2.9792,-2.9792,-2.9792,-2.9792,-2.9792,-3.0835,-3.3583,-3.3874,-3.3874,-3.3874,-3.4196,-3.4414,-3.4414,-3.4414,-3.4414,-3.4414,-3.4414,-3.4414,-3.4414,-3.4414,-3.4414,-3.4414,-3.4414,-3.4414,-3.4414,-3.4414,-3.4414,0.0,0.0,0.0,0.0,0.0,0.0,0.0,-1.1171,0.0,0.0,0.0,0.0,0.0,0.0,0.0,0.0,0.0,0.0,0.0,0.0,0.0,0.0,0.0,0.0,0.0,0.0,-2.3929,-2.4771,-2.5612,-2.6598,-2.775,-2.8667,-2.9569,-3.053,-3.1428,-3.2094,-3.2647,-3.2106,-3.2058,-3.2491,-3.1982,-3.1765,-3.1886,-3.2394,-3.2996,-3.3645,-3.4583,-3.528,-3.5773,-3.5773,-3.5966,-3.6194,-3.5665,-3.5461,-3.5412,-3.4943,-3.4775,-3.4667,-3.3873,-3.3585,-3.344,-3.2575,-3.2187,-3.203,-3.203,-3.1874,-3.156,-3.0807,-2.9733,-2.8882,-2.9079,-2.9236,-2.9392,-2.9702,-2.9792,-2.9792,-2.9792,-2.9792,-2.9792,-2.9792,-2.9792,-2.9792,-2.9792,-2.9792,-2.9792,-2.9792,-2.9792,-2.9792,-2.9792,-2.9792,-3.0049,-3.0621,-3.0697,-3.0697,-3.0697,-3.2974,-3.4414,-3.4414,-3.4414,-3.4414,-3.4414,-3.4414,-3.4414,-3.4414,-3.4414,-3.4414,-3.4414,-3.4414,-3.4414,-3.4414,-3.4414,-3.4414,0.0,0.0,0.0,-1.3228,0.0,0.0,0.0,0.0,0.0,0.0,0.0,0.0,0.0,0.0,0.0,0.0,0.0,0.0,0.0,0.0,0.0,0.0,0.0,0.0,0.0,0.0,-2.1964,-2.3256,-2.3845,-2.4614,-2.5637,-2.649,-2.7404,-2.8474,-2.9544,-3.0603,-3.1685,-3.1949,-3.2358,-3.2887,-3.2346,-3.2082,-3.2082,-3.2082,-3.2382,-3.2923,-3.344,-3.4258,-3.522,-3.522,-3.5376,-3.5617,-3.5617,-3.5773,-3.5881,-3.4775,-3.439,-3.4198,-3.2935,-3.2524,-3.2394,-3.1886,-3.1356,-3.0922,-3.0922,-3.0506,-3.0019,-2.9559,-2.9137,-2.887,-2.9118,-2.9197,-2.9287,-2.9702,-2.9792,-2.9792,-2.9792,-2.9792,-2.9792,-2.9792,-2.9792,-2.9792,-2.9792,-2.9792,-2.9792,-2.9792,-2.9792,-2.9792,-2.9792,-2.9792,-2.9792,-2.9792,-2.9792,-2.9792,-2.9792,-3.1209,-3.2426,-3.3206,-3.3241,-3.343,-3.3776,-3.3811,-3.4011,-3.438,-3.4414,-3.4414,-3.4414,-3.4414,-3.4414,-3.4414,-3.4414,-3.4414,0.0,0.0,0.0,0.0,0.0,-1.3414,0.0,0.0,0.0,0.0,0.0,0.0,0.0,0.0,0.0,0.0,0.0,0.0,0.0,0.0,0.0,0.0,0.0,0.0,0.0,0.0,-1.9841,-2.1452,-2.1873,-2.251,-2.3544,-2.441,-2.5264,-2.6105,-2.7392,-2.8715,-3.011,-3.1084,-3.1997,-3.2815,-3.2394,-3.2346,-3.2635,-3.2082,-3.1961,-3.219,-3.219,-3.2791,-3.3777,-3.3982,-3.4126,-3.4294,-3.5028,-3.5449,-3.5485,-3.409,-3.3585,-3.3368,-3.1877,-3.1404,-3.1368,-3.1163,-3.0513,-2.9868,-2.9868,-2.9265,-2.8669,-2.8803,-2.8882,-2.8949,-2.9223,-2.9287,-2.9339,-2.9702,-2.9792,-2.9792,-2.9792,-2.9792,-2.9792,-2.9792,-2.9792,-2.9792,-2.9792,-2.9792,-2.9792,-2.9792,-2.9792,-2.9792,-2.9792,-2.9792,-2.9792,-2.9792,-2.9792,-2.9792,-2.9792,-2.9792,-3.033,-3.1576,-3.1942,-3.2362,-3.2967,-3.3262,-3.3742,-3.438,-3.4414,-3.4414,-3.4414,-3.4414,-3.4414,-3.4414,-3.4414,-3.4414,0.0,0.0,0.0,0.0,-1.4883,0.0,0.0,0.0,0.0,0.0,0.0,0.0,0.0,0.0,0.0,0.0,0.0,0.0,0.0,0.0,0.0,0.0,0.0,0.0,0.0,0.0,0.0,-1.9227,-1.8975,-1.9203,-2.029,-2.2173,-2.3336,-2.3424,-2.5348,-2.6695,-2.7342,-2.793,-2.9232,-3.1187,-3.1127,-3.1805,-3.3176,-3.2647,-3.1913,-3.106,-3.106,-3.0627,-3.0001,-3.0939,-3.1601,-3.2166,-3.3645,-3.3646,-3.2863,-3.2178,-3.1982,-3.1813,-3.0651,-3.0266,-3.011,-2.9172,-2.8895,-2.8946,-2.8946,-2.898,-2.9052,-2.9052,-2.9197,-2.9341,-2.9314,-2.9495,-2.9714,-2.9792,-2.9792,-2.9792,-2.9792,-2.9792,-2.9792,-2.9792,-2.9792,-2.9792,-2.9792,-2.9792,-2.9792,-2.9792,-2.9792,-2.9792,-2.9792,-2.9792,-2.9792,-2.9792,-2.9792,-2.9792,-2.9792,-2.9792,-2.9869,-3.0049,-3.1331,-3.2146,-3.2218,-3.3534,-3.4312,-3.4414,-3.4414,-3.4414,-3.4414,-3.4414,-3.4414,-3.4414,-3.4414,-3.4414,0.0,0.0,0.0,0.0,0.0,0.0,0.0,0.0,-1.3595,0.0,0.0,0.0,0.0,0.0,0.0,0.0,0.0,0.0,0.0,0.0,0.0,0.0,0.0,0.0,0.0,0.0,0.0,0.0,0.0,-1.7881,-1.9251,-2.0783,-2.1759,-2.2053,-2.3809,-2.4999,-2.5493,-2.6645,-2.7978,-2.9508,-2.9508,-3.0013,-3.0951,-3.0422,-2.9941,-2.9508,-2.9508,-2.9424,-2.9328,-2.9785,-3.0098,-3.0362,-3.1023,-3.1973,-3.2815,-3.1637,-3.1247,-3.1055,-2.9641,-2.9172,-2.91,-2.8655,-2.8538,-2.8618,-2.8618,-2.8697,-2.8788,-2.8882,-2.9,-2.9106,-2.9263,-2.9534,-2.9792,-2.9792,-2.9792,-2.9792,-2.9792,-2.9792,-2.9792,-2.9792,-2.9792,-2.9792,-2.9792,-2.9792,-2.9792,-2.9792,-2.9792,-2.9792,-2.9792,-2.9792,-2.9792,-2.9792,-2.9792,-2.9792,-2.9792,-2.9792,-2.9792,-2.9792,-3.0406,-3.1158,-3.2037,-3.3569,-3.4414,-3.4414,-3.4414,-3.4414,-3.4414,-3.4414,-3.4414,-3.4414,-3.4414,-3.4414,-1.5828,0.0,0.0,0.0,0.0,0.0,0.0,0.0,0.0,0.0,0.0,0.0,0.0,0.0,0.0,0.0,0.0,0.0,0.0,0.0,0.0,0.0,0.0,0.0,0.0,0.0,0.0,0.0,0.0,0.0,-1.8253,-1.9507,-2.0422,-2.0935,-2.2366,-2.3364,-2.3869,-2.5156,-2.6526,-2.7849,-2.8005,-2.8582,-2.9496,-2.8967,-2.857,-2.8282,-2.8138,-2.8126,-2.8222,-2.8366,-2.8426,-2.845,-2.8751,-3.005,-3.1637,-3.0615,-3.023,-3.0062,-2.8919,-2.851,-2.851,-2.851,-2.855,-2.8578,-2.8578,-2.8618,-2.8697,-2.8843,-2.8882,-2.8922,-2.9157,-2.9365,-2.9534,-2.9468,-2.9636,-2.9792,-2.9792,-2.9792,-2.9792,-2.9792,-2.9792,-2.9792,-2.9792,-2.9792,-2.9792,-2.9792,-2.9792,-2.9792,-2.9792,-2.9792,-2.9792,-2.9792,-2.9792,-2.9792,-2.9792,-2.9792,-2.9792,-2.9792,-2.9792,-3.0292,-3.1405,-3.2533,-3.315,-3.315,-3.3534,-3.3977,-3.4414,-3.4128,-3.4128,-3.4414,-3.4414,-3.4414,0.0,0.0,0.0,-1.4832,0.0,0.0,0.0,0.0,-1.4965,0.0,0.0,0.0,0.0,0.0,0.0,0.0,0.0,0.0,0.0,0.0,0.0,0.0,0.0,0.0,0.0,0.0,0.0,0.0,0.0,0.0,-1.6571,-1.8193,-1.9314,-1.9844,-2.0899,-2.1728,-2.2258,-2.2823,-2.4145,-2.6178,-2.6681,-2.8065,-3.005,-2.9508,-2.8715,-2.7678,-2.7174,-2.6357,-2.548,-2.5985,-2.6202,-2.631,-2.7356,-2.7786,-2.7957,-2.8414,-2.8595,-2.8582,-2.8522,-2.851,-2.851,-2.851,-2.8618,-2.8803,-2.8803,-2.8922,-2.9091,-2.9091,-2.9091,-2.9052,-2.8949,-2.891,-2.887,-2.859,-2.9194,-2.9792,-2.9792,-2.9792,-2.9792,-2.9792,-2.9792,-2.9792,-2.9792,-2.9792,-2.9792,-2.9792,-2.9792,-2.9792,-2.9792,-2.9792,-2.9792,-2.9792,-2.9792,-2.9792,-2.9792,-2.9792,-2.9792,-2.9792,-2.9792,-2.983,-2.9869,-2.9934,-2.9946,-2.9946,-3.1405,-3.2925,-3.4414,-3.3409,-3.3444,-3.4414,-3.4414,-3.4414,0.0,0.0,-1.6917,-1.5139,0.0,0.0,0.0,0.0,0.0,0.0,0.0,0.0,0.0,0.0,0.0,0.0,0.0,0.0,0.0,0.0,0.0,0.0,0.0,0.0,0.0,0.0,0.0,0.0,0.0,0.0,0.0,-1.7796,-1.8867,-1.9772,-2.0839,-2.1656,-2.2185,-2.2366,-2.2991,-2.4037,-2.4578,-2.5384,-2.6406,-2.6586,-2.6466,-2.6117,-2.5937,-2.5648,-2.5324,-2.5504,-2.5781,-2.6178,-2.6873,-2.7378,-2.775,-2.8318,-2.851,-2.851,-2.851,-2.851,-2.851,-2.851,-2.855,-2.8618,-2.8618,-2.8724,-2.8882,-2.8882,-2.8882,-2.8882,-2.891,-2.891,-2.891,-2.8895,-2.9143,-2.9417,-2.9714,-2.9792,-2.9792,-2.9792,-2.9792,-2.9792,-2.9792,-2.9792,-2.9792,-2.9792,-2.9792,-2.9792,-2.9792,-2.9792,-2.9792,-2.9792,-2.9792,-2.9792,-2.9792,-2.9792,-2.9792,-2.9792,-2.9792,-2.9792,-2.9792,-2.9792,-2.9792,-2.9792,-3.0292,-3.1158,-3.234,-3.2725,-3.315,-3.3638,-3.4147,-3.4414,-1.6334,-1.6561,0.0,-1.5231,-1.4861,0.0,-1.3909,0.0,0.0,0.0,0.0,0.0,0.0,0.0,0.0,0.0,0.0,0.0,0.0,0.0,0.0,0.0,0.0,0.0,0.0,0.0,-1.2234,-1.3891,0.0,0.0,0.0,0.0,-1.8326,-1.9191,-2.0466,-2.138,-2.1909,-2.2101,-2.2462,-2.3023,-2.3553,-2.4037,-2.4508,-2.5071,-2.5312,-2.5312,-2.5312,-2.5312,-2.5312,-2.5312,-2.5504,-2.5889,-2.6609,-2.7102,-2.7486,-2.8246,-2.851,-2.851,-2.851,-2.851,-2.851,-2.851,-2.851,-2.851,-2.851,-2.8657,-2.8791,-2.8791,-2.8843,-2.8922,-2.891,-2.891,-2.8949,-2.9118,-2.917,-2.9248,-2.9573,-2.974,-2.9792,-2.9792,-2.9792,-2.9792,-2.9792,-2.9792,-2.9792,-2.9792,-2.9792,-2.9792,-2.9792,-2.9792,-2.9792,-2.9792,-2.9792,-2.9792,-2.9792,-2.9792,-2.9792,-2.9792,-2.9792,-2.9792,-2.9792,-2.9792,-2.9792,-2.9792,-2.9792,-3.0254,-3.1169,-3.1833,-3.2555,-3.3213,-3.3742,-3.4113]}]]